[[{"header":{"parameterUnit":"m.s-1","parameterCategory":1,"la1":30.6,"la2":29.2853,"lo1":-89.7004,"lo2":-87.6739,"dy":0.0162,"dx":0.0183,"nx":112,"ny":82,"refTime":"2024-07-03T12:00:00:Z","depth":0,"parameterNumber":2,"parameterNumberName":"U-component_of_WINDS"},"data":[0.0,0.0,0.0,0.0,0.0,0.0,0.0,0.0,0.0,0.0,0.0,0.0,0.0,0.0,0.0,0.0,0.0,0.0,0.0,0.0,0.0,0.0,0.0,0.0,0.0,0.0,0.0,0.0,0.0,0.0,0.0,0.0,0.0,0.0,0.0,0.0,0.0,0.0,0.0,0.0,0.0,0.0,0.0,0.0,0.0,0.0,0.0,0.0,0.0,0.0,0.0,0.0,0.0,0.0,0.0,0.0,0.0,0.0,0.0,0.0,0.0,0.0,0.0,0.0,0.0,0.0,0.0,0.0,0.0,0.0,0.0,0.0,0.0,0.0,0.0,0.0,0.0,0.0,0.0,0.0,0.0,0.0,0.0,0.0,0.0,0.0,0.0,0.0,0.0,0.0,0.0,-0.7638,-0.9308,-1.0391,-1.057,-1.0459,-0.9354,-0.705,0.0,0.0,0.0,0.0,0.0,0.0,0.0,0.0,0.0,0.0,0.0,0.0,0.0,0.0,0.0,0.0,0.0,0.0,0.0,0.0,0.0,0.0,0.0,0.0,0.0,0.0,0.0,0.0,0.0,0.0,0.0,0.0,0.0,0.0,0.0,0.0,0.0,0.0,0.0,0.0,0.0,0.0,0.0,0.0,0.0,0.0,0.0,0.0,0.0,0.0,0.0,0.0,0.0,0.0,0.0,0.0,0.0,0.0,0.0,0.0,0.0,0.0,0.0,0.0,0.0,0.0,0.0,0.0,0.0,0.0,0.0,0.0,0.0,0.0,0.0,0.0,0.0,0.0,0.0,0.0,0.0,0.0,0.0,0.0,0.0,0.0,0.0,0.0,0.0,0.0,0.0,0.0,0.0,0.0,0.0,0.0,0.0,0.0,0.0,0.0,0.0,0.0,0.0,0.0,-0.6681,-0.9039,-0.918,-0.9444,-1.0337,-0.9146,-0.8084,-0.7444,0.0,0.0,0.0,0.0,0.0,0.0,0.0,0.0,0.0,0.0,0.0,0.0,0.0,0.0,0.0,0.0,0.0,0.0,0.0,0.0,0.0,0.0,0.0,0.0,0.0,0.0,0.0,0.0,0.0,0.0,0.0,0.0,0.0,0.0,0.0,0.0,0.0,0.0,0.0,0.0,0.0,0.0,0.0,0.0,0.0,0.0,0.0,0.0,0.0,0.0,0.0,0.0,0.0,0.0,0.0,0.0,0.0,0.0,0.0,0.0,0.0,0.0,0.0,0.0,0.0,0.0,0.0,0.0,0.0,0.0,0.0,0.0,0.0,0.0,0.0,0.0,0.0,0.0,0.0,0.0,0.0,0.0,0.0,0.0,0.0,0.0,0.0,0.0,0.0,0.0,0.0,0.0,0.0,0.0,0.0,0.0,0.0,0.0,0.0,0.0,0.0,0.0,0.0,-0.5927,-0.7311,-0.9042,-0.9445,-0.961,-0.969,-0.9495,-0.8556,-0.669,-0.7116,0.0,0.0,0.0,0.0,0.0,0.0,0.0,0.0,0.0,0.0,0.0,0.0,0.0,0.0,0.0,0.0,0.0,0.0,0.0,0.0,0.0,0.0,0.0,0.0,0.0,0.0,0.0,0.0,0.0,0.0,0.0,0.0,0.0,0.0,0.0,0.0,0.0,0.0,0.0,0.0,0.0,0.0,0.0,0.0,0.0,0.0,0.0,0.0,0.0,0.0,0.0,0.0,0.0,0.0,0.0,0.0,0.0,0.0,0.0,0.0,0.0,0.0,0.0,0.0,0.0,0.0,0.0,0.0,0.0,0.0,0.0,0.0,0.0,0.0,0.0,0.0,0.0,0.0,0.0,0.0,0.0,0.0,0.0,0.0,0.0,0.0,0.0,0.0,0.0,0.0,0.0,0.0,0.0,0.0,0.0,0.0,0.0,0.0,0.0,0.0,0.0,0.0,-0.6638,-0.7706,-0.8614,-0.9425,-0.9695,-0.912,-0.9547,-0.8723,-0.6112,-0.6487,0.0,0.0,0.0,0.0,0.0,0.0,0.0,0.0,0.0,0.0,0.0,0.0,0.0,0.0,0.0,0.0,0.0,0.0,0.0,0.0,0.0,0.0,0.0,0.0,0.0,0.0,0.0,0.0,0.0,0.0,0.0,0.0,0.0,0.0,0.0,0.0,0.0,0.0,0.0,0.0,0.0,0.0,0.0,0.0,0.0,0.0,0.0,0.0,0.0,0.0,0.0,0.0,0.0,0.0,0.0,0.0,0.0,0.0,0.0,0.0,0.0,0.0,0.0,0.0,0.0,0.0,0.0,0.0,0.0,0.0,0.0,0.0,0.0,0.0,0.0,0.0,0.0,0.0,0.0,0.0,0.0,0.0,0.0,0.0,0.0,0.0,0.0,0.0,0.0,0.0,0.0,0.0,0.0,0.0,0.0,0.0,0.0,0.0,0.0,0.0,0.0,0.0,-0.6664,-0.7722,-0.8118,-0.8696,-0.9061,-0.8934,-0.8107,-0.727,-0.6417,-0.5545,0.0,0.0,0.0,0.0,0.0,0.0,0.0,0.0,0.0,0.0,0.0,0.0,0.0,0.0,0.0,0.0,0.0,0.0,0.0,0.0,0.0,0.0,0.0,0.0,0.0,0.0,0.0,0.0,0.0,0.0,0.0,0.0,0.0,0.0,0.0,0.0,0.0,0.0,0.0,0.0,0.0,0.0,0.0,0.0,0.0,0.0,0.0,0.0,0.0,0.0,0.0,0.0,0.0,0.0,0.0,0.0,0.0,0.0,0.0,0.0,0.0,0.0,0.0,0.0,0.0,0.0,0.0,0.0,0.0,0.0,0.0,0.0,0.0,0.0,0.0,0.0,0.0,0.0,0.0,0.0,0.0,0.0,0.0,0.0,0.0,0.0,0.0,0.0,0.0,0.0,0.0,0.0,0.0,0.0,0.0,0.0,0.0,0.0,0.0,0.0,0.0,0.0,-0.6483,-0.7521,0.0,-0.8797,-0.9061,-0.8573,-0.8342,-0.7512,-0.5885,0.0,0.0,0.0,0.0,0.0,0.0,0.0,0.0,0.0,0.0,0.0,0.0,0.0,0.0,0.0,0.0,0.0,0.0,0.0,0.0,0.0,0.0,0.0,0.0,0.0,0.0,0.0,0.0,0.0,0.0,0.0,0.0,0.0,0.0,0.0,0.0,0.0,0.0,0.0,0.0,0.0,0.0,0.0,0.0,0.0,0.0,0.0,0.0,0.0,0.0,0.0,0.0,0.0,0.0,0.0,0.0,0.0,0.0,0.0,0.0,0.0,0.0,0.0,0.0,0.0,0.0,0.0,0.0,0.0,0.0,0.0,0.0,0.0,0.0,0.0,0.0,0.0,0.0,0.0,0.0,0.0,0.0,0.0,0.0,0.0,0.0,0.0,0.0,0.0,0.0,0.0,0.0,0.0,0.0,0.0,0.0,0.0,0.0,0.0,0.0,0.0,0.0,-0.5262,-0.6596,-0.7609,0.0,-0.8664,-0.8854,-0.8248,-0.7997,-0.7194,-0.5472,0.0,0.0,0.0,0.0,0.0,0.0,0.0,0.0,0.0,0.0,0.0,0.0,0.0,0.0,0.0,0.0,0.0,0.0,0.0,0.0,0.0,0.0,0.0,0.0,0.0,0.0,0.0,0.0,0.0,0.0,0.0,0.0,0.0,0.0,0.0,0.0,0.0,0.0,0.0,0.0,0.0,0.0,0.0,0.0,0.0,0.0,0.0,0.0,0.0,0.0,0.0,0.0,0.0,0.0,0.0,0.0,0.0,0.0,0.0,0.0,0.0,0.0,0.0,0.0,0.0,0.0,0.0,0.0,0.0,0.0,0.0,0.0,0.0,0.0,0.0,0.0,0.0,0.0,0.0,0.0,0.0,0.0,0.0,0.0,0.0,0.0,0.0,0.0,0.0,0.0,0.0,0.0,0.0,0.0,0.0,0.0,0.0,0.0,0.0,0.0,0.0,0.0,-0.5316,-0.695,-0.8065,-0.7936,-0.8196,-0.825,-0.7908,-0.6847,-0.5947,0.0,0.0,0.0,0.0,0.0,0.0,0.0,0.0,0.0,0.0,0.0,0.0,0.0,0.0,0.0,0.0,0.0,0.0,0.0,0.0,0.0,0.0,0.0,0.0,0.0,0.0,0.0,0.0,0.0,0.0,0.0,0.0,0.0,0.0,0.0,0.0,0.0,0.0,0.0,0.0,0.0,0.0,0.0,0.0,0.0,0.0,0.0,0.0,0.0,0.0,0.0,0.0,0.0,0.0,0.0,0.0,0.0,0.0,0.0,0.0,0.0,0.0,0.0,0.0,0.0,0.0,0.0,0.0,0.0,0.0,0.0,0.0,0.0,0.0,0.0,0.0,0.0,0.0,0.0,0.0,0.0,0.0,0.0,0.0,0.0,0.0,0.0,0.0,0.0,0.0,0.0,0.0,0.0,0.0,0.0,0.0,0.0,0.0,0.0,0.0,0.0,0.0,0.0,-0.5558,-0.6961,-0.8009,-0.8223,-0.8416,-0.8349,-0.7956,-0.7112,-0.6229,-0.5363,0.0,0.0,0.0,0.0,0.0,0.0,0.0,0.0,0.0,0.0,0.0,0.0,0.0,0.0,0.0,0.0,0.0,0.0,0.0,0.0,0.0,0.0,0.0,0.0,0.0,0.0,0.0,0.0,0.0,0.0,0.0,0.0,0.0,0.0,0.0,0.0,0.0,0.0,0.0,0.0,0.0,0.0,0.0,0.0,0.0,0.0,0.0,0.0,0.0,0.0,0.0,0.0,0.0,0.0,0.0,0.0,0.0,0.0,0.0,0.0,0.0,0.0,0.0,0.0,0.0,0.0,0.0,0.0,0.0,0.0,0.0,0.0,0.0,0.0,0.0,0.0,0.0,0.0,0.0,0.0,0.0,0.0,0.0,0.0,0.0,0.0,0.0,0.0,0.0,0.0,0.0,0.0,0.0,0.0,0.0,0.0,0.0,0.0,0.0,0.0,0.0,0.0,-0.5739,-0.7007,-0.8043,-0.8443,-0.852,-0.8349,-0.7956,-0.7294,-0.6463,-0.5511,0.0,0.0,0.0,0.0,0.0,0.0,0.0,0.0,0.0,0.0,0.0,0.0,0.0,0.0,0.0,0.0,0.0,0.0,0.0,0.0,0.0,0.0,0.0,0.0,0.0,0.0,0.0,0.0,0.0,0.0,0.0,0.0,0.0,0.0,0.0,0.0,0.0,0.0,0.0,0.0,0.0,0.0,0.0,0.0,0.0,0.0,0.0,0.0,0.0,0.0,0.0,0.0,0.0,0.0,0.0,0.0,0.0,0.0,0.0,0.0,0.0,0.0,0.0,0.0,0.0,0.0,0.0,0.0,0.0,0.0,0.0,0.0,0.0,0.0,0.0,0.0,0.0,0.0,0.0,0.0,0.0,0.0,0.0,0.0,0.0,0.0,0.0,0.0,0.0,0.0,0.0,0.0,0.0,0.0,0.0,0.0,0.0,0.0,0.0,0.0,0.0,0.0,-0.5917,-0.7083,-0.8098,-0.857,-0.8491,-0.825,-0.7908,-0.7324,-0.6647,-0.5765,0.0,0.0,0.0,0.0,0.0,0.0,0.0,0.0,0.0,0.0,0.0,0.0,0.0,0.0,0.0,0.0,0.0,0.0,0.0,0.0,0.0,0.0,0.0,0.0,0.0,0.0,0.0,0.0,0.0,0.0,0.0,0.0,0.0,0.0,0.0,0.0,0.0,0.0,0.0,0.0,0.0,0.0,0.0,0.0,0.0,0.0,0.0,0.0,0.0,0.0,0.0,0.0,0.0,0.0,0.0,0.0,0.0,0.0,0.0,0.0,-0.8077,0.0,0.0,0.0,0.0,0.0,0.0,0.0,0.0,0.0,0.0,0.0,0.0,0.0,0.0,0.0,0.0,0.0,0.0,0.0,0.0,0.0,0.0,0.0,0.0,0.0,0.0,0.0,0.0,0.0,0.0,0.0,0.0,0.0,0.0,0.0,0.0,0.0,0.0,0.0,0.0,0.0,-0.6344,-0.7295,-0.8136,-0.8709,-0.8561,-0.825,-0.7908,-0.7324,-0.6647,-0.5765,0.0,0.0,0.0,0.0,0.0,0.0,0.0,0.0,0.0,0.0,0.0,0.0,0.0,0.0,0.0,0.0,0.0,0.0,0.0,0.0,0.0,0.0,0.0,0.0,0.0,0.0,0.0,0.0,0.0,0.0,0.0,0.0,0.0,0.0,0.0,0.0,0.0,0.0,0.0,0.0,0.0,0.0,0.0,0.0,0.0,0.0,0.0,0.0,0.0,0.0,0.0,0.0,0.0,0.0,0.0,0.0,0.0,0.0,0.0,0.0,0.0,-0.9243,0.0,0.0,0.0,0.0,0.0,0.0,0.0,0.0,0.0,0.0,0.0,0.0,0.0,0.0,0.0,0.0,0.0,0.0,0.0,0.0,0.0,0.0,0.0,0.0,0.0,0.0,0.0,0.0,0.0,0.0,0.0,0.0,0.0,0.0,0.0,0.0,0.0,0.0,0.0,0.0,-0.6694,-0.7681,-0.8502,-0.896,-0.882,-0.8565,-0.817,-0.7722,-0.7098,-0.6386,-0.5805,0.0,0.0,0.0,0.0,0.0,0.0,0.0,0.0,0.0,0.0,0.0,0.0,0.0,0.0,0.0,0.0,0.0,0.0,0.0,0.0,0.0,0.0,0.0,0.0,0.0,0.0,0.0,0.0,0.0,0.0,0.0,0.0,0.0,0.0,0.0,0.0,0.0,0.0,0.0,0.0,0.0,0.0,0.0,0.0,0.0,0.0,0.0,0.0,0.0,0.0,0.0,0.0,0.0,0.0,0.0,-1.3067,-1.3104,-1.3406,-1.3907,-1.2709,-1.1919,-1.1376,0.0,0.0,0.0,0.0,0.0,0.0,0.0,0.0,0.0,0.0,0.0,0.0,0.0,0.0,0.0,0.0,0.0,0.0,0.0,0.0,0.0,0.0,0.0,0.0,0.0,-1.0559,-1.0497,0.0,0.0,0.0,0.0,0.0,0.0,0.0,0.0,0.0,0.0,0.0,0.0,-0.6992,-0.8063,-0.8825,-0.9124,-0.9061,-0.884,-0.8447,-0.8103,-0.7623,-0.7018,-0.6293,-0.5711,0.0,0.0,0.0,0.0,0.0,0.0,0.0,0.0,0.0,0.0,0.0,0.0,0.0,0.0,0.0,0.0,0.0,0.0,0.0,0.0,0.0,0.0,0.0,0.0,0.0,0.0,0.0,0.0,0.0,0.0,0.0,0.0,-0.9064,-0.9095,0.0,0.0,0.0,0.0,0.0,0.0,0.0,0.0,0.0,0.0,0.0,0.0,0.0,0.0,-1.2549,-1.3643,-1.443,-1.4931,-1.5396,-1.5654,-1.5685,-1.5842,-1.5879,-1.5856,-1.5751,0.0,-1.2518,-1.1376,0.0,0.0,0.0,0.0,0.0,0.0,0.0,0.0,0.0,0.0,0.0,0.0,0.0,0.0,0.0,0.0,0.0,0.0,0.0,0.0,0.0,0.0,-1.2139,-1.174,-1.2034,-1.2215,0.0,-1.0326,-0.9135,-0.8646,0.0,0.0,0.0,0.0,0.0,0.0,0.0,0.0,-0.7385,-0.8051,-0.8585,-0.8981,-0.891,-0.8736,-0.8598,-0.8145,-0.7623,-0.7018,-0.668,-0.6226,-0.5678,-0.5304,0.0,0.0,0.0,0.0,0.0,0.0,0.0,0.0,0.0,0.0,0.0,0.0,0.0,0.0,0.0,0.0,0.0,0.0,0.0,0.0,0.0,0.0,0.0,0.0,0.0,0.0,0.0,0.0,0.0,-0.8764,-0.9346,-0.9389,-0.9526,-0.9336,0.0,0.0,0.0,0.0,0.0,0.0,0.0,0.0,0.0,-1.3115,-1.368,-1.433,-1.5135,-1.6046,-1.6552,-1.6651,-1.6883,-1.7051,-1.7097,-1.7143,-1.7248,-1.7339,-1.7385,-1.6463,-1.4818,-1.3058,-1.164,-1.047,0.0,0.0,0.0,0.0,0.0,-0.9752,-1.0406,0.0,0.0,0.0,0.0,0.0,0.0,0.0,0.0,0.0,0.0,0.0,0.0,0.0,0.0,-1.2349,-1.2551,-1.2677,-1.2541,-1.1901,-1.1097,0.0,-0.9753,-0.9326,-0.8434,0.0,0.0,0.0,0.0,0.0,-0.8983,-0.9354,-0.957,-0.9651,-0.9361,-0.9058,-0.8824,-0.8493,-0.8085,-0.7562,-0.7094,-0.6647,-0.6226,-0.5765,-0.5324,0.0,0.0,0.0,0.0,0.0,0.0,0.0,0.0,0.0,0.0,0.0,0.0,0.0,0.0,0.0,0.0,0.0,0.0,0.0,0.0,0.0,0.0,0.0,0.0,0.0,0.0,0.0,0.0,-0.9744,-1.0164,-1.0411,-1.096,-1.0922,0.0,0.0,0.0,0.0,0.0,0.0,-1.27,-1.3342,-1.4159,-1.5114,-1.5936,-1.6623,-1.7196,-1.7919,-1.8072,-1.7738,-1.7738,-1.7798,-1.7906,-1.7906,-1.8001,-1.8144,-1.8204,-1.7659,-1.6632,-1.478,-1.3348,-1.2242,-1.1379,-1.0905,0.0,-1.1052,-1.1175,-1.1281,-1.2027,-1.2336,-1.2295,-1.1606,0.0,-1.0864,-0.9925,0.0,0.0,0.0,0.0,-1.1205,-1.1618,0.0,-1.2253,-1.2609,-1.2676,-1.2735,-1.2832,-1.2832,-1.254,0.0,-1.1219,-1.0759,-0.9687,0.0,0.0,0.0,0.0,-0.9873,-1.026,-1.0401,-1.049,-1.0415,-0.9917,-0.9465,-0.9309,-0.8887,-0.8434,-0.7997,-0.7479,-0.7049,-0.6713,-0.6206,-0.5805,-0.5544,0.0,0.0,0.0,0.0,0.0,0.0,0.0,0.0,0.0,0.0,0.0,0.0,0.0,0.0,0.0,0.0,0.0,0.0,0.0,0.0,0.0,0.0,0.0,0.0,0.0,0.0,0.0,0.0,0.0,-1.3132,-1.4056,0.0,0.0,0.0,0.0,-1.2259,-1.3881,-1.4738,-1.4289,-1.5866,-1.6769,-1.6691,-1.8183,-1.861,-1.7773,-1.8562,-1.8681,-1.8157,-1.8157,-1.8157,-1.8157,-1.8157,-1.8097,-1.8037,-1.8144,-1.7834,-1.7195,-1.6538,-1.5345,-1.3902,-1.3247,-1.2665,-1.217,-1.2128,-1.2122,-1.218,-1.2686,-1.2842,-1.2842,-1.2803,-1.218,-1.1523,-1.1853,-1.1364,0.0,0.0,-1.2027,-1.2219,-1.2705,-1.2832,-1.2803,-1.2725,-1.2676,-1.2676,-1.2735,-1.2725,-1.2706,0.0,-1.2451,-1.2102,-1.2034,0.0,-1.0363,-1.0717,-1.0276,-1.0086,-1.053,-1.0698,-1.0813,-1.0965,-1.0364,-1.0012,-1.0115,-0.9321,-0.8581,-0.8133,-0.7818,-0.746,-0.7014,-0.6707,-0.6445,-0.6156,-0.5571,0.0,0.0,0.0,0.0,0.0,0.0,0.0,0.0,0.0,0.0,0.0,0.0,0.0,0.0,0.0,0.0,0.0,0.0,0.0,0.0,0.0,0.0,0.0,0.0,0.0,0.0,0.0,0.0,-1.4544,-1.528,0.0,0.0,-1.4682,-1.491,-1.4471,-1.5968,-1.6889,-1.6915,-1.7639,-1.8243,-1.8634,-1.878,-1.9127,-1.9601,-1.9523,-1.9519,-1.9457,-1.9233,-1.9045,-1.8956,-1.9045,-1.9133,-1.9171,-1.9233,-1.8933,-1.84,-1.8142,-1.7087,-1.5488,-1.5055,-1.4801,-1.4575,-1.4169,-1.3992,-1.3962,-1.3726,-1.3691,-1.3691,-1.3691,-1.3426,-1.3202,-1.3307,-1.3142,-1.2958,-1.3268,-1.3355,-1.3435,-1.3652,-1.3691,-1.363,-1.364,-1.3578,-1.351,-1.3289,-1.3231,-1.3153,-1.293,-1.2754,-1.2559,-1.2219,-1.2059,-1.1899,-1.1719,-1.1743,-1.1882,-1.2041,-1.1818,-1.1651,-1.1701,-1.1141,-1.0635,-1.0218,-0.9956,-0.9379,-0.8315,-0.8227,-0.791,-0.7174,-0.7017,-0.6733,-0.6203,-0.5765,-0.5177,0.0,0.0,0.0,0.0,0.0,0.0,0.0,0.0,0.0,0.0,0.0,0.0,0.0,0.0,0.0,0.0,0.0,0.0,0.0,0.0,0.0,0.0,0.0,0.0,0.0,0.0,-1.5167,-1.5864,-1.6611,-1.6809,-1.6126,-1.6732,-1.7102,-1.6956,-1.8126,-1.8796,-1.8749,-1.9212,-1.9628,-1.9935,-1.997,-2.0267,-2.0813,-2.0499,-2.0346,-2.0346,-1.9901,-1.9604,-1.9565,-1.9604,-1.9708,-1.9798,-1.9798,-1.961,-1.9296,-1.9246,-1.8457,-1.7264,-1.6564,-1.6277,-1.6177,-1.5515,-1.5153,-1.4903,-1.4291,-1.4077,-1.4131,-1.4334,-1.4291,-1.4131,-1.4291,-1.4247,-1.4077,-1.4034,-1.4087,-1.4077,-1.4077,-1.4077,-1.4077,-1.4077,-1.4077,-1.4009,-1.3779,-1.3721,-1.3633,-1.3359,-1.3076,-1.2783,-1.2443,-1.2686,-1.2773,-1.2424,-1.2686,-1.2881,-1.2881,-1.2578,-1.2382,-1.2382,-1.1868,-1.1301,-1.088,-1.045,-0.9803,-0.8879,-0.855,-0.8128,-0.7416,-0.7294,-0.694,-0.6344,-0.5912,-0.5424,-0.4843,0.0,0.0,0.0,0.0,0.0,0.0,0.0,0.0,0.0,0.0,0.0,0.0,0.0,0.0,0.0,0.0,0.0,0.0,0.0,0.0,0.0,0.0,0.0,-1.4582,-1.5517,-1.6452,-1.7185,-1.8179,-1.8774,-1.8553,-1.9477,-1.9986,-1.9625,-2.0301,-2.0415,-1.9721,-2.0712,-2.1105,-2.0541,-2.1875,-2.2212,-2.1326,-2.1423,-2.118,-2.0712,-2.0156,-1.9849,-1.9849,-1.9861,-1.9849,-1.9849,-1.9849,-1.9849,-1.9823,-1.9681,-1.9537,-1.927,-1.7757,-1.7093,-1.6884,-1.6233,-1.5609,-1.4997,-1.4384,-1.4223,-1.4277,-1.4892,-1.4682,-1.4277,-1.4892,-1.4639,-1.417,-1.418,-1.4116,-1.4116,-1.4116,-1.4116,-1.4116,-1.4116,-1.4116,-1.4116,-1.4107,-1.4097,-1.4097,-1.4077,-1.3477,-1.291,-1.29,-1.2891,-1.2881,-1.2881,-1.2881,0.0,-1.2881,-1.2881,-1.2881,-1.2881,-1.2421,-1.2076,-1.2076,-1.0712,-0.9858,-0.9793,-0.8891,-0.8143,-0.7757,-0.7498,-0.7119,-0.6639,-0.6032,-0.5731,-0.5725,0.0,0.0,0.0,0.0,0.0,0.0,0.0,0.0,0.0,0.0,0.0,0.0,0.0,0.0,0.0,0.0,0.0,0.0,0.0,0.0,0.0,0.0,-1.6686,-1.6686,-1.7228,-1.7847,-1.8506,-1.9281,-1.9508,-1.8993,-1.9918,-2.0326,-1.9766,-2.0599,-2.1151,-2.1136,-2.182,-2.2466,-2.2908,-2.2951,-2.3249,-2.3786,-2.3142,-2.2838,-2.299,-2.2101,-2.1626,-2.1532,-2.118,-2.1029,-2.1029,-2.1029,-2.079,-2.0426,-2.0332,-1.9989,-1.9488,-1.8882,-1.8554,-1.8334,-1.7732,-1.7133,-1.659,-1.6426,-1.6371,-1.6371,-1.6536,-1.6481,-1.6316,-1.604,-1.5827,-1.5604,-1.5172,-1.5059,-1.5059,-1.5059,-1.5059,-1.5059,-1.5059,-1.5059,-1.498,-1.4668,-1.4609,-1.4512,-1.4199,-1.3945,-1.3691,-1.3389,-1.3076,-1.2881,-1.2881,0.0,0.0,-1.2881,-1.2881,-1.2725,-1.2382,-1.2175,-1.1918,-1.146,-1.1151,-1.0668,0.0,-0.952,-0.896,-0.8312,-0.827,-0.8017,-0.7532,-0.6774,-0.6246,0.0,0.0,0.0,0.0,0.0,0.0,0.0,0.0,0.0,0.0,0.0,0.0,0.0,0.0,0.0,0.0,0.0,0.0,0.0,0.0,0.0,0.0,-1.6981,-1.7895,-1.8109,-1.8418,-1.8811,-1.9449,-1.987,-2.0161,-2.0306,-2.0864,-2.1183,-2.1125,-2.1899,-2.2457,-2.2593,-2.3213,-2.3778,-2.4297,-2.3995,-2.4104,-2.4785,-2.4011,-2.3756,-2.396,-2.3173,-2.2578,-2.2268,-2.2008,-2.1746,0.0,-2.1493,-2.1305,-2.1004,-2.0961,-2.0665,0.0,0.0,0.0,0.0,0.0,-1.7875,-1.7534,-1.7313,-1.7202,-1.7257,-1.7479,-1.7424,-1.7146,-1.6754,-1.6472,-1.6187,-1.5584,-1.541,-1.541,-1.541,-1.541,-1.541,-1.541,-1.541,-1.5342,-1.5098,-1.5049,-1.4971,-1.4717,0.0,0.0,-1.4082,-1.3691,-1.335,-1.3174,-1.3145,-1.3076,0.0,-1.2881,-1.2783,-1.248,-1.2431,-1.2274,-1.1959,-1.1586,0.0,0.0,0.0,-0.9639,-0.8786,-0.84,0.0,0.0,0.0,0.0,0.0,0.0,0.0,0.0,-0.67,-0.6767,0.0,0.0,0.0,0.0,0.0,0.0,0.0,0.0,0.0,0.0,0.0,0.0,0.0,0.0,0.0,0.0,-1.8045,-1.8608,-1.9145,-1.9275,-1.9508,-2.0045,-2.0233,-2.0727,-2.1786,-2.2091,-2.241,-2.2859,-2.3601,-2.4007,-2.3992,0.0,0.0,0.0,0.0,-2.5003,-2.5003,-2.459,-2.4374,-2.4388,-2.381,-2.3218,-2.2668,-2.2559,-2.2201,-2.1681,-2.1681,-2.1644,-2.1581,-2.1581,-2.1444,-2.1126,-1.9817,-1.9308,-1.9189,-1.8506,-1.8213,0.0,0.0,0.0,0.0,-1.8038,-1.7809,-1.7368,-1.7257,-1.681,-1.6255,-1.5575,-1.541,-1.541,-1.541,-1.541,-1.541,-1.541,-1.541,-1.541,-1.541,-1.541,-1.541,-1.541,-1.5107,-1.4853,-1.4853,-1.4453,-1.3951,-1.3633,-1.3535,0.0,-1.2998,-1.291,-1.2881,-1.2832,0.0,0.0,-1.2832,-1.2015,-1.1645,-1.2083,-1.1175,-1.0205,-0.9387,-0.8416,-0.7843,-0.7788,-0.7732,-0.7782,-0.7935,-0.8277,-0.829,-0.7961,-0.7208,-0.7248,0.0,0.0,0.0,0.0,0.0,0.0,0.0,0.0,0.0,0.0,0.0,0.0,0.0,0.0,0.0,-1.8155,-1.9104,-1.9769,-1.9885,-2.032,-2.0494,-2.0146,-2.1003,-2.1511,-2.122,-2.2599,-2.3368,-2.2917,-2.4036,-2.4689,-2.4612,-2.527,0.0,-2.5618,-2.6126,-2.6402,-2.6402,-2.6298,-2.6298,-2.6246,0.0,0.0,-2.4444,-2.3431,-2.293,-2.2811,-2.2811,-2.2573,-2.2146,-2.2043,-2.1621,-2.1063,-2.0275,-1.9951,-1.9782,-1.9209,-1.8946,-1.8827,-1.8709,-1.8655,-1.8655,-1.8762,-1.8762,-1.8483,-1.7479,-1.7146,0.0,-1.569,-1.541,-1.541,-1.541,-1.541,-1.541,-1.541,-1.541,-1.541,-1.541,-1.541,-1.541,-1.541,-1.5342,-1.5293,-1.5293,-1.4648,-1.4048,-1.397,-1.3721,-1.3477,-1.3398,-1.3096,-1.2725,-1.2274,-1.2274,-1.2274,-1.2274,-1.2101,-1.2041,-1.2176,-1.1078,-1.0578,-1.0946,-0.9642,-0.9169,-0.9652,-0.9055,-0.8558,-0.829,-0.8584,-0.8697,-0.8631,-0.8457,-0.8343,0.0,0.0,0.0,0.0,0.0,0.0,0.0,0.0,0.0,0.0,0.0,-1.649,-1.6623,0.0,-1.8676,-1.92,-1.9992,-2.0553,-2.0553,-2.109,-2.138,-2.109,-2.1612,-2.1989,-2.1975,-2.3136,-2.376,-2.3441,-2.4617,-2.5328,-2.5313,-2.5937,-2.6286,-2.6286,-2.6605,-2.6779,-2.6779,-2.6779,-2.6779,-2.6779,-2.6218,-2.5756,-2.5425,-2.4509,-2.3872,-2.3603,-2.3258,-2.2975,-2.2723,-2.2605,-2.2396,-2.2039,-2.1378,-2.0814,-2.0378,-2.0012,-1.986,-1.978,-1.9805,-1.9624,-1.9384,-1.9384,-1.9203,-1.8815,-1.7929,-1.7644,-1.7479,-1.6585,-1.6312,-1.6255,-1.5921,-1.5864,-1.5748,-1.5468,-1.541,-1.541,-1.541,-1.541,-1.541,-1.541,-1.541,-1.541,-1.541,-1.5059,-1.4707,-1.4492,-1.4287,-1.4072,-1.3848,-1.3457,-1.3093,-1.2833,-1.2603,-1.248,-1.248,-1.248,-1.2492,-1.2568,-1.1707,-1.1319,-1.1465,-1.0292,-0.9688,-0.9919,-0.9231,-0.8783,-0.8591,-0.8738,-0.8804,-0.8804,-0.8804,-0.8804,0.0,0.0,0.0,0.0,0.0,0.0,0.0,0.0,-1.6068,-1.6402,-1.742,-1.8234,-1.8145,-1.8969,-1.9826,-2.02,-2.0785,-2.1191,-2.1191,-2.1757,-2.2178,-2.2178,-2.2178,-2.2425,-2.3018,-2.3702,-2.4123,-2.4254,-2.5328,-2.5981,-2.5981,-2.6489,-2.6779,-2.6779,-2.6779,-2.6779,-2.6779,-2.6779,-2.6779,-2.6779,-2.6674,-2.6326,-2.5715,-2.5077,-2.4509,-2.3897,-2.3305,-2.3078,-2.3078,-2.3078,-2.3078,-2.3027,-2.2483,-2.1814,-2.1165,-2.0798,-2.0644,-2.0574,-2.0598,-2.0322,-1.9937,-1.9937,-1.9576,-1.9024,-1.846,-1.8173,-1.7984,-1.7368,-1.7202,-1.709,-1.6482,-1.6312,-1.614,-1.5517,-1.541,-1.541,-1.541,-1.541,-1.541,-1.541,-1.541,-1.541,-1.541,-1.541,-1.5293,-1.4961,-1.4834,-1.4658,-1.4307,-1.3887,-1.3603,-1.3516,-1.3203,-1.2969,-1.2891,-1.2881,-1.2881,-1.2881,-1.2382,-1.2017,-1.181,-1.0677,-0.9969,-0.9814,-0.9159,-0.8804,-0.8804,-0.8804,-0.8838,-0.8891,-0.8891,-0.9018,-1.3531,-1.4567,-1.5827,-1.6995,-1.668,-1.6881,0.0,0.0,-1.9046,-2.0066,-2.0272,-2.0289,-2.0315,-2.0363,-2.0498,-2.0826,-2.1452,-2.1888,-2.1888,-2.2425,-2.2786,-2.2786,-2.2786,-2.3033,-2.3717,-2.4355,-2.4965,-2.5531,-2.6257,-2.6678,-2.6678,-2.6736,-2.6779,-2.6779,-2.6779,-2.6779,-2.6779,-2.6779,-2.6779,-2.6779,-2.6286,-2.5701,-2.5077,-2.4465,-2.3826,-2.3185,-2.3138,-2.3078,-2.3078,-2.3078,-2.3078,-2.3065,-2.2907,-2.2724,-2.2551,-2.1399,-2.0803,-2.0632,-2.0758,-2.0677,-2.0526,-2.0526,-2.0141,-1.9574,-1.8995,-1.8504,-1.7984,-1.7368,-1.7202,-1.709,-1.6482,-1.6312,-1.614,-1.5517,-1.541,-1.541,-1.541,-1.541,-1.541,-1.541,-1.541,-1.541,-1.541,-1.541,-1.5391,-1.5352,-1.5029,-1.4766,-1.4717,-1.4336,-1.3926,-1.3545,-1.3467,-1.3281,-1.291,-1.2881,-1.2881,-1.2881,-1.2382,-1.2224,-1.2578,-1.1032,-1.0261,-1.0466,-0.951,-0.891,-0.8804,-0.8804,-0.8938,-0.9137,-0.9137,-0.915,-1.6582,-1.7319,0.0,0.0,-1.8843,-1.9263,-2.0735,-2.0574,-2.0266,-2.0894,-2.0959,-2.0744,-2.0243,-2.0715,-2.1134,0.0,-2.1873,-2.2541,-2.2541,-2.2728,-2.2888,-2.2888,-2.2888,-2.3149,-2.3833,-2.4471,-2.5096,-2.5734,-2.6402,-2.6779,-2.6779,-2.6779,-2.6779,-2.6779,-2.7142,-2.7331,-2.7331,-2.7331,-2.7331,-2.7331,-2.6726,-2.6272,-2.6042,-2.5425,-2.4637,-2.3662,-2.3245,-2.3078,-2.3078,-2.3078,-2.3078,-2.3078,-2.2969,-2.2909,-2.2859,-2.2221,-2.193,-2.1811,-2.1751,-2.1498,-2.1185,-2.1079,-2.0706,-2.0205,-1.9942,-1.9506,-1.905,-1.8762,-1.8487,-1.8093,-1.7479,-1.709,-1.6698,-1.6083,-1.5633,-1.541,-1.541,-1.541,-1.541,-1.541,-1.541,-1.541,-1.541,-1.541,-1.541,-1.541,-1.5264,-1.5146,-1.5146,-1.4775,-1.4346,-1.3916,-1.3652,-1.3437,-1.3262,-1.3018,-1.2881,-1.2881,-1.2686,-1.2627,-1.2676,-1.1683,-1.0965,-1.0618,-0.9865,-0.9263,-0.8804,-0.8978,-0.9064,-0.919,-0.9419,-0.9586,-1.8569,0.0,0.0,-1.9927,-2.05,-2.1014,-2.1014,-2.1014,-2.1077,-2.1254,-2.1181,-2.0909,-2.0369,-2.0955,-2.147,-2.1316,-2.2134,-2.2774,-2.2873,-2.2888,-2.2888,-2.2888,-2.2888,-2.3149,-2.3833,-2.4471,-2.5096,-2.5734,-2.6402,-2.6779,-2.6779,-2.6779,-2.6866,-2.7041,-2.749,-2.781,-2.7984,-2.7998,-2.7998,-2.7984,-2.752,-2.7147,-2.6745,-2.584,-2.4808,-2.378,-2.3305,-2.3078,-2.3078,-2.3078,-2.3078,-2.3078,-2.2957,-2.2969,-2.2969,-2.2848,-2.2739,-2.2616,-2.2482,-2.2177,-2.1729,-2.1681,-2.126,-2.0827,-2.0803,-2.043,-1.9973,-1.9829,-1.9504,-1.906,-1.8302,-1.7765,-1.7313,-1.6698,-1.6083,-1.5633,-1.5633,-1.5526,-1.541,-1.541,-1.541,-1.541,-1.541,-1.541,-1.541,-1.541,-1.541,-1.541,-1.541,-1.5049,-1.4668,-1.4346,-1.3936,-1.3633,-1.3516,-1.3232,-1.3008,-1.2891,-1.2881,-1.2832,-1.2735,-1.2138,-1.1516,-1.088,-1.026,-0.97,-0.9131,-0.9274,-0.9349,-0.9429,-0.9699,-0.996,0.0,0.0,-2.0925,-2.0948,-2.1378,-2.1764,-2.1764,-2.1764,-2.1764,-2.1781,-2.137,-2.1101,-2.1494,-2.1306,-2.1333,-2.1982,-2.226,-2.2525,-2.2846,-2.2888,-2.2888,-2.2888,-2.2888,-2.3149,0.0,-2.4471,-2.5096,-2.5734,-2.6402,-2.6779,-2.6779,-2.6779,-2.707,-2.7679,-2.7668,-2.8028,-2.8637,-2.8652,-2.8652,-2.8652,-2.8637,-2.7995,-2.6708,-2.4936,-2.378,-2.3138,-2.3138,-2.3078,-2.3078,-2.3078,-2.3078,-2.3078,-2.3078,-2.3078,-2.3078,-2.3078,-2.2775,-2.242,-2.2616,-2.2494,-2.2161,-2.2173,-2.1813,-2.138,-2.138,-2.1007,-2.0478,-1.9937,-1.9768,-1.9514,-1.8383,-1.8093,-1.7929,-1.7313,-1.6698,-1.6255,-1.6255,-1.5796,-1.541,-1.541,-1.541,-1.541,-1.541,-1.541,-1.541,-1.541,-1.541,-1.541,-1.541,-1.5049,-1.4775,-1.4766,-1.4375,-1.3902,-1.3545,-1.3496,-1.3311,-1.291,-1.2881,-1.2832,-1.2735,-1.2138,-1.1683,-1.1477,-1.0666,-1.0191,-1.0035,-0.9804,-0.9813,-1.0087,-1.01,-1.0261,0.0,0.0,-2.1088,-2.1444,-2.1674,-2.1797,-2.1797,-2.1797,-2.1797,-2.1797,-2.1661,-2.1466,-2.1295,-2.1542,-2.1771,-2.1839,-2.2682,-2.336,-2.3516,-2.4028,-2.4145,-2.3615,-2.3963,0.0,0.0,0.0,0.0,-2.5705,-2.5995,-2.6315,-2.6765,-2.6779,-2.7084,-2.7654,-2.8144,-2.8666,-2.9305,-2.9305,-2.9305,-2.9305,-2.8884,-2.8508,-2.8024,-2.6167,-2.5199,-2.4879,-2.3637,-2.3078,-2.3078,-2.3078,-2.3078,-2.3078,-2.3078,-2.3078,-2.3078,-2.3078,-2.2957,-2.2726,-2.2787,-2.2739,-2.2604,-2.2432,-2.2237,-2.2043,-2.1994,-2.156,-2.1103,-2.0911,-2.061,-2.0145,-1.9428,-1.8931,-1.8506,-1.7954,-1.7313,-1.681,-1.6358,-1.614,-1.5853,-1.5468,-1.541,-1.541,-1.541,-1.541,-1.541,-1.541,-1.541,-1.541,-1.541,-1.5283,-1.5205,-1.5205,-1.4824,-1.4512,-1.4365,-1.4092,-1.3857,-1.3721,-1.3711,-1.3659,-1.3607,-1.3432,-1.3057,-1.2591,-1.2223,-1.1564,-1.0636,-1.0632,-1.0439,-1.012,-1.0321,-1.0461,-2.1204,-2.1507,-2.1428,-2.2026,-2.2178,-2.2178,-2.2178,-2.198,-2.1797,-2.1797,-2.1493,-2.1229,-2.118,-2.1134,-2.134,-2.1964,-2.2819,-2.3608,-2.4101,-2.4714,-2.4882,-2.4268,-2.4617,-2.4718,0.0,0.0,0.0,-2.5705,-2.601,-2.6431,-2.7084,-2.7128,-2.752,-2.8376,-2.8811,-2.9319,-2.9958,-2.9972,-2.9972,-2.9958,-2.9319,-2.8771,-2.8308,-2.6624,-2.567,-2.5123,-2.3726,-2.3078,-2.3078,-2.3078,-2.3078,-2.3078,-2.3078,-2.3078,-2.3078,-2.3078,-2.3078,-2.2969,-2.2909,-2.2848,-2.2787,-2.2604,-2.2482,-2.2359,-2.2309,-2.2018,-2.1644,-2.1452,-2.1163,-2.0767,-2.0225,-1.9634,-1.9107,-1.8779,-1.8246,-1.7678,-1.7283,-1.7032,-1.6639,-1.6125,-1.5812,-1.5596,-1.5439,-1.541,-1.541,-1.541,-1.541,-1.541,-1.541,-1.541,-1.541,-1.541,-1.5176,-1.4951,-1.4795,-1.4531,-1.4297,-1.4087,-1.4077,-1.4077,-1.4077,-1.4077,-1.3755,-1.3095,-1.2899,-1.2222,-1.103,-1.1017,-1.0765,-1.0281,-1.0474,-1.0624,-2.1082,-2.1478,-2.2029,-2.2758,-2.2924,-2.2891,-2.2891,-2.2327,-2.1781,-2.1748,-2.0934,-2.0434,-2.1082,0.0,-2.0137,-2.2274,-2.2777,-2.3345,-2.4551,-2.5008,-2.5131,0.0,0.0,0.0,0.0,0.0,0.0,-2.5879,0.0,-2.7084,-2.7752,-2.7781,-2.8347,-2.9581,-2.9624,-2.9929,-3.0568,-3.0568,-3.0568,-3.0568,-2.9958,-2.8976,-2.7748,-2.6516,-2.5289,-2.4104,-2.3477,-2.314,-2.3175,-2.3175,-2.3103,-2.3078,-2.3078,-2.3078,-2.3078,-2.3078,-2.3078,-2.3078,-2.2969,-2.28,-2.2678,-2.269,-2.2555,-2.242,-2.242,-2.2309,-2.2089,-2.1584,-2.144,-2.132,-2.0791,-2.0261,-1.9853,-1.9829,-1.9415,-1.8998,-1.8942,-1.8338,-1.7697,-1.7228,-1.6618,-1.5947,-1.5488,-1.543,-1.5439,-1.542,-1.541,-1.541,-1.541,-1.541,-1.541,-1.541,-1.541,-1.5254,-1.4853,-1.4814,-1.4639,-1.4175,-1.4145,-1.4145,-1.4145,-1.4145,-1.3822,-1.3168,-1.2849,-1.2263,-1.1316,-1.1029,-1.0807,-1.0624,-1.0624,-1.0631,-2.2136,-2.2507,-2.2791,-2.3537,-2.3305,-2.2891,-2.2891,-2.2327,-2.1632,-2.1085,-2.0763,-2.0459,-2.0101,0.0,0.0,-2.1647,-2.3072,0.0,-2.4858,-2.5824,0.0,-2.5604,0.0,-2.6823,-2.6344,-2.7142,0.0,0.0,-2.7215,-2.7273,-2.8376,-2.8448,-2.8811,-2.961,-2.9624,-2.9929,-3.0568,-3.0568,-3.0568,-3.0568,-3.0408,-2.9886,-2.9094,-2.781,-2.6792,-2.5973,-2.4874,-2.4155,-2.3778,-2.3778,-2.3527,-2.3078,-2.3078,-2.3078,-2.3078,-2.3078,-2.3078,-2.3078,-2.3078,-2.2969,-2.286,-2.2739,-2.2555,-2.2359,-2.2309,-2.2247,-2.2161,-2.2029,-2.1993,-2.1873,-2.1344,-2.1103,-2.0887,-2.0502,-2.028,-2.0038,-1.9611,-1.8959,-1.828,-1.7737,-1.704,-1.6318,-1.5547,-1.5684,-1.5781,-1.5459,-1.541,-1.541,-1.541,-1.541,-1.541,-1.541,-1.541,-1.5371,-1.5264,-1.5254,-1.5205,-1.5098,-1.5088,-1.5088,-1.5088,-1.5088,-1.4974,-1.4792,-1.4627,-1.3901,-1.2687,-1.2419,-1.1787,-1.0744,-1.0624,-1.0739,-2.2675,-2.3371,-2.3884,-2.3984,-2.3686,-2.3205,-2.2559,-2.1847,-2.1002,-1.9942,-1.9727,0.0,-1.8816,0.0,0.0,0.0,0.0,0.0,-2.488,-2.5928,-2.6535,0.0,-2.7113,0.0,-2.7229,-2.81,-2.8797,0.0,-2.8173,-2.8042,-2.9044,-2.9087,-2.9392,-3.0016,-3.0045,-3.0219,-3.0568,-3.0568,-3.0568,-3.0568,-3.0568,-3.0054,-2.9079,-2.8132,-2.717,-2.6141,0.0,-2.4506,-2.4004,-2.4004,-2.3653,-2.3078,-2.3078,-2.3078,-2.3078,-2.3078,-2.3078,-2.3078,-2.3078,-2.3017,-2.2909,-2.2848,-2.2726,-2.2494,-2.2432,-2.2321,-2.2197,-2.2197,-2.2197,-2.2125,-2.1825,-2.1584,-2.1332,-2.1031,-2.0959,-2.0842,-2.0535,-2.0087,-1.943,-1.8291,-1.7352,-1.651,-1.6074,-1.6035,-1.6037,-1.5732,-1.5537,-1.541,-1.541,-1.541,-1.541,-1.541,-1.541,-1.541,-1.541,-1.541,-1.541,-1.541,-1.541,-1.541,-1.541,-1.541,-1.5294,-1.5001,-1.4951,-1.4222,-1.2818,-1.2634,-1.1973,-1.0807,-1.0744,-1.0769,-2.3023,-2.405,-2.4961,-2.4315,-2.4067,-2.3603,-2.2129,-2.1135,-2.0141,-1.8684,0.0,-1.8054,-1.7465,-1.8189,-1.9176,-2.0088,0.0,-2.3524,-2.479,-2.5667,-2.6358,-2.6759,-2.7418,-2.7853,-2.7853,-2.8507,-2.916,-2.9711,-2.9247,-2.9174,-2.9726,-2.9755,-3.0001,-3.0553,-3.0568,-3.0568,-3.0568,-3.0568,-3.0568,-3.0568,-3.0568,-2.9856,-2.8478,-2.8026,-2.7035,-2.5686,0.0,0.0,-2.4104,-2.4104,-2.3728,-2.3078,-2.3078,-2.3078,-2.3078,-2.3078,-2.3078,-2.3078,-2.3078,-2.3017,-2.2969,-2.3017,-2.2909,-2.2678,-2.2678,-2.2432,-2.2197,-2.2197,-2.2197,-2.2197,-2.2197,-2.1849,-2.1512,-2.1512,-2.1512,-2.1512,-2.1512,-2.1222,-2.0467,-1.8721,-1.755,-1.6865,-1.6748,-1.6406,-1.6133,-1.6135,-1.5693,-1.541,-1.541,-1.541,-1.541,-1.541,-1.541,-1.541,-1.541,-1.541,-1.541,-1.541,-1.541,-1.541,-1.541,-1.541,-1.5177,-1.4647,-1.4647,-1.3914,-1.2451,-1.2451,-1.1903,-1.0863,-1.0807,-1.0785,-2.3636,-2.4448,-2.5077,-2.4944,-2.4448,-2.3603,-2.2129,-2.0771,0.0,0.0,-1.72,-1.6735,-1.6619,-1.7252,-1.8365,-2.0146,0.0,0.0,0.0,0.0,-2.6257,0.0,0.0,0.0,0.0,0.0,0.0,0.0,0.0,0.0,-3.0408,-3.0408,-3.0451,-3.0568,-3.0568,-3.0568,-3.0568,-3.0568,-3.0568,-3.0568,-3.0568,-2.9856,-2.8492,-2.8383,-2.7643,-2.637,0.0,0.0,-2.4682,-2.4682,-2.4067,-2.3078,-2.3078,-2.3078,-2.3078,-2.3078,-2.3078,-2.3078,-2.3078,-2.3078,-2.3078,-2.2969,-2.2726,-2.242,-2.242,-2.2309,-2.2197,-2.2197,-2.2197,-2.2197,-2.2197,-2.2125,-2.2053,-2.2053,-2.2053,-2.2053,-2.2053,-2.1141,-1.9889,-1.8657,-1.8041,-1.7568,-1.6792,-1.667,-1.6494,-1.6184,-1.5693,-1.541,-1.541,-1.541,-1.541,-1.541,-1.541,-1.541,-1.541,-1.541,-1.541,-1.541,-1.541,-1.541,-1.541,-1.541,-1.5352,-1.5235,-1.5235,-1.4579,-1.326,-1.313,-1.2397,-1.1178,-1.0933,-1.1074,-2.3802,-2.4547,-2.5011,-2.463,-2.4265,-2.3421,-2.1168,0.0,0.0,0.0,-1.6072,-1.5591,-1.4808,0.0,0.0,0.0,0.0,0.0,0.0,0.0,0.0,0.0,0.0,0.0,0.0,0.0,0.0,0.0,0.0,0.0,-3.0568,-3.0568,-3.0568,-3.0568,-3.0568,-3.0568,-3.0568,-3.0568,-3.0568,-3.0568,-3.0568,-2.9856,-2.8492,-2.8492,-2.7802,-2.6508,0.0,0.0,-2.4795,-2.4506,-2.3904,-2.3078,-2.3078,-2.3078,-2.3078,-2.3078,-2.3078,-2.3078,-2.3078,-2.3078,-2.3078,-2.3017,-2.2848,-2.2665,-2.2665,-2.2555,-2.2445,-2.2309,-2.2309,-2.2309,-2.2185,-2.2197,-2.2197,-2.2197,-2.2197,-2.2197,-2.2197,-2.1336,-2.0353,-1.948,-1.8713,-1.7925,-1.7203,-1.6689,-1.6309,-1.6154,-1.5693,-1.541,-1.541,-1.541,-1.541,-1.541,-1.541,-1.541,-1.541,-1.541,-1.541,-1.541,-1.541,-1.541,-1.541,-1.541,-1.541,-1.541,-1.541,-1.4932,-1.4052,-1.3563,-1.2826,-1.1787,-1.124,-1.1104,-2.3802,-2.4547,-2.4928,-2.4183,-2.4,-2.3238,-2.0262,-1.8906,0.0,0.0,-1.5043,-1.4529,-1.3532,0.0,-1.6914,0.0,0.0,0.0,0.0,0.0,0.0,0.0,0.0,0.0,0.0,0.0,0.0,0.0,0.0,0.0,0.0,-3.0568,-3.0568,-3.0568,-3.0568,-3.0568,-3.0568,-3.0568,-3.0568,-3.0568,-3.0447,-2.9732,-2.8492,-2.8363,-2.7604,-2.6496,0.0,0.0,0.0,-2.423,-2.3653,-2.3078,-2.3078,-2.3078,-2.3078,-2.3078,-2.3078,-2.3078,-2.3078,-2.3078,-2.3078,-2.3078,-2.3017,-2.2909,-2.2909,-2.28,-2.2678,-2.2494,-2.2482,-2.242,-2.2309,-2.2247,-2.2247,-2.2247,-2.2259,-2.2321,-2.2247,-2.1651,-2.0933,-2.0226,-1.9286,-1.8332,-1.7642,-1.6787,-1.624,-1.6328,-1.5898,-1.5557,-1.5557,-1.5557,-1.5518,-1.542,-1.541,-1.541,-1.541,-1.541,-1.541,-1.541,-1.541,-1.541,-1.541,-1.541,-1.541,-1.541,-1.541,-1.5118,-1.4469,-1.3983,-1.3252,-1.2328,-1.1737,-1.1447,-2.3802,-2.4547,-2.4928,-2.4183,-2.4,-2.3238,-2.0262,0.0,0.0,-1.5607,-1.4247,-1.3466,-1.3994,-1.4619,-1.5854,0.0,0.0,-2.0384,0.0,0.0,0.0,0.0,0.0,0.0,0.0,0.0,0.0,0.0,0.0,0.0,0.0,-3.0568,-3.0568,-3.0568,-3.0568,-3.0568,-3.0568,-3.0568,-3.0568,-3.0568,-3.0007,-2.9282,-2.8492,-2.7855,-2.7162,-2.6496,0.0,0.0,0.0,-2.423,-2.3653,-2.3078,-2.3078,-2.3078,-2.3078,-2.3078,-2.3078,-2.3078,-2.3078,-2.3078,-2.3078,-2.3078,-2.3017,-2.2909,-2.2909,-2.28,-2.269,-2.2678,-2.2678,-2.2616,-2.242,-2.2359,-2.2359,-2.2359,-2.2494,-2.2616,-2.242,-2.1839,-2.1135,-2.0302,-1.9465,-1.8726,-1.8085,-1.7236,-1.6807,-1.7207,-1.6543,-1.6066,-1.6066,-1.6066,-1.585,-1.5459,-1.541,-1.541,-1.541,-1.541,-1.541,-1.541,-1.541,-1.541,-1.541,-1.541,-1.541,-1.541,-1.541,-1.5118,-1.4469,-1.441,-1.3734,-1.2458,-1.2593,-1.2473,-2.3007,-2.3553,-2.3702,-2.3404,-2.3338,-2.2675,-2.0163,0.0,-1.7027,-1.5591,-1.4131,-1.3334,-1.406,-1.4693,-1.5635,-1.7231,-1.7898,-1.9103,-2.1728,0.0,0.0,0.0,0.0,0.0,0.0,0.0,0.0,0.0,0.0,0.0,0.0,-3.0568,-3.0568,-3.0568,-3.0568,-3.0568,-3.0568,-3.0568,-3.0387,-3.0007,-2.9747,-2.903,-2.7855,-2.7315,-2.6646,-2.5887,0.0,0.0,0.0,-2.3715,-2.3339,-2.3078,-2.3078,-2.3078,-2.3078,-2.3078,-2.3078,-2.3078,-2.3078,-2.3078,-2.3078,-2.3078,-2.3078,-2.3017,-2.3017,-2.2969,-2.2909,-2.286,-2.28,-2.28,-2.2616,-2.2555,-2.2555,-2.2555,-2.2616,-2.2678,-2.2616,-2.2297,-2.1639,-2.0473,-1.9663,-1.89,-1.7826,-1.7129,-1.6787,-1.6963,-1.6689,-1.6367,-1.6154,-1.6125,-1.5898,-1.5459,-1.541,-1.541,-1.541,-1.541,-1.541,-1.541,-1.541,-1.541,-1.541,-1.541,-1.541,-1.541,-1.541,-1.5294,-1.5059,-1.4706,-1.4043,-1.3078,-1.2877,-1.2583,-2.2162,-2.2725,-2.2891,-2.2891,-2.2891,-2.2327,0.0,-1.846,-1.7011,-1.5591,-1.4131,-1.3334,-1.406,-1.4714,-1.5478,-1.6473,-1.7282,-1.8439,-2.0298,-2.0699,0.0,0.0,0.0,0.0,0.0,0.0,0.0,0.0,0.0,0.0,0.0,0.0,-3.0568,-3.0568,-3.0568,-3.0568,-3.0568,-3.0387,-3.0068,-2.9608,-2.917,-2.8454,-2.7458,-2.6687,-2.6114,0.0,0.0,0.0,0.0,-2.3376,-2.3078,-2.3078,-2.3078,-2.3078,-2.3078,-2.3078,-2.3078,-2.3078,-2.3078,-2.3078,-2.3078,-2.3078,-2.3078,-2.3078,-2.3078,-2.3078,-2.3078,-2.2957,-2.2909,-2.2848,-2.28,-2.2739,-2.2739,-2.2739,-2.28,-2.28,-2.28,-2.2678,-2.2149,-2.0655,-2.0068,-1.9329,-1.7889,-1.7272,-1.7017,-1.709,-1.7002,-1.6807,-1.6494,-1.6338,-1.6094,-1.5654,-1.5488,-1.541,-1.541,-1.541,-1.541,-1.541,-1.541,-1.541,-1.541,-1.541,-1.541,-1.541,-1.541,-1.541,-1.541,-1.5124,-1.4643,-1.3987,-1.3844,-1.347,-2.14,-2.2327,-2.2891,-2.2891,-2.2891,-2.2327,0.0,-1.8518,-1.7084,-1.5591,-1.4131,-1.3334,-1.406,-1.4516,-1.5289,-1.675,-1.7663,-1.8653,-2.0039,-2.0963,0.0,0.0,0.0,0.0,0.0,0.0,0.0,0.0,0.0,0.0,0.0,0.0,-3.0568,-3.0568,-3.0568,-3.0568,-3.0568,-2.9931,-2.9623,-2.956,-2.8195,-2.7484,-2.7458,-2.6171,0.0,0.0,0.0,0.0,0.0,-2.3376,-2.3078,-2.3078,-2.3078,-2.3078,-2.3078,-2.3078,-2.3078,-2.3078,-2.3078,-2.3078,-2.3078,-2.3078,-2.3078,-2.3078,-2.3078,-2.3078,-2.3078,-2.3078,-2.3017,-2.2909,-2.2909,-2.2909,-2.2909,-2.2909,-2.3017,-2.3078,-2.2909,-2.2909,-2.2457,-2.091,-2.059,-2.0063,-1.8596,-1.7893,-1.7688,-1.793,-1.7646,-1.7373,-1.7373,-1.6992,-1.6553,-1.6164,-1.5674,-1.541,-1.541,-1.541,-1.541,-1.541,-1.541,-1.541,-1.541,-1.541,-1.541,-1.541,-1.541,-1.541,-1.541,-1.585,-1.5741,-1.5074,-1.5807,-1.5506,-1.9296,-1.9727,-1.9793,-1.9313,-1.9545,-1.9462,-1.7789,-1.7084,-1.6337,-1.4841,-1.4178,-1.4079,-1.4828,-1.5272,-1.6104,-1.7841,-1.8142,0.0,0.0,0.0,0.0,0.0,0.0,0.0,0.0,0.0,0.0,0.0,0.0,0.0,0.0,0.0,-2.9682,-3.0553,-3.0568,-3.0568,-3.0568,-2.9931,-2.9359,-2.8826,-2.7934,-2.7009,-2.6171,-2.5428,0.0,0.0,0.0,0.0,0.0,-2.3153,-2.3078,-2.3078,-2.3078,-2.3078,-2.3078,-2.3078,-2.3078,-2.3078,-2.3078,-2.3078,-2.3078,-2.3078,-2.3078,-2.3078,-2.3078,-2.3078,-2.3078,-2.3078,-2.3078,-2.3017,-2.3017,-2.3017,-2.3017,-2.3017,-2.3078,-2.3078,-2.3078,-2.2969,-2.2592,-2.169,-2.0974,-2.0268,-1.9365,-1.8542,-1.8111,-1.8182,-1.7958,-1.7705,-1.7422,-1.7002,-1.6562,-1.6113,-1.5674,-1.541,-1.541,-1.541,-1.541,-1.541,-1.541,-1.541,-1.541,-1.541,-1.541,-1.541,-1.5703,-1.5859,-1.5859,-1.6299,-1.6271,-1.5816,-1.5682,-1.5179,-1.7441,-1.7922,-1.8021,-1.7614,-1.7806,-1.7822,-1.6669,-1.6171,-1.5657,-1.446,-1.3977,-1.4095,-1.511,-1.5408,-1.6,-1.7574,-1.8035,0.0,0.0,0.0,0.0,0.0,0.0,0.0,0.0,0.0,0.0,0.0,0.0,0.0,0.0,0.0,-2.9101,-2.9827,-2.9856,-2.9972,-3.0219,-2.9332,-2.8746,-2.8492,-2.7315,-2.6381,-2.5573,0.0,0.0,0.0,0.0,0.0,0.0,-2.3078,-2.3078,-2.3078,-2.3078,-2.3078,-2.3078,-2.3078,-2.3078,-2.3078,-2.3078,-2.3078,-2.3078,-2.3078,-2.3078,-2.3078,-2.3078,-2.3078,-2.3078,-2.3078,-2.3078,-2.3078,-2.3078,-2.3078,-2.3078,-2.3078,-2.3078,-2.3078,-2.3078,-2.3017,-2.2775,-2.2125,-2.1542,-2.0899,-2.0193,-1.9365,-1.8854,-1.8787,-1.8405,-1.8045,-1.778,-1.7311,-1.6875,-1.6592,-1.6172,-1.5908,-1.5908,-1.5752,-1.5732,-1.5898,-1.5908,-1.5908,-1.5908,-1.5908,-1.5908,-1.5908,-1.6182,-1.6318,-1.6318,-1.6768,-1.6917,-1.6833,-1.6224,-1.5731,0.0,-1.6702,-1.7266,-1.7216,-1.7233,-1.7084,-1.6337,-1.5674,0.0,-1.4278,-1.3632,-1.3632,-1.511,-1.5141,-1.535,-1.6697,0.0,0.0,0.0,0.0,0.0,0.0,0.0,0.0,0.0,0.0,0.0,0.0,0.0,0.0,0.0,0.0,0.0,-2.8606,-2.8606,-2.8926,-2.9552,-2.826,-2.7854,-2.8356,-2.6478,-2.5577,-2.5448,0.0,0.0,0.0,0.0,0.0,0.0,-2.3078,-2.3078,-2.3078,-2.3078,-2.3078,-2.3078,-2.3078,-2.3078,-2.3078,-2.3078,-2.3078,-2.3078,-2.3078,-2.3078,-2.3078,-2.3078,-2.3078,-2.3078,-2.3078,-2.3078,-2.3078,-2.3078,-2.3078,-2.3078,-2.3078,-2.3078,-2.3078,-2.3078,-2.3078,-2.2944,-2.2298,-2.2113,-2.1854,-2.0951,-2.0268,-1.977,-1.9562,-1.8854,-1.8269,-1.8269,-1.777,-1.7383,-1.7383,-1.6992,-1.6685,-1.6777,-1.6367,-1.6289,-1.6709,-1.6665,-1.6665,-1.6665,-1.6665,-1.6665,-1.6665,-1.6758,-1.6787,-1.6763,-1.7227,-1.7627,-1.8008,-1.7295,-1.6941,-1.3781,0.0,-1.4841,-1.4278,-1.4559,-1.4791,0.0,-1.4178,-1.4261,-1.3516,-1.3681,-1.4394,-1.5873,-1.6112,-1.688,0.0,0.0,0.0,0.0,0.0,0.0,0.0,0.0,0.0,0.0,0.0,0.0,0.0,0.0,0.0,0.0,0.0,0.0,-2.7389,-2.7495,-2.8037,-2.9068,-2.8092,-2.7469,-2.7277,-2.6196,-2.5205,-2.4368,0.0,0.0,0.0,0.0,0.0,-2.3078,-2.3078,-2.3078,-2.3078,-2.3078,-2.3078,-2.3078,-2.3078,-2.3078,-2.3078,-2.3078,-2.3078,-2.3078,-2.3078,-2.3078,-2.3078,-2.3078,-2.3078,-2.3078,-2.3078,-2.3078,-2.3078,-2.3078,-2.3078,-2.3078,-2.3078,-2.3078,-2.3078,-2.3078,-2.3078,-2.3065,-2.2884,-2.2433,-2.1865,-2.1175,-2.0355,-1.9649,-1.9065,-1.8607,-1.8269,-1.8269,-1.777,-1.7383,-1.7383,-1.6992,-1.6865,-1.7197,-1.6826,-1.6621,-1.6665,-1.6665,-1.6665,-1.6665,-1.6665,-1.6665,-1.6665,-1.7061,-1.7393,-1.7705,-1.7812,-1.791,-1.8008,-1.7794,-1.7432,-1.3102,-1.3897,-1.4609,-1.4195,-1.441,-1.4592,-1.4195,-1.3897,-1.3563,-1.3184,-1.3698,-1.4582,-1.5889,0.0,0.0,0.0,0.0,0.0,0.0,0.0,0.0,0.0,0.0,0.0,0.0,0.0,0.0,0.0,0.0,0.0,0.0,0.0,0.0,0.0,-2.7181,-2.76,-2.8437,-2.7726,-2.7397,-2.7402,-2.6156,-2.5162,-2.4571,0.0,0.0,0.0,0.0,0.0,-2.3078,-2.3078,-2.3078,-2.3078,-2.3078,-2.3078,-2.3078,-2.3078,-2.3078,-2.3078,-2.3078,-2.3078,-2.3078,-2.3078,-2.3078,-2.3078,-2.3078,-2.3078,-2.3078,-2.3078,-2.3078,-2.3078,-2.3078,-2.3078,-2.3078,-2.3078,-2.3078,-2.3078,-2.3078,-2.3078,-2.3078,-2.3078,-2.2823,-2.2372,-2.1678,-2.0921,-2.0161,-1.9518,-1.8865,-1.8472,-1.8414,-1.8071,-1.7799,-1.7676,-1.7461,-1.7412,-1.7646,-1.7451,-1.7324,-1.7324,-1.7324,-1.7324,-1.7324,-1.7324,-1.7324,-1.7324,-1.7549,-1.7783,-1.8008,-1.8008,-1.8008,-1.8008,-1.8008,-1.7794,-1.3367,-1.4513,-1.5541,-1.5209,-1.5292,-1.5442,-1.5325,-1.433,-1.3433,0.0,0.0,0.0,0.0,-1.6642,0.0,0.0,0.0,0.0,0.0,0.0,0.0,0.0,0.0,0.0,0.0,0.0,0.0,0.0,0.0,0.0,0.0,0.0,0.0,0.0,-2.7233,-2.7432,-2.7817,-2.7357,-2.734,-2.7854,-2.6233,-2.5418,-2.5288,-2.4236,0.0,0.0,0.0,0.0,-2.3078,-2.3078,-2.3078,-2.3078,-2.3078,-2.3078,-2.3078,-2.3078,-2.3078,-2.3078,-2.3078,-2.3078,-2.3078,-2.3078,-2.3078,-2.3078,-2.3078,-2.3078,-2.3078,-2.3078,-2.3078,-2.3078,-2.3078,-2.3078,-2.3078,-2.3078,-2.3078,-2.3078,-2.3078,-2.3078,-2.3078,-2.3078,-2.3078,-2.2884,-2.2051,-2.1502,-2.0869,-2.0042,-1.9264,-1.8741,-1.8549,-1.8414,-1.8269,-1.8076,-1.8076,-1.8008,-1.8008,-1.8008,-1.8008,-1.8008,-1.8008,-1.8008,-1.8008,-1.8008,-1.8008,-1.8008,-1.8008,-1.8008,-1.8008,-1.8008,-1.8008,-1.8008,-1.8008,-1.8008,-1.4629,-1.5984,-1.6646,-1.4824,-1.5305,-1.6072,-1.5442,-1.511,-1.4961,0.0,0.0,0.0,0.0,-1.8748,0.0,0.0,0.0,0.0,0.0,0.0,0.0,0.0,0.0,0.0,0.0,0.0,0.0,0.0,0.0,0.0,0.0,0.0,0.0,0.0,0.0,-2.7533,-2.7498,-2.7262,-2.7045,-2.6745,-2.6361,-2.5868,-2.5368,-2.4664,-2.4292,0.0,0.0,-2.3271,-2.3078,-2.3078,-2.3078,-2.3078,-2.3078,-2.3078,-2.3078,-2.3078,-2.3078,-2.3078,-2.3078,-2.3078,-2.3078,-2.3078,-2.3078,-2.3078,-2.3078,-2.3078,-2.3078,-2.3078,-2.3078,-2.3078,-2.3078,-2.3078,-2.3078,-2.3078,-2.3078,-2.3078,-2.3078,-2.3078,-2.3078,-2.3078,-2.3078,-2.2689,-2.1439,-2.1187,-2.0677,-1.9452,-1.9008,-1.8808,-1.8741,-1.8617,-1.8405,-1.8269,-1.8269,-1.8212,-1.8008,-1.8008,-1.8008,-1.8008,-1.8008,-1.8008,-1.8008,-1.8008,-1.8008,-1.8008,-1.8008,-1.8008,-1.8008,-1.8008,-1.8008,-1.8008,-1.8008,-1.8008,-1.3433,-1.5139,-1.6613,-1.5636,-1.6762,-1.8038,-1.7706,-1.7027,-1.6486,0.0,0.0,0.0,0.0,0.0,0.0,0.0,0.0,0.0,0.0,0.0,0.0,0.0,0.0,0.0,0.0,0.0,0.0,0.0,0.0,0.0,0.0,0.0,0.0,0.0,0.0,0.0,-2.7488,-2.7423,-2.7321,-2.71,-2.6721,-2.6336,-2.6068,-2.5453,-2.4951,0.0,0.0,-2.3839,-2.3378,-2.3378,-2.3378,-2.3378,-2.3271,-2.3271,-2.3271,-2.3138,-2.3078,-2.3078,-2.3078,-2.3078,-2.3078,-2.3078,-2.3078,-2.3078,-2.3078,-2.3078,-2.3078,-2.3078,-2.3078,-2.3078,-2.3078,-2.3078,-2.3078,-2.3078,-2.3078,-2.3078,-2.3078,-2.3078,-2.3078,-2.3078,-2.3078,-2.2689,-2.1313,-2.1123,-2.0613,-1.933,-1.9008,-1.8942,-1.8808,-1.8741,-1.8617,-1.8405,-1.8337,-1.8269,-1.8144,-1.8076,-1.8008,-1.8008,-1.8008,-1.8008,-1.8008,-1.8008,-1.8008,-1.8008,-1.8008,-1.8008,-1.8008,-1.8008,-1.8008,-1.8008,-1.8008,-1.8008,-1.2787,-1.443,-1.6271,-1.6785,-1.8137,-1.9419,-1.9766,-1.8899,-1.8087,-1.8444,0.0,0.0,0.0,0.0,0.0,0.0,0.0,0.0,0.0,0.0,0.0,0.0,0.0,0.0,0.0,0.0,0.0,0.0,0.0,0.0,0.0,0.0,0.0,0.0,0.0,0.0,-2.7625,-2.7625,-2.7625,-2.7575,-2.7152,-2.6893,-2.6893,-2.6283,-2.5673,-2.5119,-2.4851,-2.435,-2.3793,-2.3675,-2.3628,-2.3569,-2.3509,-2.3463,-2.3403,-2.321,-2.3138,-2.3078,-2.3078,-2.3078,-2.3078,-2.3078,-2.3078,-2.3078,-2.3078,-2.3078,-2.3078,-2.3078,-2.3078,-2.3078,-2.3078,-2.3078,-2.3078,-2.3078,-2.3078,-2.3078,-2.3078,-2.3078,-2.3078,-2.3078,-2.3078,-2.2689,-2.1313,-2.1123,-2.0613,-1.933,-1.9075,-1.9075,-1.8875,-1.8875,-1.8808,-1.8617,-1.8472,-1.8405,-1.8337,-1.8144,-1.8008,-1.8008,-1.8008,-1.8008,-1.8008,-1.8008,-1.8008,-1.8008,-1.8008,-1.8008,-1.8008,-1.8008,-1.8008,-1.8008,-1.8008,-1.8008,-1.4513,-1.5209,-1.5856,-1.7855,-1.846,-1.8949,-2.0307,-2.0025,-1.9832,-2.1201,0.0,0.0,0.0,0.0,0.0,0.0,0.0,0.0,0.0,0.0,0.0,0.0,0.0,0.0,0.0,0.0,0.0,0.0,0.0,0.0,0.0,0.0,0.0,0.0,0.0,0.0,-2.7625,-2.7625,-2.7625,-2.7625,-2.7575,-2.7524,-2.7509,-2.693,-2.6563,-2.6283,-2.5175,-2.4624,-2.4408,-2.3852,-2.3628,-2.3628,-2.3569,-2.3509,-2.3403,-2.3403,-2.3271,-2.3078,-2.3078,-2.3078,-2.3078,-2.3078,-2.3078,-2.3078,-2.3078,-2.3078,-2.3078,-2.3078,-2.3078,-2.3078,-2.3078,-2.3078,-2.3078,-2.3078,-2.3078,-2.3078,-2.3078,-2.3078,-2.3078,-2.3078,-2.3078,-2.2689,-2.1313,-2.1123,-2.0613,-1.933,-1.9075,-1.9065,-1.9065,-1.9065,-1.9008,-1.8808,-1.8741,-1.8607,-1.8337,-1.8144,-1.8008,-1.8008,-1.8008,-1.8008,-1.8008,-1.8008,-1.8008,-1.8008,-1.8008,-1.8008,-1.8008,-1.8008,-1.8008,-1.8008,-1.8008,-1.8008,-1.3037,-1.4247,-1.5707,-1.7441,-1.8551,-1.9551,-2.1052,-2.1516,-2.1947,-2.2957,-2.3388,0.0,0.0,0.0,0.0,0.0,0.0,0.0,0.0,0.0,0.0,0.0,0.0,0.0,0.0,0.0,0.0,0.0,0.0,0.0,0.0,0.0,0.0,0.0,0.0,0.0,0.0,-2.7625,-2.7625,-2.7625,-2.7625,-2.7625,-2.7575,-2.7357,-2.7049,-2.6616,-2.6122,-2.5673,-2.5231,-2.4694,-2.4492,-2.4434,-2.3995,-2.37,-2.3509,-2.3509,-2.3509,-2.3378,-2.3378,-2.339,-2.3271,-2.3271,-2.3198,-2.3078,-2.3078,-2.3078,-2.3078,-2.3078,-2.3078,-2.3078,-2.3078,-2.3078,-2.3078,-2.3078,-2.3078,-2.3078,-2.3078,-2.3078,-2.3078,-2.3078,-2.275,-2.2175,-2.125,-2.0741,-2.0161,-1.9264,-1.9075,-1.9075,-1.9075,-1.9075,-1.9075,-1.9008,-1.8875,-1.8674,-1.8337,-1.8212,-1.8144,-1.8008,-1.8008,-1.8008,-1.8008,-1.8008,-1.8008,-1.8008,-1.8008,-1.8008,-1.8008,-1.8008,-1.8008,-1.8008,-1.8008,-1.8008,-1.2955,-1.4148,-1.5728,-1.7415,-1.8899,-2.034,-2.1814,-2.2526,-2.3238,-2.4448,-2.4131,-2.3912,-2.4664,0.0,0.0,0.0,0.0,0.0,0.0,0.0,0.0,0.0,0.0,0.0,0.0,0.0,0.0,0.0,0.0,0.0,0.0,0.0,0.0,0.0,0.0,0.0,0.0,-2.7625,-2.7625,-2.7625,-2.7625,-2.7625,-2.7625,-2.7625,-2.7357,-2.6997,-2.6788,-2.6457,-2.6068,-2.5481,-2.5272,-2.5216,-2.4505,-2.4086,-2.391,-2.3747,-2.3628,-2.3628,-2.3628,-2.3509,-2.3463,-2.3403,-2.333,-2.3198,-2.3138,-2.3078,-2.3078,-2.3078,-2.3078,-2.3078,-2.3078,-2.3078,-2.3078,-2.3078,-2.3078,-2.3078,-2.3078,-2.3078,-2.3078,-2.3078,-2.275,-2.2175,-2.1553,-2.0858,-2.0161,-1.9528,-1.9264,-1.9075,-1.9075,-1.9075,-1.9075,-1.9075,-1.8942,-1.8674,-1.8472,-1.8337,-1.8269,-1.8076,-1.8008,-1.8008,-1.8008,-1.8008,-1.8008,-1.8008,-1.8008,-1.8008,-1.8008,-1.8008,-1.8008,-1.8008,-1.8008,-1.8008,-1.4934,-1.535,-1.592,-1.7988,0.0,0.0,-2.2576,-2.2907,-2.3537,-2.5756,-2.4454,-2.3446,-2.5206,0.0,0.0,0.0,0.0,0.0,0.0,0.0,0.0,0.0,0.0,0.0,0.0,0.0,0.0,0.0,0.0,0.0,0.0,0.0,0.0,0.0,0.0,0.0,0.0,-2.7625,-2.7625,-2.7625,-2.7625,-2.7625,-2.7625,-2.7625,-2.7625,-2.7575,-2.6997,-2.6736,-2.6669,-2.6068,-2.5783,-2.5742,-2.5216,-2.4878,-2.4624,-2.4112,-2.376,-2.3628,-2.3628,-2.3628,-2.3569,-2.3463,-2.3403,-2.333,-2.3138,-2.3078,-2.3078,-2.3078,-2.3078,-2.3078,-2.3078,-2.3078,-2.3078,-2.3078,-2.3078,-2.3078,-2.3078,-2.3078,-2.3078,-2.3078,-2.3065,-2.2871,-2.2237,-2.1553,-2.0869,-2.0226,-1.9518,-1.9131,-1.9075,-1.9075,-1.9075,-1.9075,-1.8942,-1.8808,-1.8808,-1.8472,-1.8269,-1.8269,-1.8144,-1.8008,-1.8008,-1.8008,-1.8008,-1.8008,-1.8008,-1.8008,-1.8008,-1.8008,-1.8008,-1.8008,-1.8008,-1.8008,-1.43,-1.5334,0.0,-1.875,0.0,0.0,0.0,-2.4448,0.0,0.0,-2.5174,-2.471,-2.5986,0.0,0.0,0.0,0.0,0.0,0.0,0.0,0.0,0.0,0.0,0.0,0.0,0.0,0.0,0.0,0.0,0.0,0.0,0.0,0.0,0.0,0.0,0.0,0.0,0.0,-2.7625,-2.7625,-2.7625,-2.7625,-2.7625,-2.7625,-2.7625,-2.7575,-2.7408,-2.7306,-2.7306,-2.6669,-2.6176,-2.5783,-2.5632,-2.5314,-2.4878,-2.4721,-2.439,-2.3936,-2.3936,-2.3878,-2.3819,-2.3772,-2.3582,-2.3403,-2.333,-2.321,-2.3078,-2.3078,-2.3078,-2.3078,-2.3078,-2.3078,-2.3078,-2.3078,-2.3078,-2.3078,-2.3078,-2.3078,-2.3078,-2.3078,-2.2689,-2.2298,-2.2113,-2.1553,-2.0869,-2.0226,-1.9911,-1.9649,-1.9131,-1.9075,-1.9075,-1.9075,-1.9075,-1.8942,-1.8808,-1.8741,-1.8607,-1.8482,-1.8414,-1.8279,-1.8008,-1.8008,-1.8008,-1.8008,-1.8008,-1.8008,-1.8008,-1.8008,-1.8008,-1.8008,-1.8008,-1.8008,-1.5608,-1.6697,0.0,-2.0345,-2.1986,-2.3449,-2.5143,0.0,0.0,0.0,0.0,0.0,0.0,0.0,0.0,0.0,0.0,0.0,0.0,0.0,0.0,0.0,0.0,0.0,0.0,0.0,0.0,0.0,0.0,0.0,0.0,0.0,0.0,0.0,0.0,0.0,0.0,0.0,0.0,-2.7625,-2.7625,-2.7625,-2.7625,-2.7625,-2.7625,-2.7625,-2.7625,-2.7625,-2.7575,-2.7203,-2.6826,-2.6481,-2.6229,-2.596,-2.5646,-2.5425,-2.509,-2.4765,-2.4765,-2.4607,-2.4332,-2.4216,-2.3923,-2.3582,-2.3509,-2.339,-2.321,-2.321,-2.3138,-2.3078,-2.3078,-2.3078,-2.3078,-2.3078,-2.3078,-2.3078,-2.3078,-2.3078,-2.3078,-2.3078,-2.275,-2.2494,-2.2494,-2.1928,-2.1365,-2.0985,-2.0409,-1.9846,-1.9198,-1.9075,-1.9075,-1.9075,-1.9075,-1.9065,-1.8942,-1.8875,-1.8741,-1.8617,-1.8549,-1.8414,-1.8212,-1.8144,-1.8076,-1.8008,-1.8008,-1.8008,-1.8008,-1.8008,-1.8008,-1.8008,-1.8008,-1.8008,-1.7826,-1.8641,0.0,-2.2295,-2.3164,0.0,-2.5756,-2.622,-2.622,0.0,0.0,0.0,0.0,0.0,0.0,0.0,0.0,0.0,0.0,0.0,0.0,0.0,0.0,0.0,0.0,0.0,0.0,0.0,0.0,0.0,0.0,0.0,0.0,0.0,0.0,0.0,0.0,0.0,0.0,0.0,-2.7565,-2.7565,-2.7625,-2.7625,-2.7625,-2.7625,-2.7625,-2.7625,-2.7625,-2.7625,-2.7625,-2.7575,-2.6997,-2.6736,-2.6616,-2.6068,-2.5837,-2.5783,-2.5783,-2.5425,-2.4948,-2.4808,-2.4376,-2.3891,-2.3688,-2.3522,-2.3403,-2.3403,-2.3271,-2.3138,-2.3138,-2.3138,-2.3138,-2.3078,-2.3078,-2.3078,-2.3078,-2.3078,-2.3078,-2.3078,-2.3078,-2.3078,-2.3078,-2.2616,-2.2175,-2.2051,-2.0921,-1.9846,-1.9198,-1.9075,-1.9075,-1.9075,-1.9075,-1.9075,-1.9075,-1.8942,-1.8808,-1.8808,-1.8684,-1.8549,-1.8549,-1.8405,-1.8212,-1.8076,-1.8076,-1.8008,-1.8008,-1.8008,-1.8008,-1.8008,-1.8008,-1.8008,-1.6512,-1.7916,0.0,0.0,-2.4265,-2.5624,-2.6104,-2.622,0.0,0.0,0.0,0.0,0.0,0.0,0.0,0.0,0.0,0.0,0.0,0.0,0.0,0.0,0.0,0.0,0.0,0.0,0.0,0.0,0.0,0.0,0.0,0.0,0.0,0.0,0.0,0.0,-2.761,-2.7066,-2.7066,0.0,-2.7051,-2.7066,-2.7625,-2.7625,-2.7625,-2.7625,-2.7625,-2.7625,-2.7625,-2.7625,-2.7625,-2.7575,-2.7473,-2.71,-2.6669,-2.6563,-2.6229,-2.5783,-2.5783,-2.5425,-2.5005,-2.4935,-2.4447,-2.3891,-2.3832,-2.37,-2.3569,-2.3569,-2.3509,-2.345,-2.333,-2.333,-2.3271,-2.3138,-2.3078,-2.3078,-2.3078,-2.3078,-2.3078,-2.3078,-2.3078,-2.3078,-2.3078,-2.3005,-2.2506,-2.1502,-2.0613,-1.9846,-1.9198,-1.9075,-1.9075,-1.9075,-1.9075,-1.9075,-1.9075,-1.9075,-1.9075,-1.9075,-1.9008,-1.8875,-1.8741,-1.8549,-1.8414,-1.8414,-1.8414,-1.8347,-1.8269,-1.8269,-1.8144,-1.8008,-1.8008,-1.8008,-1.6442,0.0,0.0,-2.2759,0.0,-2.5808,-2.6137,-2.622,0.0,0.0,0.0,0.0,0.0,0.0,0.0,0.0,0.0,0.0,0.0,0.0,0.0,0.0,0.0,0.0,0.0,0.0,0.0,0.0,0.0,0.0,0.0,0.0,0.0,0.0,0.0,0.0,-2.6632,-2.6303,-2.6303,-2.6632,-2.6288,-2.6303,-2.6647,-2.729,-2.7625,-2.7625,-2.7625,-2.7625,-2.7625,-2.7625,-2.7625,-2.7625,-2.7625,-2.7408,-2.7152,-2.7152,-2.693,-2.6654,-2.6654,-2.6283,-2.5756,-2.5481,-2.4935,-2.439,-2.4054,-2.3891,-2.376,-2.376,-2.3688,-2.3569,-2.3509,-2.3463,-2.3403,-2.3271,-2.3198,-2.3078,-2.3078,-2.3078,-2.3078,-2.3078,-2.3078,-2.3078,-2.3078,-2.3078,-2.2702,-2.1565,-2.1123,-2.0484,-1.9264,-1.9075,-1.9075,-1.9075,-1.9075,-1.9075,-1.9075,-1.9075,-1.9075,-1.9075,-1.9075,-1.9065,-1.8942,-1.8808,-1.8684,-1.8482,-1.8482,-1.8482,-1.8414,-1.8337,-1.8279,-1.8144,-1.8008,-1.8008,-1.615,0.0,-1.9815,-2.3217,-2.4645,0.0,-2.5907,0.0,0.0,0.0,0.0,0.0,0.0,0.0,0.0,0.0,0.0,0.0,0.0,0.0,0.0,0.0,0.0,0.0,0.0,0.0,0.0,0.0,0.0,0.0,0.0,0.0,0.0,0.0,0.0,-2.5375,-2.5615,-2.5495,-2.5495,-2.5615,-2.5615,-2.5555,-2.548,-2.6692,-2.734,-2.741,-2.7565,-2.7625,-2.7625,-2.7625,-2.7625,-2.7625,-2.7625,-2.7625,-2.7625,-2.7625,-2.7625,-2.7625,-2.7625,-2.7203,-2.6616,-2.6122,-2.5577,-2.5061,-2.4447,-2.4171,-2.4054,-2.3949,-2.3819,-2.3688,-2.3628,-2.3582,-2.3463,-2.3463,-2.333,-2.3198,-2.3138,-2.3078,-2.3078,-2.3078,-2.3078,-2.3078,-2.3078,-2.3078,-2.2823,-2.1951,-2.1951,-2.1313,-1.933,-1.9075,-1.9075,-1.9075,-1.9075,-1.9075,-1.9075,-1.9075,-1.9075,-1.9075,-1.9075,-1.9075,-1.9075,-1.9075,-1.8942,-1.8617,-1.8617,-1.8617,-1.8549,-1.8405,-1.8337,-1.8337,-1.8144,-1.8076,0.0,0.0,-2.0336,0.0,-2.431,-2.5212,0.0,0.0,0.0,0.0,0.0,0.0,0.0,0.0,0.0,0.0,0.0,0.0,0.0,0.0,0.0,0.0,0.0,0.0,0.0,0.0,0.0,0.0,0.0,0.0,0.0,0.0,-2.4336,-2.4897,-2.4326,0.0,-2.56,-2.5046,-2.5046,-2.5615,-2.5615,-2.5315,-2.4746,-2.554,-2.6183,-2.6752,-2.732,-2.7625,-2.7625,-2.7625,-2.7625,-2.7625,-2.7625,-2.7625,-2.7625,-2.7625,-2.7625,-2.7625,-2.7625,-2.7203,-2.6683,-2.6616,-2.6176,-2.5577,-2.5061,-2.4892,-2.4721,-2.4229,-2.4054,-2.3995,-2.3891,-2.3832,-2.3772,-2.3628,-2.3569,-2.3437,-2.3138,-2.3078,-2.3078,-2.3078,-2.3078,-2.3078,-2.3078,-2.3078,-2.2823,-2.1951,-2.2457,-2.199,-1.9452,-1.9075,-1.9075,-1.9075,-1.9075,-1.9075,-1.9075,-1.9075,-1.9075,-1.9075,-1.9075,-1.9075,-1.9075,-1.9075,-1.9075,-1.9008,-1.9008,-1.8942,-1.8741,-1.8741,-1.8607,-1.8482,-1.8337,-1.8269,-1.448,-1.7552,-2.049,0.0,-2.3718,-2.4342,0.0,0.0,0.0,0.0,0.0,0.0,0.0,0.0,0.0,0.0,0.0,0.0,0.0,0.0,0.0,0.0,0.0,0.0,0.0,0.0,0.0,0.0,0.0,0.0,0.0,-2.4124,-2.4177,-2.4336,-2.4048,0.0,-2.4686,-2.4341,-2.4252,-2.4477,-2.4477,-2.4328,-2.4073,-2.4747,-2.542,-2.6063,-2.6348,-2.6467,-2.6497,-2.6871,-2.7021,-2.7066,-2.7475,-2.7625,-2.7625,-2.7625,-2.7625,-2.7625,-2.7625,-2.7408,-2.7152,-2.6841,-2.651,-2.6122,-2.5272,-2.5005,-2.4892,-2.4287,-2.4112,-2.4112,-2.4008,-2.3949,-2.3891,-2.3734,-2.3628,-2.3556,-2.3497,-2.3378,-2.321,-2.3138,-2.3078,-2.3078,-2.3078,-2.3078,-2.2944,-2.258,-2.2823,-2.2113,-1.9452,-1.9781,-2.0226,-2.0226,-1.9911,-1.9649,-1.9649,-1.933,-1.9075,-1.9075,-1.9075,-1.9075,-1.9075,-1.9075,-1.9075,-1.9075,-1.9075,-1.9075,-1.8942,-1.8875,-1.8741,-1.8674,-1.8482,-1.8337,0.0,0.0,-1.9224,-2.1804,-2.2719,-2.3294,0.0,0.0,0.0,0.0,0.0,0.0,0.0,0.0,0.0,0.0,0.0,0.0,0.0,0.0,0.0,0.0,0.0,0.0,0.0,0.0,0.0,0.0,0.0,0.0,-2.4208,-2.4208,-2.4166,-2.4067,-2.4024,-2.4024,-2.3982,-2.3882,-2.3797,-2.3696,-2.3696,-2.3696,-2.3668,-2.4177,-2.4642,-2.5121,-2.545,-2.5615,-2.5644,-2.6138,-2.6437,-2.6632,-2.7126,-2.7475,-2.7625,-2.7625,-2.7625,-2.7625,-2.7625,-2.7625,-2.7524,-2.71,-2.6945,-2.6721,-2.5536,-2.5216,-2.5048,-2.4287,-2.4112,-2.4112,-2.4112,-2.4008,-2.3949,-2.3865,-2.3806,-2.3747,-2.3734,-2.3569,-2.339,-2.3198,-2.3198,-2.3198,-2.3138,-2.3078,-2.3078,-2.3078,-2.3078,-2.2372,-2.0344,-2.0985,-2.1502,-2.1313,-2.0805,-2.042,-2.0096,-1.9649,-1.9264,-1.9131,-1.9075,-1.9075,-1.9075,-1.9075,-1.9075,-1.9075,-1.9075,-1.9075,-1.9075,-1.8942,-1.8875,-1.8875,-1.8684,-1.8482,0.0,-1.4697,0.0,-1.9275,0.0,0.0,0.0,0.0,0.0,0.0,0.0,0.0,0.0,0.0,0.0,0.0,0.0,0.0,0.0,0.0,0.0,0.0,0.0,0.0,0.0,0.0,0.0,0.0,0.0,0.0,-2.4302,-2.4302,-2.4276,-2.4181,-2.4181,-2.4124,-2.3982,-2.3982,-2.3982,-2.3982,-2.3982,-2.3925,-2.3797,-2.3827,-2.3814,-2.3774,-2.5061,-2.5615,-2.5615,-2.5644,-2.6033,-2.6587,-2.6632,-2.7021,-2.7625,-2.7625,-2.7625,-2.7625,-2.7625,-2.7625,-2.7575,-2.756,-2.756,-2.7357,-2.6108,-2.5742,-2.5522,-2.439,-2.4112,-2.4112,-2.4112,-2.4112,-2.4112,-2.4112,-2.4054,-2.3995,-2.3688,-2.3628,-2.3569,-2.339,-2.3463,-2.339,-2.3138,-2.3078,-2.3078,-2.3078,-2.3078,-2.3078,-2.2884,-2.2944,-2.2702,-2.1827,-2.1702,-2.125,-2.0161,-2.0096,-1.9781,-1.9131,-1.9075,-1.9075,-1.9075,-1.9075,-1.9075,-1.9075,-1.9075,-1.9075,-1.9075,-1.9075,-1.9065,-1.9065,-1.8875,-1.8674,0.0,0.0,0.0,-1.732,-1.8971,0.0,0.0,0.0,0.0,0.0,0.0,0.0,0.0,0.0,0.0,0.0,0.0,0.0,0.0,0.0,0.0,0.0,0.0,0.0,0.0,0.0,0.0,0.0,0.0,0.0,-2.4302,-2.4302,-2.4317,-2.4276,-2.4276,-2.4208,-2.4124,-2.4124,-2.4082,-2.3982,-2.3982,-2.3982,-2.394,-2.394,-2.3882,-2.387,-2.425,-2.4417,-2.4358,-2.4792,-2.5121,-2.542,-2.6258,-2.6737,-2.6991,-2.746,-2.7625,-2.7625,-2.7625,-2.7625,-2.7625,-2.7625,-2.7625,-2.7458,-2.6616,-2.6122,-2.5632,-2.4878,-2.439,-2.4112,-2.4112,-2.4112,-2.4112,-2.4112,-2.4112,-2.4054,-2.3936,-2.3747,-2.3569,-2.3463,-2.3463,-2.339,-2.3138,-2.3078,-2.3078,-2.3078,-2.3078,-2.3078,-2.3078,-2.3078,-2.3005,-2.2702,-2.1889,-2.1198,-2.0805,-1.9966,-1.933,-1.9142,-1.9075,-1.9075,-1.9075,-1.9075,-1.9075,-1.9075,-1.9075,-1.9075,-1.9075,-1.9075,-1.9075,-1.9075,-1.9008,-1.8808,-1.1383,0.0,0.0,0.0,0.0,0.0,0.0,0.0,0.0,0.0,0.0,0.0,0.0,0.0,0.0,0.0,0.0,0.0,0.0,0.0,0.0,0.0,0.0,0.0,0.0,0.0,0.0,0.0,0.0,0.0,-2.4302,-2.4302,-2.4302,-2.4302,-2.4302,-2.4276,-2.425,-2.425,-2.4208,-2.4109,-2.4109,-2.4109,-2.4082,-2.4082,-2.4024,-2.3982,-2.3839,-2.3739,-2.3683,-2.4088,-2.4373,-2.4672,-2.5585,-2.6063,-2.6348,-2.7006,-2.7245,-2.7275,-2.755,-2.7625,-2.7625,-2.7625,-2.7625,-2.7473,-2.6893,-2.6404,-2.596,-2.5216,-2.4734,-2.4332,-2.4171,-2.4112,-2.4112,-2.4112,-2.4112,-2.4112,-2.4112,-2.3936,-2.376,-2.3582,-2.3582,-2.3497,-2.3138,-2.3078,-2.3078,-2.3078,-2.3078,-2.3078,-2.3078,-2.3078,-2.3078,-2.3078,-2.2322,-2.169,-2.1428,-2.042,-1.9649,-1.9462,-1.9198,-1.9075,-1.9075,-1.9075,-1.9075,-1.9075,-1.9075,-1.9075,-1.9075,-1.9075,-1.9075,-1.9075,-1.9075,-1.8942,0.0,0.0,0.0,0.0,0.0,0.0,0.0,0.0,0.0,0.0,0.0,0.0,0.0,0.0,0.0,0.0,0.0,0.0,0.0,0.0,0.0,0.0,0.0,0.0,0.0,0.0,0.0,0.0,0.0,-2.4241,-2.4241,-2.4241,-2.4241,-2.4241,-2.4241,-2.4256,-2.4271,-2.4271,-2.4287,-2.4302,-2.4302,-2.4276,-2.4208,-2.4208,-2.4124,-2.3982,-2.3882,-2.3797,-2.3797,-2.3653,-2.3999,-2.4552,-2.4567,-2.5016,-2.5659,-2.6318,-2.6572,-2.6677,-2.732,-2.761,-2.7625,-2.7625,-2.7625,-2.7509,-2.6878,-2.6721,-2.6457,-2.5384,-2.5005,-2.4835,-2.4287,-2.4112,-2.4112,-2.4112,-2.4112,-2.4112,-2.4112,-2.4112,-2.4067,-2.3949,-2.3865,-2.3675,-2.3198,-2.3138,-2.3078,-2.3078,-2.3078,-2.3078,-2.3078,-2.3078,-2.3078,-2.3078,-2.3078,-2.2811,-2.2175,-2.1491,-2.0805,-2.0161,-1.9518,-1.9131,-1.9131,-1.9131,-1.9075,-1.9075,-1.9075,-1.9075,-1.9075,-1.9075,-1.9075,-1.9075,-1.9065,-1.9008,-1.044,0.0,0.0,0.0,0.0,0.0,0.0,0.0,0.0,0.0,0.0,0.0,0.0,0.0,0.0,0.0,0.0,0.0,0.0,0.0,0.0,0.0,0.0,0.0,0.0,0.0,0.0,0.0,0.0,-2.284,-2.284,-2.284,-2.284,-2.284,-2.284,-2.3086,-2.3579,-2.3579,-2.3825,-2.4302,-2.4302,-2.4317,-2.4276,-2.4276,-2.4234,-2.4234,-2.4109,-2.4082,-2.4082,-2.3739,-2.3714,-2.3924,-2.4388,-2.4686,-2.4986,-2.563,-2.6183,-2.6617,-2.6797,-2.7171,-2.7625,-2.7625,-2.7625,-2.7575,-2.7408,-2.7049,-2.6616,-2.6297,-2.566,-2.4835,-2.4287,-2.4112,-2.4112,-2.4112,-2.4112,-2.4112,-2.4112,-2.4112,-2.4067,-2.3949,-2.3936,-2.3923,-2.3509,-2.3258,-2.3078,-2.3078,-2.3078,-2.3078,-2.3078,-2.3078,-2.3078,-2.3078,-2.3078,-2.2811,-2.2175,-2.1491,-2.0996,-2.0816,-2.0161,-1.9846,-1.9846,-1.933,-1.9075,-1.9075,-1.9075,-1.9075,-1.9075,-1.9075,-1.9075,-1.9075,-1.8942,-1.8875,-1.157,-1.2381,-1.3718,0.0,0.0,0.0,0.0,0.0,0.0,0.0,0.0,0.0,0.0,0.0,0.0,0.0,0.0,0.0,0.0,0.0,0.0,0.0,0.0,0.0,0.0,0.0,0.0,0.0,-2.2608,-2.2437,-2.2324,-2.2286,-2.2286,-2.2286,-2.2286,-2.2486,-2.2871,-2.2871,-2.3071,-2.3471,-2.3748,-2.3887,-2.3887,-2.4179,-2.4302,-2.4317,-2.425,-2.4223,-2.4166,-2.3882,-2.3739,-2.3741,-2.4044,-2.4193,-2.4283,-2.4956,-2.5435,-2.5809,-2.6093,-2.6437,-2.6797,-2.7066,-2.7156,-2.7215,-2.7535,-2.7357,-2.6982,-2.6457,-2.5481,-2.4563,-2.4171,-2.4112,-2.4112,-2.4112,-2.4112,-2.4112,-2.4112,-2.4112,-2.4054,-2.4008,-2.4067,-2.4054,-2.3819,-2.3628,-2.3437,-2.3138,-2.3078,-2.3078,-2.3078,-2.3078,-2.3078,-2.3078,-2.3078,-2.2944,-2.2555,-2.1928,-2.1502,-2.1502,-2.0858,-2.0355,-2.0096,-1.9715,-1.9396,-1.9142,-1.9075,-1.9075,-1.9075,-1.9075,-1.9075,-1.9075,-1.9008,-1.8942,-1.3362,-1.387,-1.5071,-1.5392,0.0,0.0,-1.6678,-1.6813,0.0,0.0,0.0,0.0,0.0,0.0,0.0,0.0,0.0,0.0,0.0,0.0,0.0,0.0,0.0,0.0,0.0,0.0,0.0,-2.2983,-2.2683,-2.2389,-2.2093,-2.207,-2.207,-2.207,-2.207,-2.2101,-2.2178,-2.2178,-2.2209,-2.2301,-2.2902,-2.3225,-2.3317,-2.3917,-2.4241,-2.4317,-2.425,-2.4208,-2.4208,-2.4067,-2.394,-2.3797,-2.3653,-2.3595,-2.367,-2.4283,-2.4522,-2.4672,-2.53,-2.5555,-2.5704,-2.6303,-2.6482,-2.6602,-2.726,-2.7505,-2.7253,-2.6147,-2.5034,-2.4171,-2.4112,-2.4112,-2.4112,-2.4112,-2.4112,-2.4112,-2.4112,-2.4112,-2.4112,-2.4112,-2.4112,-2.4112,-2.4112,-2.4112,-2.3878,-2.3318,-2.3138,-2.3078,-2.3078,-2.3078,-2.3078,-2.3078,-2.3078,-2.3078,-2.3078,-2.2555,-2.2237,-2.2237,-2.1553,-2.0933,-2.0226,-2.0161,-1.9781,-1.9131,-1.9075,-1.9075,-1.9075,-1.9075,-1.9075,-1.9075,-1.9075,-1.9075,-1.6292,-1.6915,-1.7507,-1.5274,0.0,0.0,0.0,-1.4191,0.0,0.0,0.0,0.0,0.0,0.0,0.0,0.0,0.0,0.0,0.0,0.0,0.0,0.0,0.0,0.0,0.0,0.0,-2.1471,-2.0917,-2.0829,-2.0775,-2.0705,-2.0705,-2.0705,-2.0705,-2.0705,-2.0967,-2.1507,-2.1486,-2.1784,-2.2286,-2.2424,-2.2778,-2.3302,-2.344,-2.3794,-2.4302,-2.4276,-2.4276,-2.4276,-2.4208,-2.4024,-2.3797,-2.3782,-2.3696,-2.361,-2.3744,-2.4148,-2.4597,-2.4731,-2.5166,-2.563,-2.5749,-2.5809,-2.5929,-2.6572,-2.6782,-2.6674,-2.5966,-2.5314,-2.4734,-2.4229,-2.4112,-2.4112,-2.4112,-2.4112,-2.4112,-2.4112,-2.4112,-2.4112,-2.4112,-2.4112,-2.4112,-2.4112,-2.4112,-2.4067,-2.3936,-2.3437,-2.3078,-2.3078,-2.3078,-2.3078,-2.3078,-2.3078,-2.3078,-2.3078,-2.3005,-2.2884,-2.2884,-2.231,-2.1616,-2.0933,-2.0355,-1.9781,-1.9131,-1.9075,-1.9075,-1.9075,-1.9075,-1.9075,-1.9075,-1.9075,-1.9075,-1.8251,-1.8606,-1.9012,-1.7168,0.0,0.0,0.0,0.0,0.0,0.0,0.0,0.0,0.0,0.0,0.0,0.0,0.0,0.0,0.0,0.0,0.0,0.0,0.0,0.0,0.0,0.0,-2.1601,-2.1103,-2.0893,-2.0712,-2.0561,-2.0407,-2.0304,-2.0304,-2.0304,-2.0474,-2.0813,-2.0813,-2.0983,-2.1322,-2.1624,-2.1963,-2.2317,-2.2994,-2.3486,-2.3825,-2.4148,-2.4302,-2.4317,-2.4276,-2.4151,-2.3982,-2.394,-2.3839,-2.3797,-2.3739,-2.3906,-2.4206,-2.4118,-2.4328,-2.4657,-2.5001,-2.5121,-2.5241,-2.5899,-2.6109,-2.6073,-2.5816,-2.5396,-2.4948,-2.462,-2.4345,-2.4112,-2.4112,-2.4112,-2.4112,-2.4112,-2.4112,-2.4112,-2.4112,-2.4112,-2.4112,-2.4112,-2.4112,-2.4112,-2.4112,-2.3806,-2.3509,-2.3138,-2.3078,-2.3078,-2.3078,-2.3078,-2.3078,-2.3078,-2.3078,-2.3078,-2.3078,-2.275,-2.231,-2.1616,-2.0921,-2.0096,-1.9142,-1.9075,-1.9075,-1.9075,-1.9075,-1.9075,-1.9075,-1.9075,-1.9075,0.0,0.0,0.0,0.0,0.0,-1.8291,0.0,0.0,0.0,-1.8065,0.0,0.0,0.0,0.0,0.0,0.0,0.0,0.0,0.0,0.0,0.0,0.0,0.0,0.0,0.0,0.0,-2.169,-2.1705,-2.111,-2.0766,-2.0811,-2.0475,-2.0304,-2.0304,-2.0304,-2.0304,-2.0304,-2.0304,-2.0304,-2.032,-2.0859,-2.1198,-2.1353,-2.2409,-2.3055,-2.3332,-2.3871,-2.4179,-2.4302,-2.4302,-2.4276,-2.4208,-2.4082,-2.4024,-2.3982,-2.3882,-2.3839,-2.3782,-2.3696,-2.3595,-2.3684,-2.4253,-2.4477,-2.4686,-2.5255,-2.5545,-2.5684,-2.5684,-2.5427,-2.516,-2.516,-2.4607,-2.4112,-2.4112,-2.4112,-2.4112,-2.4112,-2.4112,-2.4112,-2.4112,-2.4112,-2.4112,-2.4112,-2.4112,-2.4112,-2.4112,-2.4112,-2.3878,-2.3378,-2.3318,-2.3318,-2.3318,-2.3258,-2.3185,-2.3198,-2.3198,-2.3138,-2.3138,-2.3138,-2.2811,-2.2113,-2.1302,-2.0355,-1.9131,-1.9075,-1.9075,-1.9075,-1.9075,-1.9075,-1.9075,-1.9075,-1.9075,0.0,0.0,0.0,0.0,-2.0047,0.0,0.0,0.0,-1.742,-1.6224,0.0,0.0,0.0,0.0,0.0,0.0,0.0,0.0,0.0,0.0,0.0,0.0,0.0,0.0,0.0,0.0,0.0,-2.1272,-1.9778,-1.9405,-2.0731,-2.0475,-2.0304,-2.0304,-2.0304,-2.0304,-2.0304,-2.0304,-2.0304,-2.0304,-2.0381,-2.0736,-2.1322,-2.1439,-2.2163,-2.3302,-2.3379,-2.3748,-2.4302,-2.4302,-2.4317,-2.4276,-2.4208,-2.4082,-2.3982,-2.3982,-2.3882,-2.3797,-2.3782,-2.3696,-2.361,-2.3684,-2.4133,-2.4597,-2.4672,-2.5191,-2.5684,-2.5684,-2.573,-2.5742,-2.5742,-2.4935,-2.4112,-2.4112,-2.4112,-2.4112,-2.4112,-2.4112,-2.4112,-2.4112,-2.4112,-2.4112,-2.4112,-2.4112,-2.4112,-2.4112,-2.4112,-2.4054,-2.3995,-2.3995,-2.3995,-2.3995,-2.3806,-2.3675,-2.3569,-2.345,-2.3403,-2.3403,-2.3198,-2.2811,-2.2113,-2.0921,-1.9846,-1.9131,-1.9075,-1.9075,-1.9075,-1.9075,-1.9075,-1.9075,-1.9075,-1.9075,0.0,0.0,0.0,0.0,0.0,0.0,0.0,0.0,-1.7832,0.0,0.0,0.0,0.0,0.0,0.0,0.0,0.0,0.0,0.0,0.0,0.0,0.0,0.0,0.0,0.0,0.0,0.0,0.0,0.0,-1.921,-2.0178,-2.0258,-2.0304,-2.0304,-2.0304,-2.0304,-2.0304,-2.0304,-2.0304,-2.0304,-2.0304,-2.0458,-2.0736,-2.1137,-2.1593,-2.2178,-2.2963,-2.3456,-2.3748,-2.4148,-2.4302,-2.4317,-2.4276,-2.4234,-2.4193,-2.4124,-2.4082,-2.4024,-2.394,-2.3839,-2.3696,-2.3638,-2.3789,-2.4029,-2.4029,-2.4505,-2.5118,-2.5549,-2.5697,-2.5812,-2.6236,-2.5851,-2.5425,-2.5425,-2.5258,-2.4935,-2.4216,-2.4112,-2.4112,-2.4112,-2.4112,-2.4112,-2.4112,-2.4112,-2.4112,-2.4112,-2.4112,-2.4112,-2.4112,-2.4112,-2.4112,-2.4112,-2.3923,-2.3793,-2.3734,-2.3509,-2.3403,-2.3403,-2.321,-2.2811,-2.2113,-2.1175,-2.0355,-1.9715,-1.933,-1.9075,-1.9075,-1.9075,-1.9075,-1.9075,-1.9075,-1.9075,-2.2825,0.0,0.0,0.0,0.0,0.0,0.0,0.0,0.0,0.0,0.0,0.0,0.0,0.0,0.0,0.0,0.0,0.0,0.0,0.0,0.0,0.0,0.0,0.0,0.0,0.0,0.0,0.0,0.0,0.0,-1.9843,-1.9981,-2.0119,-2.0304,-2.0304,-2.0304,-2.0304,-2.0304,-2.0304,-2.0304,-2.0304,-2.0304,-2.032,-2.0813,-2.1137,-2.1383,-2.2517,-2.3117,-2.3348,-2.4025,-2.4302,-2.4302,-2.4302,-2.4302,-2.4302,-2.425,-2.4208,-2.4181,-2.4082,-2.394,-2.3782,-2.3653,-2.3595,-2.3595,-2.3595,-2.4208,-2.5001,-2.548,-2.5893,-2.6316,-2.6813,-2.6826,-2.6721,-2.6721,-2.6269,-2.5577,-2.4765,-2.4332,-2.4112,-2.4112,-2.4112,-2.4112,-2.4112,-2.4112,-2.4112,-2.4112,-2.4112,-2.4112,-2.4112,-2.4112,-2.4112,-2.4112,-2.3982,-2.3865,-2.3865,-2.3628,-2.3403,-2.333,-2.3198,-2.2811,-2.2113,-2.1439,-2.0805,-2.0096,-1.9452,-1.9075,-1.9075,-1.9075,-1.9075,-1.9075,-1.9075,-1.9075,0.0,0.0,0.0,-2.088,0.0,0.0,0.0,0.0,-1.9133,0.0,0.0,0.0,0.0,0.0,-1.8318,-1.6902,0.0,0.0,0.0,0.0,0.0,0.0,0.0,0.0,0.0,0.0,0.0,0.0,0.0,0.0,-2.0019,-1.9641,-1.9626,-2.0289,-2.0304,-2.0304,-2.0304,-2.0304,-2.0304,-2.0304,-2.0304,-2.0304,-2.0304,-2.0335,-2.0705,-2.1353,-2.2024,-2.2686,-2.3348,-2.4025,-2.4302,-2.4302,-2.4302,-2.4302,-2.4302,-2.4302,-2.425,-2.4223,-2.4223,-2.4024,-2.3782,-2.3653,-2.3595,-2.3595,-2.3595,-2.4522,-2.5585,-2.56,-2.6542,-2.7545,-2.7575,-2.7575,-2.756,-2.756,-2.6654,-2.5783,-2.5728,-2.4878,-2.4112,-2.4112,-2.4112,-2.4112,-2.4112,-2.4112,-2.4112,-2.4112,-2.4112,-2.4112,-2.4112,-2.4112,-2.4112,-2.4112,-2.4112,-2.4112,-2.4112,-2.3806,-2.345,-2.3138,-2.3078,-2.2811,-2.2113,-2.1439,-2.0805,-2.0096,-1.9452,-1.9075,-1.9075,-1.9075,-1.9075,-1.9075,-1.9075,-1.9075,0.0,0.0,-2.32,-2.1762,0.0,0.0,0.0,0.0,0.0,0.0,0.0,0.0,0.0,-1.9621,-1.8751,-1.7727,-1.6734,-1.5473,0.0,0.0,0.0,0.0,0.0,0.0,0.0,0.0,0.0,0.0,0.0,0.0,0.0,-2.022,-2.0623,-2.0628,-2.0628,-2.0527,-2.0304,-2.0304,-2.0304,-2.0304,-2.0304,-2.0304,-2.0304,-2.0304,-2.0428,-2.069,-2.1368,-2.2009,-2.2686,-2.3363,-2.3902,-2.4302,-2.4302,-2.4302,-2.4302,-2.4302,-2.4276,-2.4276,-2.4208,-2.4124,-2.4024,-2.3925,-2.3797,-2.3739,-2.3739,-2.4297,-2.5046,-2.5495,-2.6243,-2.7021,-2.7455,-2.7625,-2.7509,-2.71,-2.6669,-2.6176,-2.5425,-2.5048,-2.4721,-2.4229,-2.4112,-2.4112,-2.4112,-2.4112,-2.4112,-2.4112,-2.4112,-2.4112,-2.4112,-2.4112,-2.4112,-2.4112,-2.4112,-2.4112,-2.4112,-2.3936,-2.3641,-2.333,-2.3271,-2.3138,-2.275,-2.2113,-2.1678,-2.1416,-2.0344,-1.9781,-1.9781,-1.933,-1.9075,-1.9075,-1.9075,-1.9075,-2.3628,-2.3671,0.0,0.0,-2.1811,0.0,-1.9765,0.0,0.0,0.0,0.0,0.0,0.0,0.0,-1.9578,-1.8345,-1.7044,-1.5564,0.0,0.0,0.0,0.0,0.0,0.0,0.0,0.0,-1.487,-1.5802,0.0,0.0,0.0,0.0,-2.0681,-2.0958,-2.0844,-2.0695,-2.0475,-2.0373,-2.0304,-2.0304,-2.0304,-2.0304,-2.0304,-2.0304,-2.0304,-2.035,-2.1029,-2.1692,-2.2332,-2.3025,-2.3702,-2.4302,-2.4302,-2.4302,-2.4302,-2.4302,-2.4302,-2.4317,-2.4208,-2.4223,-2.4166,-2.4024,-2.394,-2.3882,-2.3882,-2.4445,-2.5198,-2.5619,-2.6354,-2.715,-2.757,-2.7625,-2.7509,-2.71,-2.6841,-2.651,-2.5756,-2.555,-2.5272,-2.4563,-2.439,-2.4332,-2.4112,-2.4112,-2.4112,-2.4112,-2.4112,-2.4112,-2.4112,-2.4112,-2.4112,-2.4112,-2.4112,-2.4054,-2.4008,-2.3949,-2.3772,-2.3509,-2.345,-2.339,-2.3258,-2.2616,-2.2237,-2.2237,-2.1049,-2.0484,-2.042,-1.9781,-1.9462,-1.9462,-1.9198,-1.9075]},{"header":{"parameterUnit":"m.s-1","parameterCategory":1,"la1":30.6,"la2":29.2853,"lo1":-89.7004,"lo2":-87.6739,"dy":0.0162,"dx":0.0183,"nx":112,"ny":82,"refTime":"2024-07-03T12:00:00:Z","depth":0,"parameterNumber":3,"parameterNumberName":"V-component_of_WINDS"},"data":[0.0,0.0,0.0,0.0,0.0,0.0,0.0,0.0,0.0,0.0,0.0,0.0,0.0,0.0,0.0,0.0,0.0,0.0,0.0,0.0,0.0,0.0,0.0,0.0,0.0,0.0,0.0,0.0,0.0,0.0,0.0,0.0,0.0,0.0,0.0,0.0,0.0,0.0,0.0,0.0,0.0,0.0,0.0,0.0,0.0,0.0,0.0,0.0,0.0,0.0,0.0,0.0,0.0,0.0,0.0,0.0,0.0,0.0,0.0,0.0,0.0,0.0,0.0,0.0,0.0,0.0,0.0,0.0,0.0,0.0,0.0,0.0,0.0,0.0,0.0,0.0,0.0,0.0,0.0,0.0,0.0,0.0,0.0,0.0,0.0,0.0,0.0,0.0,0.0,0.0,0.0,-1.676,-1.919,-2.0615,-2.0524,-1.9568,-1.7501,-1.3988,0.0,0.0,0.0,0.0,0.0,0.0,0.0,0.0,0.0,0.0,0.0,0.0,0.0,0.0,0.0,0.0,0.0,0.0,0.0,0.0,0.0,0.0,0.0,0.0,0.0,0.0,0.0,0.0,0.0,0.0,0.0,0.0,0.0,0.0,0.0,0.0,0.0,0.0,0.0,0.0,0.0,0.0,0.0,0.0,0.0,0.0,0.0,0.0,0.0,0.0,0.0,0.0,0.0,0.0,0.0,0.0,0.0,0.0,0.0,0.0,0.0,0.0,0.0,0.0,0.0,0.0,0.0,0.0,0.0,0.0,0.0,0.0,0.0,0.0,0.0,0.0,0.0,0.0,0.0,0.0,0.0,0.0,0.0,0.0,0.0,0.0,0.0,0.0,0.0,0.0,0.0,0.0,0.0,0.0,0.0,0.0,0.0,0.0,0.0,0.0,0.0,0.0,0.0,0.0,-1.5645,-1.9834,-2.0863,-2.1087,-2.062,-1.9613,-1.7436,-1.3782,0.0,0.0,0.0,0.0,0.0,0.0,0.0,0.0,0.0,0.0,0.0,0.0,0.0,0.0,0.0,0.0,0.0,0.0,0.0,0.0,0.0,0.0,0.0,0.0,0.0,0.0,0.0,0.0,0.0,0.0,0.0,0.0,0.0,0.0,0.0,0.0,0.0,0.0,0.0,0.0,0.0,0.0,0.0,0.0,0.0,0.0,0.0,0.0,0.0,0.0,0.0,0.0,0.0,0.0,0.0,0.0,0.0,0.0,0.0,0.0,0.0,0.0,0.0,0.0,0.0,0.0,0.0,0.0,0.0,0.0,0.0,0.0,0.0,0.0,0.0,0.0,0.0,0.0,0.0,0.0,0.0,0.0,0.0,0.0,0.0,0.0,0.0,0.0,0.0,0.0,0.0,0.0,0.0,0.0,0.0,0.0,0.0,0.0,0.0,0.0,0.0,0.0,0.0,-1.5047,-1.7435,-2.0795,-2.1983,-2.2103,-2.1018,-2.0247,-1.8142,-1.4185,-1.3669,0.0,0.0,0.0,0.0,0.0,0.0,0.0,0.0,0.0,0.0,0.0,0.0,0.0,0.0,0.0,0.0,0.0,0.0,0.0,0.0,0.0,0.0,0.0,0.0,0.0,0.0,0.0,0.0,0.0,0.0,0.0,0.0,0.0,0.0,0.0,0.0,0.0,0.0,0.0,0.0,0.0,0.0,0.0,0.0,0.0,0.0,0.0,0.0,0.0,0.0,0.0,0.0,0.0,0.0,0.0,0.0,0.0,0.0,0.0,0.0,0.0,0.0,0.0,0.0,0.0,0.0,0.0,0.0,0.0,0.0,0.0,0.0,0.0,0.0,0.0,0.0,0.0,0.0,0.0,0.0,0.0,0.0,0.0,0.0,0.0,0.0,0.0,0.0,0.0,0.0,0.0,0.0,0.0,0.0,0.0,0.0,0.0,0.0,0.0,0.0,0.0,0.0,-1.718,-1.9194,-2.1187,-2.2754,-2.298,-2.1357,-2.059,-1.8495,-1.4486,-1.3525,0.0,0.0,0.0,0.0,0.0,0.0,0.0,0.0,0.0,0.0,0.0,0.0,0.0,0.0,0.0,0.0,0.0,0.0,0.0,0.0,0.0,0.0,0.0,0.0,0.0,0.0,0.0,0.0,0.0,0.0,0.0,0.0,0.0,0.0,0.0,0.0,0.0,0.0,0.0,0.0,0.0,0.0,0.0,0.0,0.0,0.0,0.0,0.0,0.0,0.0,0.0,0.0,0.0,0.0,0.0,0.0,0.0,0.0,0.0,0.0,0.0,0.0,0.0,0.0,0.0,0.0,0.0,0.0,0.0,0.0,0.0,0.0,0.0,0.0,0.0,0.0,0.0,0.0,0.0,0.0,0.0,0.0,0.0,0.0,0.0,0.0,0.0,0.0,0.0,0.0,0.0,0.0,0.0,0.0,0.0,0.0,0.0,0.0,0.0,0.0,0.0,0.0,-1.7943,-2.0654,-2.157,-2.3105,-2.33,-2.1435,-2.0065,-1.777,-1.4246,-1.2753,0.0,0.0,0.0,0.0,0.0,0.0,0.0,0.0,0.0,0.0,0.0,0.0,0.0,0.0,0.0,0.0,0.0,0.0,0.0,0.0,0.0,0.0,0.0,0.0,0.0,0.0,0.0,0.0,0.0,0.0,0.0,0.0,0.0,0.0,0.0,0.0,0.0,0.0,0.0,0.0,0.0,0.0,0.0,0.0,0.0,0.0,0.0,0.0,0.0,0.0,0.0,0.0,0.0,0.0,0.0,0.0,0.0,0.0,0.0,0.0,0.0,0.0,0.0,0.0,0.0,0.0,0.0,0.0,0.0,0.0,0.0,0.0,0.0,0.0,0.0,0.0,0.0,0.0,0.0,0.0,0.0,0.0,0.0,0.0,0.0,0.0,0.0,0.0,0.0,0.0,0.0,0.0,0.0,0.0,0.0,0.0,0.0,0.0,0.0,0.0,0.0,0.0,-1.7573,-2.025,0.0,-2.3067,-2.33,-2.1624,-2.0391,-1.8135,-1.4474,0.0,0.0,0.0,0.0,0.0,0.0,0.0,0.0,0.0,0.0,0.0,0.0,0.0,0.0,0.0,0.0,0.0,0.0,0.0,0.0,0.0,0.0,0.0,0.0,0.0,0.0,0.0,0.0,0.0,0.0,0.0,0.0,0.0,0.0,0.0,0.0,0.0,0.0,0.0,0.0,0.0,0.0,0.0,0.0,0.0,0.0,0.0,0.0,0.0,0.0,0.0,0.0,0.0,0.0,0.0,0.0,0.0,0.0,0.0,0.0,0.0,0.0,0.0,0.0,0.0,0.0,0.0,0.0,0.0,0.0,0.0,0.0,0.0,0.0,0.0,0.0,0.0,0.0,0.0,0.0,0.0,0.0,0.0,0.0,0.0,0.0,0.0,0.0,0.0,0.0,0.0,0.0,0.0,0.0,0.0,0.0,0.0,0.0,0.0,0.0,0.0,0.0,-1.4359,-1.776,-2.0488,0.0,-2.2867,-2.3066,-2.1771,-2.0046,-1.7695,-1.4635,0.0,0.0,0.0,0.0,0.0,0.0,0.0,0.0,0.0,0.0,0.0,0.0,0.0,0.0,0.0,0.0,0.0,0.0,0.0,0.0,0.0,0.0,0.0,0.0,0.0,0.0,0.0,0.0,0.0,0.0,0.0,0.0,0.0,0.0,0.0,0.0,0.0,0.0,0.0,0.0,0.0,0.0,0.0,0.0,0.0,0.0,0.0,0.0,0.0,0.0,0.0,0.0,0.0,0.0,0.0,0.0,0.0,0.0,0.0,0.0,0.0,0.0,0.0,0.0,0.0,0.0,0.0,0.0,0.0,0.0,0.0,0.0,0.0,0.0,0.0,0.0,0.0,0.0,0.0,0.0,0.0,0.0,0.0,0.0,0.0,0.0,0.0,0.0,0.0,0.0,0.0,0.0,0.0,0.0,0.0,0.0,0.0,0.0,0.0,0.0,0.0,0.0,-1.4506,-1.8712,-2.1715,-2.1804,-2.252,-2.2666,-2.1876,-1.8812,-1.623,0.0,0.0,0.0,0.0,0.0,0.0,0.0,0.0,0.0,0.0,0.0,0.0,0.0,0.0,0.0,0.0,0.0,0.0,0.0,0.0,0.0,0.0,0.0,0.0,0.0,0.0,0.0,0.0,0.0,0.0,0.0,0.0,0.0,0.0,0.0,0.0,0.0,0.0,0.0,0.0,0.0,0.0,0.0,0.0,0.0,0.0,0.0,0.0,0.0,0.0,0.0,0.0,0.0,0.0,0.0,0.0,0.0,0.0,0.0,0.0,0.0,0.0,0.0,0.0,0.0,0.0,0.0,0.0,0.0,0.0,0.0,0.0,0.0,0.0,0.0,0.0,0.0,0.0,0.0,0.0,0.0,0.0,0.0,0.0,0.0,0.0,0.0,0.0,0.0,0.0,0.0,0.0,0.0,0.0,0.0,0.0,0.0,0.0,0.0,0.0,0.0,0.0,0.0,-1.527,-1.9124,-2.2006,-2.2593,-2.2813,-2.263,-2.1859,-1.9277,-1.6771,-1.4634,0.0,0.0,0.0,0.0,0.0,0.0,0.0,0.0,0.0,0.0,0.0,0.0,0.0,0.0,0.0,0.0,0.0,0.0,0.0,0.0,0.0,0.0,0.0,0.0,0.0,0.0,0.0,0.0,0.0,0.0,0.0,0.0,0.0,0.0,0.0,0.0,0.0,0.0,0.0,0.0,0.0,0.0,0.0,0.0,0.0,0.0,0.0,0.0,0.0,0.0,0.0,0.0,0.0,0.0,0.0,0.0,0.0,0.0,0.0,0.0,0.0,0.0,0.0,0.0,0.0,0.0,0.0,0.0,0.0,0.0,0.0,0.0,0.0,0.0,0.0,0.0,0.0,0.0,0.0,0.0,0.0,0.0,0.0,0.0,0.0,0.0,0.0,0.0,0.0,0.0,0.0,0.0,0.0,0.0,0.0,0.0,0.0,0.0,0.0,0.0,0.0,0.0,-1.5557,-1.9253,-2.2097,-2.2887,-2.2941,-2.263,-2.1859,-1.9772,-1.7518,-1.5141,0.0,0.0,0.0,0.0,0.0,0.0,0.0,0.0,0.0,0.0,0.0,0.0,0.0,0.0,0.0,0.0,0.0,0.0,0.0,0.0,0.0,0.0,0.0,0.0,0.0,0.0,0.0,0.0,0.0,0.0,0.0,0.0,0.0,0.0,0.0,0.0,0.0,0.0,0.0,0.0,0.0,0.0,0.0,0.0,0.0,0.0,0.0,0.0,0.0,0.0,0.0,0.0,0.0,0.0,0.0,0.0,0.0,0.0,0.0,0.0,0.0,0.0,0.0,0.0,0.0,0.0,0.0,0.0,0.0,0.0,0.0,0.0,0.0,0.0,0.0,0.0,0.0,0.0,0.0,0.0,0.0,0.0,0.0,0.0,0.0,0.0,0.0,0.0,0.0,0.0,0.0,0.0,0.0,0.0,0.0,0.0,0.0,0.0,0.0,0.0,0.0,0.0,-1.572,-1.9329,-2.2098,-2.2923,-2.3015,-2.2666,-2.1876,-2.026,-1.8262,-1.5839,0.0,0.0,0.0,0.0,0.0,0.0,0.0,0.0,0.0,0.0,0.0,0.0,0.0,0.0,0.0,0.0,0.0,0.0,0.0,0.0,0.0,0.0,0.0,0.0,0.0,0.0,0.0,0.0,0.0,0.0,0.0,0.0,0.0,0.0,0.0,0.0,0.0,0.0,0.0,0.0,0.0,0.0,0.0,0.0,0.0,0.0,0.0,0.0,0.0,0.0,0.0,0.0,0.0,0.0,0.0,0.0,0.0,0.0,0.0,0.0,-1.2802,0.0,0.0,0.0,0.0,0.0,0.0,0.0,0.0,0.0,0.0,0.0,0.0,0.0,0.0,0.0,0.0,0.0,0.0,0.0,0.0,0.0,0.0,0.0,0.0,0.0,0.0,0.0,0.0,0.0,0.0,0.0,0.0,0.0,0.0,0.0,0.0,0.0,0.0,0.0,0.0,0.0,-1.7312,-2.0042,-2.2354,-2.3767,-2.3364,-2.2666,-2.1876,-2.026,-1.8262,-1.5839,0.0,0.0,0.0,0.0,0.0,0.0,0.0,0.0,0.0,0.0,0.0,0.0,0.0,0.0,0.0,0.0,0.0,0.0,0.0,0.0,0.0,0.0,0.0,0.0,0.0,0.0,0.0,0.0,0.0,0.0,0.0,0.0,0.0,0.0,0.0,0.0,0.0,0.0,0.0,0.0,0.0,0.0,0.0,0.0,0.0,0.0,0.0,0.0,0.0,0.0,0.0,0.0,0.0,0.0,0.0,0.0,0.0,0.0,0.0,0.0,0.0,-1.3767,0.0,0.0,0.0,0.0,0.0,0.0,0.0,0.0,0.0,0.0,0.0,0.0,0.0,0.0,0.0,0.0,0.0,0.0,0.0,0.0,0.0,0.0,0.0,0.0,0.0,0.0,0.0,0.0,0.0,0.0,0.0,0.0,0.0,0.0,0.0,0.0,0.0,0.0,0.0,0.0,-1.7786,-2.0545,-2.274,-2.3966,-2.3747,-2.3217,-2.2446,-2.1216,-1.9635,-1.7546,-1.5949,0.0,0.0,0.0,0.0,0.0,0.0,0.0,0.0,0.0,0.0,0.0,0.0,0.0,0.0,0.0,0.0,0.0,0.0,0.0,0.0,0.0,0.0,0.0,0.0,0.0,0.0,0.0,0.0,0.0,0.0,0.0,0.0,0.0,0.0,0.0,0.0,0.0,0.0,0.0,0.0,0.0,0.0,0.0,0.0,0.0,0.0,0.0,0.0,0.0,0.0,0.0,0.0,0.0,0.0,0.0,-1.7029,-1.7001,-1.7236,-1.7563,-1.6713,-1.6182,-1.5876,0.0,0.0,0.0,0.0,0.0,0.0,0.0,0.0,0.0,0.0,0.0,0.0,0.0,0.0,0.0,0.0,0.0,0.0,0.0,0.0,0.0,0.0,0.0,0.0,0.0,-1.9247,-1.9036,0.0,0.0,0.0,0.0,0.0,0.0,0.0,0.0,0.0,0.0,0.0,0.0,-1.8216,-2.1006,-2.314,-2.3925,-2.4074,-2.3802,-2.3052,-2.2263,-2.1086,-1.9415,-1.7289,-1.5692,0.0,0.0,0.0,0.0,0.0,0.0,0.0,0.0,0.0,0.0,0.0,0.0,0.0,0.0,0.0,0.0,0.0,0.0,0.0,0.0,0.0,0.0,0.0,0.0,0.0,0.0,0.0,0.0,0.0,0.0,0.0,0.0,-0.8379,-0.8518,0.0,0.0,0.0,0.0,0.0,0.0,0.0,0.0,0.0,0.0,0.0,0.0,0.0,0.0,-1.5848,-1.6924,-1.782,-1.852,-1.9098,-1.9417,-1.9543,-1.939,-1.9435,-1.958,-1.9364,0.0,-1.7389,-1.6946,0.0,0.0,0.0,0.0,0.0,0.0,0.0,0.0,0.0,0.0,0.0,0.0,0.0,0.0,0.0,0.0,0.0,0.0,0.0,0.0,0.0,0.0,-2.1564,-2.1071,-2.1489,-2.1701,0.0,-1.8438,-1.6396,-1.5439,0.0,0.0,0.0,0.0,0.0,0.0,0.0,0.0,-1.9884,-2.1824,-2.3271,-2.402,-2.4151,-2.384,-2.2996,-2.2227,-2.1086,-1.9415,-1.8353,-1.7105,-1.56,-1.4573,0.0,0.0,0.0,0.0,0.0,0.0,0.0,0.0,0.0,0.0,0.0,0.0,0.0,0.0,0.0,0.0,0.0,0.0,0.0,0.0,0.0,0.0,0.0,0.0,0.0,0.0,0.0,0.0,0.0,-0.7926,-0.8792,-0.8718,-0.9199,-0.9336,0.0,0.0,0.0,0.0,0.0,0.0,0.0,0.0,0.0,-1.6196,-1.6894,-1.7775,-1.8857,-1.9728,-2.0349,-2.0746,-2.1036,-2.1151,-2.1113,-2.1076,-2.1016,-2.0941,-2.0903,-2.0421,-1.9575,-1.8562,-1.7755,-1.7086,0.0,0.0,0.0,0.0,0.0,-1.7237,-1.8393,0.0,0.0,0.0,0.0,0.0,0.0,0.0,0.0,0.0,0.0,0.0,0.0,0.0,0.0,-2.1939,-2.2184,-2.2292,-2.1942,-2.0823,-1.9416,0.0,-1.7326,-1.6738,-1.5534,0.0,0.0,0.0,0.0,0.0,-2.0416,-2.217,-2.3392,-2.3738,-2.3917,-2.3908,-2.36,-2.2868,-2.1916,-2.0776,-1.9491,-1.8262,-1.7105,-1.5839,-1.4628,0.0,0.0,0.0,0.0,0.0,0.0,0.0,0.0,0.0,0.0,0.0,0.0,0.0,0.0,0.0,0.0,0.0,0.0,0.0,0.0,0.0,0.0,0.0,0.0,0.0,0.0,0.0,0.0,-0.8851,-0.952,-0.954,-1.0355,-1.0733,0.0,0.0,0.0,0.0,0.0,0.0,-1.5753,-1.583,-1.6725,-1.8748,-1.9161,-1.9987,-2.1235,-2.1449,-2.1729,-2.2002,-2.2002,-2.1979,-2.1916,-2.1916,-2.1838,-2.1719,-2.1695,-2.1613,-2.1383,-2.0066,-1.9241,-1.8761,-1.8568,-1.842,0.0,-1.9239,-1.9551,-1.9738,-2.1044,-2.1475,-2.1295,-2.0204,0.0,-1.9009,-1.7543,0.0,0.0,0.0,0.0,-1.9804,-2.0535,0.0,-2.1769,-2.2286,-2.2405,-2.2394,-2.2338,-2.2338,-2.183,0.0,-1.9729,-1.9114,-1.7475,0.0,0.0,0.0,0.0,-2.0131,-2.092,-2.2433,-2.3422,-2.3392,-2.3649,-2.3876,-2.3937,-2.3304,-2.2557,-2.1823,-2.0411,-1.9237,-1.8445,-1.705,-1.5949,-1.5129,0.0,0.0,0.0,0.0,0.0,0.0,0.0,0.0,0.0,0.0,0.0,0.0,0.0,0.0,0.0,0.0,0.0,0.0,0.0,0.0,0.0,0.0,0.0,0.0,0.0,0.0,0.0,0.0,0.0,-1.1773,-1.3107,0.0,0.0,0.0,0.0,-1.4674,-1.5281,-1.6297,-1.7883,-1.8659,-1.9634,-2.0889,-2.0734,-2.1035,-2.1948,-2.1259,-2.1208,-2.1734,-2.1734,-2.1734,-2.1734,-2.1734,-2.1759,-2.1783,-2.1719,-2.1925,-2.2207,-2.1456,-2.0644,-1.9855,-2.0205,-1.9976,-1.9571,-2.0692,-2.1102,-2.1204,-2.1972,-2.2243,-2.2243,-2.2175,-2.1204,-2.0162,-2.0738,-1.9983,0.0,0.0,-2.1044,-2.1271,-2.2006,-2.2226,-2.2287,-2.2377,-2.2405,-2.2405,-2.2394,-2.2377,-2.2343,0.0,-2.1566,-2.1068,-2.095,0.0,-1.9287,-2.005,-2.0498,-2.1027,-2.1831,-2.2682,-2.3189,-2.3117,-2.3414,-2.3588,-2.3544,-2.3071,-2.2501,-2.1752,-2.091,-2.0085,-1.9271,-1.8427,-1.7587,-1.6798,-1.5203,0.0,0.0,0.0,0.0,0.0,0.0,0.0,0.0,0.0,0.0,0.0,0.0,0.0,0.0,0.0,0.0,0.0,0.0,0.0,0.0,0.0,0.0,0.0,0.0,0.0,0.0,0.0,0.0,-1.3095,-1.394,0.0,0.0,-1.4178,-1.4976,-1.6143,-1.7049,-1.8033,-1.9119,-1.9334,-1.9735,-2.0515,-2.0857,-2.115,-2.1484,-2.2261,-2.2653,-2.2681,-2.2921,-2.3103,-2.3201,-2.3103,-2.3005,-2.2948,-2.2921,-2.2765,-2.2521,-2.2303,-2.2068,-2.1915,-2.2215,-2.2151,-2.202,-2.2675,-2.2945,-2.3009,-2.3536,-2.3714,-2.3714,-2.3714,-2.3371,-2.2982,-2.3282,-2.2994,-2.2671,-2.3214,-2.3367,-2.3388,-2.3646,-2.3714,-2.3727,-2.3744,-2.3757,-2.3638,-2.3134,-2.3033,-2.2897,-2.2395,-2.209,-2.1752,-2.1271,-2.1206,-2.1139,-2.0926,-2.1404,-2.1885,-2.2176,-2.2583,-2.2867,-2.2841,-2.3098,-2.3335,-2.35,-2.2761,-2.2096,-2.1662,-2.0753,-1.9954,-1.9316,-1.902,-1.8251,-1.6927,-1.5839,-1.4224,0.0,0.0,0.0,0.0,0.0,0.0,0.0,0.0,0.0,0.0,0.0,0.0,0.0,0.0,0.0,0.0,0.0,0.0,0.0,0.0,0.0,0.0,0.0,0.0,0.0,0.0,-1.3716,-1.4284,-1.5089,-1.5538,-1.5437,-1.5878,-1.6732,-1.8024,-1.8526,-1.9127,-1.9931,-1.9894,-2.0061,-2.0553,-2.0953,-2.1264,-2.1552,-2.2568,-2.3098,-2.3098,-2.3508,-2.3782,-2.3839,-2.3782,-2.3696,-2.3595,-2.3595,-2.337,-2.2996,-2.3038,-2.3203,-2.3331,-2.3115,-2.3032,-2.3103,-2.3552,-2.3786,-2.3967,-2.4382,-2.4506,-2.4475,-2.4334,-2.4382,-2.4475,-2.4382,-2.443,-2.4506,-2.4554,-2.4523,-2.4506,-2.4506,-2.4506,-2.4506,-2.4506,-2.4506,-2.4388,-2.3866,-2.3765,-2.3613,-2.3139,-2.2649,-2.2141,-2.1661,-2.1972,-2.2124,-2.1627,-2.1972,-2.231,-2.231,-2.246,-2.2569,-2.2569,-2.2799,-2.3042,-2.32,-2.2539,-2.2018,-2.1838,-2.077,-1.9993,-1.9705,-1.9125,-1.8319,-1.7312,-1.6243,-1.4903,-1.3306,0.0,0.0,0.0,0.0,0.0,0.0,0.0,0.0,0.0,0.0,0.0,0.0,0.0,0.0,0.0,0.0,0.0,0.0,0.0,0.0,0.0,0.0,0.0,-1.2788,-1.3911,-1.4944,-1.5474,-1.6731,-1.7584,-1.776,-1.8004,-1.8719,-2.0146,-1.969,-1.9628,-2.0244,-2.0443,-2.074,-2.1271,-2.1125,-2.145,-2.2278,-2.2184,-2.2417,-2.2902,-2.3393,-2.3655,-2.3655,-2.367,-2.3655,-2.3655,-2.3655,-2.3655,-2.3625,-2.3769,-2.3912,-2.3903,-2.2933,-2.258,-2.2713,-2.3183,-2.3583,-2.4,-2.4418,-2.4512,-2.4481,-2.4066,-2.4195,-2.4481,-2.4066,-2.4243,-2.4543,-2.456,-2.4574,-2.4574,-2.4574,-2.4574,-2.4574,-2.4574,-2.4574,-2.4574,-2.4557,-2.454,-2.454,-2.4506,-2.3342,-2.2361,-2.2344,-2.2327,-2.231,-2.231,-2.231,0.0,-2.231,-2.231,-2.231,-2.231,-2.2525,-2.2712,-2.2712,-2.2459,-2.2271,-2.2257,-2.0945,-2.0282,-2.0474,-1.8794,-1.7957,-1.8119,-1.6573,-1.5747,-1.5729,0.0,0.0,0.0,0.0,0.0,0.0,0.0,0.0,0.0,0.0,0.0,0.0,0.0,0.0,0.0,0.0,0.0,0.0,0.0,0.0,0.0,0.0,-1.4505,-1.4505,-1.5309,-1.614,-1.6663,-1.7437,-1.7797,-1.7404,-1.8332,-1.8955,-1.8922,-1.9719,-2.0159,-2.0146,-2.0616,-2.1042,-2.1456,-2.178,-2.2062,-2.2375,-2.3041,-2.3342,-2.3192,-2.4014,-2.4443,-2.4552,-2.4908,-2.5061,-2.5061,-2.5061,-2.4777,-2.4343,-2.4447,-2.4249,-2.3852,-2.3738,-2.3748,-2.3894,-2.4295,-2.4697,-2.5065,-2.5173,-2.5209,-2.5209,-2.5102,-2.5138,-2.5245,-2.5421,-2.5577,-2.5714,-2.6016,-2.6082,-2.6082,-2.6082,-2.6082,-2.6082,-2.6082,-2.6082,-2.5947,-2.5406,-2.5304,-2.5135,-2.4594,-2.4154,-2.3714,-2.319,-2.2649,-2.231,-2.231,0.0,0.0,-2.231,-2.231,-2.2377,-2.2569,-2.2659,-2.2773,-2.2985,-2.2244,-2.1634,0.0,-2.03,-1.9891,-2.0192,-1.9723,-1.9236,-1.8759,-1.7881,-1.716,0.0,0.0,0.0,0.0,0.0,0.0,0.0,0.0,0.0,0.0,0.0,0.0,0.0,0.0,0.0,0.0,0.0,0.0,0.0,0.0,0.0,0.0,-1.4761,-1.5763,-1.6022,-1.6439,-1.6937,-1.7512,-1.7891,-1.8153,-1.8283,-1.9035,-1.9496,-1.9357,-2.0332,-2.0851,-2.0703,-2.127,-2.1694,-2.1877,-2.218,-2.2379,-2.2415,-2.3187,-2.3447,-2.3239,-2.3997,-2.4531,-2.4839,-2.5096,-2.5349,0.0,-2.5615,-2.539,-2.5031,-2.5092,-2.4957,0.0,0.0,0.0,0.0,0.0,-2.5059,-2.5275,-2.5427,-2.5503,-2.5465,-2.5313,-2.5351,-2.554,-2.5799,-2.598,-2.6158,-2.659,-2.6691,-2.6691,-2.6691,-2.6691,-2.6691,-2.6691,-2.6691,-2.6573,-2.615,-2.6065,-2.593,-2.549,0.0,0.0,-2.4391,-2.3714,-2.3122,-2.2818,-2.2767,-2.2649,0.0,-2.231,-2.2366,-2.2515,-2.2542,-2.2605,-2.273,-2.2021,0.0,0.0,0.0,-1.9984,-1.9969,-2.0155,0.0,0.0,0.0,0.0,0.0,0.0,0.0,0.0,-1.8408,-1.8592,0.0,0.0,0.0,0.0,0.0,0.0,0.0,0.0,0.0,0.0,0.0,0.0,0.0,0.0,0.0,0.0,-1.6035,-1.6754,-1.7238,-1.7356,-1.7565,-1.8048,-1.8218,-1.8662,-1.9616,-1.9891,-2.0178,-2.0673,-2.125,-2.1616,-2.1603,0.0,0.0,0.0,0.0,-2.2612,-2.2612,-2.3031,-2.3231,-2.3245,-2.381,-2.436,-2.4846,-2.4945,-2.5316,-2.5839,-2.5839,-2.5794,-2.5719,-2.5719,-2.5783,-2.5742,-2.4691,-2.4273,-2.4342,-2.467,-2.4839,0.0,0.0,0.0,0.0,-2.4942,-2.5082,-2.5389,-2.5465,-2.5762,-2.6139,-2.6573,-2.6691,-2.6691,-2.6691,-2.6691,-2.6691,-2.6691,-2.6691,-2.6691,-2.6691,-2.6691,-2.6691,-2.6691,-2.6167,-2.5727,-2.5727,-2.5033,-2.4286,-2.3613,-2.3444,0.0,-2.2513,-2.2361,-2.231,-2.2338,0.0,0.0,-2.2338,-2.1901,-2.1901,-2.2487,-2.1354,-2.0468,-2.0017,-2.0572,-2.0838,-2.0692,-2.0818,-2.1236,-2.195,-2.274,-2.2776,-2.2023,-1.9803,-1.9913,0.0,0.0,0.0,0.0,0.0,0.0,0.0,0.0,0.0,0.0,0.0,0.0,0.0,0.0,0.0,-1.5643,-1.6902,-1.78,-1.7904,-1.8296,-1.8453,-1.814,-1.8911,-1.9368,-1.9107,-2.0348,-2.1041,-2.0725,-2.1642,-2.223,-2.2258,-2.2753,0.0,-2.3067,-2.3524,-2.3772,-2.3772,-2.3887,-2.3887,-2.3945,0.0,0.0,-2.5646,-2.6601,-2.7086,-2.7186,-2.7186,-2.6901,-2.6393,-2.6504,-2.6346,-2.5894,-2.515,-2.4859,-2.4869,-2.4476,-2.4359,-2.4426,-2.4492,-2.4533,-2.4533,-2.4451,-2.4451,-2.4639,-2.5313,-2.554,0.0,-2.6505,-2.6691,-2.6691,-2.6691,-2.6691,-2.6691,-2.6691,-2.6691,-2.6691,-2.6691,-2.6691,-2.6691,-2.6691,-2.6573,-2.6488,-2.6488,-2.5372,-2.4455,-2.432,-2.3765,-2.3342,-2.3207,-2.2682,-2.2377,-2.2605,-2.2605,-2.2605,-2.2605,-2.2521,-2.2176,-2.1521,-2.1625,-2.1569,-2.1253,-2.2578,-2.2837,-2.1807,-2.2841,-2.3198,-2.2776,-2.3584,-2.3896,-2.3712,-2.3235,-2.2923,0.0,0.0,0.0,0.0,0.0,0.0,0.0,0.0,0.0,0.0,0.0,-1.2711,-1.3948,0.0,-1.6235,-1.6912,-1.7844,-1.8506,-1.8506,-1.8989,-1.9251,-1.8989,-1.946,-1.9799,-1.9786,-2.0832,-2.1394,-2.1106,-2.2165,-2.2805,-2.2792,-2.3354,-2.3668,-2.3668,-2.3955,-2.4112,-2.4112,-2.4112,-2.4112,-2.4112,-2.4664,-2.509,-2.5425,-2.6283,-2.6864,-2.7152,-2.7473,-2.738,-2.7081,-2.718,-2.7048,-2.6736,-2.6166,-2.5819,-2.5618,-2.5385,-2.5305,-2.5318,-2.5349,-2.5118,-2.481,-2.481,-2.4579,-2.441,-2.502,-2.5198,-2.5313,-2.5908,-2.6104,-2.6139,-2.6367,-2.6401,-2.647,-2.6657,-2.6691,-2.6691,-2.6691,-2.6691,-2.6691,-2.6691,-2.6691,-2.6691,-2.6691,-2.6082,-2.5473,-2.5101,-2.4746,-2.4374,-2.3985,-2.3308,-2.2909,-2.3033,-2.2737,-2.2515,-2.2515,-2.2515,-2.2307,-2.1769,-2.2134,-2.2335,-2.226,-2.3254,-2.3533,-2.2948,-2.3737,-2.3969,-2.3602,-2.4006,-2.419,-2.419,-2.419,-2.419,0.0,0.0,0.0,0.0,0.0,0.0,0.0,0.0,-1.0686,-1.1916,-1.2773,-1.3741,-1.5293,-1.6344,-1.7234,-1.8109,-1.8715,-1.9081,-1.9081,-1.959,-1.9969,-1.9969,-1.9969,-2.0191,-2.0817,-2.1342,-2.1721,-2.1838,-2.2805,-2.3393,-2.3393,-2.3851,-2.4112,-2.4112,-2.4112,-2.4112,-2.4112,-2.4112,-2.4112,-2.4112,-2.4229,-2.4549,-2.516,-2.5742,-2.6283,-2.6893,-2.7408,-2.7625,-2.7625,-2.7625,-2.7625,-2.7565,-2.7154,-2.6819,-2.6489,-2.6382,-2.6304,-2.6334,-2.6364,-2.601,-2.5518,-2.5518,-2.5056,-2.457,-2.4948,-2.5013,-2.4981,-2.5389,-2.5503,-2.5577,-2.5997,-2.6104,-2.621,-2.6607,-2.6691,-2.6691,-2.6691,-2.6691,-2.6691,-2.6691,-2.6691,-2.6691,-2.6691,-2.6691,-2.6488,-2.5913,-2.5693,-2.5389,-2.478,-2.4052,-2.3562,-2.341,-2.2868,-2.2462,-2.2327,-2.231,-2.231,-2.231,-2.2569,-2.2721,-2.2807,-2.3294,-2.3628,-2.3692,-2.4016,-2.419,-2.419,-2.419,-2.4281,-2.4428,-2.4428,-2.4777,-0.6382,-0.7462,-0.8549,-0.9664,-0.9973,-1.0651,0.0,0.0,-1.2907,-1.4247,-1.4796,-1.5428,-1.6747,-1.7238,-1.7741,-1.8669,-1.9316,-1.9708,-1.9708,-2.0191,-2.0607,-2.0607,-2.0607,-2.083,-2.1355,-2.193,-2.2479,-2.2988,-2.3642,-2.4021,-2.4021,-2.4073,-2.4112,-2.4112,-2.4112,-2.4112,-2.4112,-2.4112,-2.4112,-2.4112,-2.462,-2.5147,-2.5742,-2.6351,-2.693,-2.7509,-2.7575,-2.7625,-2.7625,-2.7625,-2.7625,-2.761,-2.7665,-2.7689,-2.7478,-2.6426,-2.6153,-2.6289,-2.6214,-2.6228,-2.6272,-2.6272,-2.578,-2.528,-2.567,-2.5352,-2.4981,-2.5389,-2.5503,-2.5577,-2.5997,-2.6104,-2.621,-2.6607,-2.6691,-2.6691,-2.6691,-2.6691,-2.6691,-2.6691,-2.6691,-2.6691,-2.6691,-2.6691,-2.6657,-2.659,-2.6031,-2.5575,-2.549,-2.4831,-2.412,-2.346,-2.3325,-2.3004,-2.2361,-2.231,-2.231,-2.231,-2.2569,-2.2632,-2.246,-2.3129,-2.3459,-2.3369,-2.3837,-2.4151,-2.419,-2.419,-2.4557,-2.5274,-2.5274,-2.5311,-0.854,-0.9403,0.0,0.0,-1.1603,-1.2037,-1.3146,-1.3107,-1.3224,-1.4427,-1.4744,-1.521,-1.6465,-1.7305,-1.805,0.0,-1.9695,-2.0296,-2.0296,-2.0555,-2.0699,-2.0699,-2.0699,-2.0935,-2.1459,-2.2034,-2.2596,-2.3171,-2.3772,-2.4112,-2.4112,-2.4112,-2.4112,-2.4112,-2.4439,-2.4609,-2.4609,-2.4609,-2.4609,-2.4609,-2.449,-2.4607,-2.4821,-2.5425,-2.619,-2.71,-2.7458,-2.7625,-2.7625,-2.7625,-2.7625,-2.7625,-2.774,-2.779,-2.773,-2.7319,-2.7202,-2.7298,-2.7345,-2.7148,-2.6873,-2.698,-2.6503,-2.5978,-2.6106,-2.5652,-2.5165,-2.5356,-2.5098,-2.4902,-2.5313,-2.5577,-2.5835,-2.6245,-2.6539,-2.6691,-2.6691,-2.6691,-2.6691,-2.6691,-2.6691,-2.6691,-2.6691,-2.6691,-2.6691,-2.6691,-2.6437,-2.6234,-2.6234,-2.5592,-2.4847,-2.4103,-2.3646,-2.3274,-2.297,-2.2547,-2.231,-2.231,-2.2422,-2.2432,-2.2405,-2.2807,-2.3117,-2.33,-2.3671,-2.3976,-2.419,-2.4667,-2.5072,-2.5421,-2.5878,-2.6337,-0.9925,0.0,0.0,-1.2152,-1.2748,-1.3068,-1.3068,-1.3068,-1.3299,-1.4068,-1.4422,-1.4915,-1.6058,-1.7045,-1.8016,-1.8942,-1.9755,-2.0416,-2.0686,-2.0699,-2.0699,-2.0699,-2.0699,-2.0935,-2.1459,-2.2034,-2.2596,-2.3171,-2.3772,-2.4112,-2.4112,-2.4112,-2.4191,-2.4347,-2.4753,-2.504,-2.5197,-2.521,-2.521,-2.5197,-2.4779,-2.455,-2.4614,-2.5172,-2.6028,-2.6997,-2.7408,-2.7625,-2.7625,-2.7625,-2.7625,-2.7625,-2.7725,-2.774,-2.774,-2.784,-2.7955,-2.8054,-2.8137,-2.788,-2.7563,-2.7625,-2.7211,-2.6657,-2.6626,-2.6149,-2.5564,-2.5379,-2.4964,-2.4616,-2.4846,-2.5137,-2.5427,-2.5835,-2.6245,-2.6539,-2.6539,-2.6624,-2.6691,-2.6691,-2.6691,-2.6691,-2.6691,-2.6691,-2.6691,-2.6691,-2.6691,-2.6691,-2.6691,-2.6065,-2.5406,-2.4847,-2.4137,-2.3613,-2.341,-2.2919,-2.253,-2.2327,-2.231,-2.2338,-2.2394,-2.259,-2.2848,-2.32,-2.3737,-2.4161,-2.4423,-2.5307,-2.5862,-2.6082,-2.6649,-2.7365,0.0,0.0,-1.2387,-1.2463,-1.3036,-1.36,-1.36,-1.36,-1.36,-1.361,-1.4212,-1.4982,-1.5905,-1.6572,-1.7508,-1.9278,-1.9436,-1.9667,-2.057,-2.0699,-2.0699,-2.0699,-2.0699,-2.0935,0.0,-2.2034,-2.2596,-2.3171,-2.3772,-2.4112,-2.4112,-2.4112,-2.4374,-2.4922,-2.5022,-2.5236,-2.5785,-2.5798,-2.5798,-2.5798,-2.5785,-2.5765,-2.5792,-2.6392,-2.6997,-2.7575,-2.7575,-2.7625,-2.7625,-2.7625,-2.7625,-2.7625,-2.7625,-2.7625,-2.7625,-2.7625,-2.7875,-2.8186,-2.8054,-2.8152,-2.8365,-2.8381,-2.7919,-2.7365,-2.7365,-2.6888,-2.6211,-2.5518,-2.5302,-2.5203,-2.4957,-2.4902,-2.502,-2.5427,-2.5835,-2.6139,-2.6139,-2.6419,-2.6691,-2.6691,-2.6691,-2.6691,-2.6691,-2.6691,-2.6691,-2.6691,-2.6691,-2.6691,-2.6691,-2.6065,-2.5592,-2.5575,-2.4898,-2.4201,-2.346,-2.3376,-2.3054,-2.2361,-2.231,-2.2338,-2.2394,-2.259,-2.2807,-2.302,-2.4241,-2.491,-2.4994,-2.6048,-2.6961,-2.7714,-2.775,-2.8191,0.0,0.0,-1.2609,-1.3077,-1.3412,-1.3621,-1.3621,-1.3621,-1.3621,-1.3621,-1.38,-1.4208,-1.4911,-1.5508,-1.648,-1.8244,-1.9032,-1.9864,-2.1081,-2.1446,-2.155,-2.1263,-2.1577,0.0,0.0,0.0,0.0,-2.3145,-2.3406,-2.3694,-2.4099,-2.4112,-2.4387,-2.5009,-2.5341,-2.5811,-2.6386,-2.6386,-2.6386,-2.6386,-2.6007,-2.5782,-2.5792,-2.6396,-2.6787,-2.7032,-2.7432,-2.7625,-2.7625,-2.7625,-2.7625,-2.7625,-2.7625,-2.7625,-2.7625,-2.7625,-2.7725,-2.794,-2.789,-2.7955,-2.8039,-2.8201,-2.8082,-2.7962,-2.8025,-2.7596,-2.7011,-2.6765,-2.638,-2.5901,-2.5319,-2.5352,-2.5471,-2.5171,-2.5427,-2.5762,-2.6052,-2.621,-2.6385,-2.6657,-2.6691,-2.6691,-2.6691,-2.6691,-2.6691,-2.6691,-2.6691,-2.6691,-2.6691,-2.6471,-2.6336,-2.6336,-2.5676,-2.5135,-2.4881,-2.4408,-2.4002,-2.3765,-2.3748,-2.3778,-2.3808,-2.3862,-2.4047,-2.4316,-2.4787,-2.523,-2.5677,-2.6649,-2.7374,-2.7805,-2.8356,-2.8741,-1.249,-1.2859,-1.3067,-1.3697,-1.3859,-1.3859,-1.3859,-1.3734,-1.3621,-1.3621,-1.3627,-1.3786,-1.4354,-1.4867,-1.5719,-1.7315,-1.8561,-1.9722,-2.095,-2.1673,-2.2014,-2.1851,-2.2165,-2.2256,0.0,0.0,0.0,-2.3145,-2.342,-2.3799,-2.4387,-2.4426,-2.4779,-2.555,-2.5942,-2.6399,-2.6974,-2.6987,-2.6987,-2.6974,-2.6399,-2.6364,-2.6746,-2.674,-2.6933,-2.7417,-2.7536,-2.7625,-2.7625,-2.7625,-2.7625,-2.7625,-2.7625,-2.7625,-2.7625,-2.7625,-2.7625,-2.774,-2.779,-2.784,-2.789,-2.8039,-2.8137,-2.8235,-2.8299,-2.8056,-2.7703,-2.7457,-2.7088,-2.658,-2.5887,-2.5703,-2.5587,-2.5149,-2.5346,-2.5722,-2.5989,-2.648,-2.6889,-2.6837,-2.6977,-2.7012,-2.6742,-2.6691,-2.6691,-2.6691,-2.6691,-2.6691,-2.6691,-2.6691,-2.6691,-2.6691,-2.6285,-2.5896,-2.5625,-2.5169,-2.4763,-2.4523,-2.4506,-2.4506,-2.4506,-2.4506,-2.4688,-2.5023,-2.5453,-2.5915,-2.6465,-2.7441,-2.8044,-2.8246,-2.8778,-2.8994,-1.2543,-1.3097,-1.3765,-1.4221,-1.4324,-1.4304,-1.4304,-1.3952,-1.361,-1.3589,-1.3595,-1.3783,-1.422,0.0,-1.5175,-1.6557,-1.7956,-1.9244,-2.0329,-2.1453,-2.2234,0.0,0.0,0.0,0.0,0.0,0.0,-2.3302,0.0,-2.4387,-2.4988,-2.5014,-2.5524,-2.6634,-2.6674,-2.6948,-2.7523,-2.7523,-2.7523,-2.7523,-2.6974,-2.7377,-2.8484,-2.7339,-2.7478,-2.8599,-2.7979,-2.77,-2.7619,-2.7619,-2.7655,-2.7625,-2.7625,-2.7625,-2.7625,-2.7625,-2.7625,-2.7625,-2.774,-2.7905,-2.8005,-2.802,-2.8103,-2.8186,-2.8186,-2.8299,-2.8273,-2.7626,-2.7442,-2.7288,-2.6611,-2.5933,-2.541,-2.5379,-2.5648,-2.591,-2.5952,-2.7187,-2.8048,-2.7304,-2.752,-2.7621,-2.6826,-2.6725,-2.6742,-2.6708,-2.6691,-2.6691,-2.6691,-2.6691,-2.6691,-2.6691,-2.6691,-2.642,-2.5727,-2.5659,-2.5355,-2.4675,-2.4625,-2.4625,-2.4625,-2.4625,-2.4808,-2.5161,-2.6198,-2.6908,-2.7319,-2.8361,-2.8905,-2.8994,-2.8994,-2.9012,-1.3631,-1.3996,-1.4242,-1.4707,-1.4562,-1.4304,-1.4304,-1.3952,-1.3517,-1.3176,-1.3101,-1.3034,-1.2868,0.0,0.0,-1.6091,-1.7704,0.0,-2.1419,-2.2747,0.0,-2.3054,0.0,-2.4151,-2.372,-2.4439,0.0,0.0,-2.4504,-2.4557,-2.555,-2.5615,-2.5942,-2.6661,-2.6674,-2.6948,-2.7523,-2.7523,-2.7523,-2.7523,-2.7379,-2.7748,-2.8466,-2.8177,-2.848,-2.9229,-2.9124,-2.8786,-2.8338,-2.8338,-2.8038,-2.7625,-2.7625,-2.7625,-2.7625,-2.7625,-2.7625,-2.7625,-2.7625,-2.774,-2.7855,-2.7955,-2.8103,-2.8235,-2.8299,-2.8348,-2.8365,-2.8196,-2.815,-2.7996,-2.7319,-2.7011,-2.6734,-2.6241,-2.6192,-2.6352,-2.6623,-2.7329,-2.7882,-2.7976,-2.836,-2.8264,-2.6928,-2.7165,-2.7334,-2.6776,-2.6691,-2.6691,-2.6691,-2.6691,-2.6691,-2.6691,-2.6691,-2.6623,-2.6437,-2.642,-2.6336,-2.615,-2.6133,-2.6133,-2.6133,-2.6133,-2.6199,-2.6279,-2.6661,-2.7135,-2.768,-2.8058,-2.8456,-2.8929,-2.8994,-2.9305,-1.4169,-1.4604,-1.4925,-1.4987,-1.48,-1.45,-1.4097,-1.3652,-1.3124,-1.2461,-1.2327,0.0,-1.1758,0.0,0.0,0.0,0.0,0.0,-2.1062,-2.2539,-2.3476,0.0,-2.4413,0.0,-2.4517,-2.5301,-2.5929,0.0,-2.5367,-2.5249,-2.6151,-2.619,-2.6465,-2.7027,-2.7053,-2.721,-2.7523,-2.7523,-2.7523,-2.7523,-2.7523,-2.8026,-2.8953,-2.8627,-2.9009,-2.994,0.0,-2.9205,-2.8607,-2.8607,-2.8188,-2.7625,-2.7625,-2.7625,-2.7625,-2.7625,-2.7625,-2.7625,-2.7625,-2.7675,-2.779,-2.784,-2.794,-2.8152,-2.8201,-2.8314,-2.8411,-2.8411,-2.8411,-2.8319,-2.7934,-2.7626,-2.7303,-2.6919,-2.6826,-2.6917,-2.7128,-2.7775,-2.8404,-2.8711,-2.8879,-2.874,-2.7841,-2.7774,-2.7637,-2.7249,-2.6911,-2.6691,-2.6691,-2.6691,-2.6691,-2.6691,-2.6691,-2.6691,-2.6691,-2.6691,-2.6691,-2.6691,-2.6691,-2.6691,-2.6691,-2.6691,-2.6758,-2.6923,-2.6973,-2.7321,-2.7964,-2.8047,-2.8378,-2.8905,-2.8929,-2.919,-1.4386,-1.5028,-1.5597,-1.5194,-1.5038,-1.4749,-1.3828,-1.3207,-1.2586,-1.1675,0.0,-1.1281,-1.086,-1.1869,-1.2995,-1.3806,0.0,-1.8712,-2.0254,-2.1825,-2.3116,-2.3989,-2.4687,-2.5079,-2.5079,-2.5667,-2.6255,-2.6752,-2.6334,-2.6269,-2.6765,-2.6791,-2.7013,-2.751,-2.7523,-2.7523,-2.7523,-2.7523,-2.7523,-2.7523,-2.7523,-2.8208,-2.949,-2.8895,-2.9375,-3.0612,0.0,0.0,-2.8727,-2.8727,-2.8278,-2.7625,-2.7625,-2.7625,-2.7625,-2.7625,-2.7625,-2.7625,-2.7625,-2.7675,-2.774,-2.7675,-2.779,-2.8005,-2.8005,-2.8201,-2.8411,-2.8411,-2.8411,-2.8411,-2.8411,-2.7965,-2.7534,-2.7534,-2.7534,-2.7534,-2.7534,-2.8419,-2.923,-2.9387,-2.9353,-2.9211,-2.9008,-2.8416,-2.7943,-2.7806,-2.7182,-2.6691,-2.6691,-2.6691,-2.6691,-2.6691,-2.6691,-2.6691,-2.6691,-2.6691,-2.6691,-2.6691,-2.6691,-2.6691,-2.6691,-2.6691,-2.6825,-2.7117,-2.7117,-2.7457,-2.8129,-2.8129,-2.8386,-2.8863,-2.8905,-2.9038,-1.4769,-1.5277,-1.567,-1.5587,-1.5277,-1.4749,-1.3828,-1.2979,0.0,0.0,-1.0695,-1.0407,-1.0334,-1.0833,-1.2098,-1.4704,0.0,0.0,0.0,0.0,-2.323,0.0,0.0,0.0,0.0,0.0,0.0,0.0,0.0,0.0,-2.7379,-2.7379,-2.7419,-2.7523,-2.7523,-2.7523,-2.7523,-2.7523,-2.7523,-2.7523,-2.7523,-2.8208,-2.9504,-2.9392,-3.0036,-3.1287,0.0,0.0,-2.9415,-2.9415,-2.8682,-2.7625,-2.7625,-2.7625,-2.7625,-2.7625,-2.7625,-2.7625,-2.7625,-2.7625,-2.7625,-2.774,-2.794,-2.8186,-2.8186,-2.8299,-2.8411,-2.8411,-2.8411,-2.8411,-2.8411,-2.8319,-2.8227,-2.8227,-2.8227,-2.8227,-2.8227,-2.8965,-2.9626,-2.9428,-3.0174,-3.0429,-2.9231,-2.8873,-2.8569,-2.7891,-2.7182,-2.6691,-2.6691,-2.6691,-2.6691,-2.6691,-2.6691,-2.6691,-2.6691,-2.6691,-2.6691,-2.6691,-2.6691,-2.6691,-2.6691,-2.6691,-2.6725,-2.6791,-2.6791,-2.7132,-2.78,-2.784,-2.8174,-2.8743,-2.8858,-2.9619,-1.4873,-1.5339,-1.5628,-1.539,-1.5163,-1.4635,-1.3227,0.0,0.0,0.0,-0.9994,-0.9695,-0.9253,0.0,0.0,0.0,0.0,0.0,0.0,0.0,0.0,0.0,0.0,0.0,0.0,0.0,0.0,0.0,0.0,0.0,-2.7523,-2.7523,-2.7523,-2.7523,-2.7523,-2.7523,-2.7523,-2.7523,-2.7523,-2.7523,-2.7523,-2.8208,-2.9504,-2.9504,-3.0208,-3.1452,0.0,0.0,-2.9549,-2.9205,-2.8487,-2.7625,-2.7625,-2.7625,-2.7625,-2.7625,-2.7625,-2.7625,-2.7625,-2.7625,-2.7625,-2.7675,-2.784,-2.7989,-2.7989,-2.8103,-2.8217,-2.8299,-2.8299,-2.8299,-2.8396,-2.8411,-2.8411,-2.8411,-2.8411,-2.8411,-2.8411,-2.8967,-2.9476,-2.9571,-2.9947,-3.013,-2.9648,-2.8907,-2.8247,-2.784,-2.7182,-2.6691,-2.6691,-2.6691,-2.6691,-2.6691,-2.6691,-2.6691,-2.6691,-2.6691,-2.6691,-2.6691,-2.6691,-2.6691,-2.6691,-2.6691,-2.6691,-2.6691,-2.6691,-2.6939,-2.743,-2.7654,-2.7982,-2.8456,-2.8718,-2.9503,-1.4873,-1.5339,-1.5577,-1.5111,-1.4997,-1.4521,-1.2723,-1.1871,0.0,0.0,-0.9355,-0.9035,-0.8456,0.0,-1.1142,0.0,0.0,0.0,0.0,0.0,0.0,0.0,0.0,0.0,0.0,0.0,0.0,0.0,0.0,0.0,0.0,-2.7523,-2.7523,-2.7523,-2.7523,-2.7523,-2.7523,-2.7523,-2.7523,-2.7523,-2.7656,-2.8338,-2.9504,-2.9628,-3.0389,-3.1437,0.0,0.0,0.0,-2.8876,-2.8188,-2.7625,-2.7625,-2.7625,-2.7625,-2.7625,-2.7625,-2.7625,-2.7625,-2.7625,-2.7625,-2.7625,-2.7675,-2.779,-2.779,-2.7905,-2.8005,-2.8152,-2.8137,-2.8186,-2.8299,-2.8348,-2.8348,-2.8348,-2.8363,-2.8314,-2.8348,-2.8732,-2.9212,-2.9705,-2.9697,-2.9769,-3.0251,-2.9076,-2.8129,-2.8281,-2.7537,-2.6945,-2.6945,-2.6945,-2.6877,-2.6708,-2.6691,-2.6691,-2.6691,-2.6691,-2.6691,-2.6691,-2.6691,-2.6691,-2.6691,-2.6691,-2.6691,-2.6691,-2.6691,-2.6858,-2.7213,-2.7444,-2.7783,-2.8183,-2.8688,-2.9435,-1.4873,-1.5339,-1.5577,-1.5111,-1.4997,-1.4521,-1.2723,0.0,0.0,-0.9705,-0.886,-0.8415,-0.8787,-0.9584,-1.0794,0.0,0.0,-1.607,0.0,0.0,0.0,0.0,0.0,0.0,0.0,0.0,0.0,0.0,0.0,0.0,0.0,-2.7523,-2.7523,-2.7523,-2.7523,-2.7523,-2.7523,-2.7523,-2.7523,-2.7523,-2.8105,-2.8776,-2.9504,-3.0133,-3.0837,-3.1437,0.0,0.0,0.0,-2.8876,-2.8188,-2.7625,-2.7625,-2.7625,-2.7625,-2.7625,-2.7625,-2.7625,-2.7625,-2.7625,-2.7625,-2.7625,-2.7675,-2.779,-2.779,-2.7905,-2.802,-2.8005,-2.8005,-2.8054,-2.8186,-2.8235,-2.8235,-2.8235,-2.8152,-2.8054,-2.8186,-2.859,-2.909,-2.9677,-3.0117,-3.0558,-3.101,-2.9854,-2.911,-2.9803,-2.8653,-2.7688,-2.7688,-2.7688,-2.7452,-2.6776,-2.6691,-2.6691,-2.6691,-2.6691,-2.6691,-2.6691,-2.6691,-2.6691,-2.6691,-2.6691,-2.6691,-2.6691,-2.6691,-2.6858,-2.7213,-2.7244,-2.7547,-2.8147,-2.8963,-2.9927,-1.4376,-1.4718,-1.4811,-1.4624,-1.4583,-1.4169,-1.2661,0.0,-1.064,-0.9695,-0.8787,-0.8332,-0.8828,-0.9361,-1.0349,-1.2234,-1.3244,-1.4791,-1.7673,0.0,0.0,0.0,0.0,0.0,0.0,0.0,0.0,0.0,0.0,0.0,0.0,-2.7523,-2.7523,-2.7523,-2.7523,-2.7523,-2.7523,-2.7523,-2.7723,-2.8105,-2.8352,-2.903,-3.0133,-2.9939,-3.025,-3.0851,0.0,0.0,0.0,-2.8263,-2.7814,-2.7625,-2.7625,-2.7625,-2.7625,-2.7625,-2.7625,-2.7625,-2.7625,-2.7625,-2.7625,-2.7625,-2.7625,-2.7675,-2.7675,-2.774,-2.779,-2.7855,-2.7905,-2.7905,-2.8054,-2.8103,-2.8103,-2.8103,-2.8054,-2.8005,-2.8054,-2.8284,-2.8716,-2.9512,-2.9567,-2.9667,-3.0415,-2.9668,-2.9076,-2.9381,-2.8907,-2.8349,-2.784,-2.7789,-2.7537,-2.6776,-2.6691,-2.6691,-2.6691,-2.6691,-2.6691,-2.6691,-2.6691,-2.6691,-2.6691,-2.6691,-2.6691,-2.6691,-2.6691,-2.6758,-2.6891,-2.7085,-2.7413,-2.7886,-2.8923,-3.0007,-1.3848,-1.42,-1.4304,-1.4304,-1.4304,-1.3952,0.0,-1.1591,-1.0629,-0.9695,-0.8787,-0.8332,-0.8828,-0.9329,-1.0196,-1.175,-1.273,-1.4149,-1.6584,-1.7446,0.0,0.0,0.0,0.0,0.0,0.0,0.0,0.0,0.0,0.0,0.0,0.0,-2.7523,-2.7523,-2.7523,-2.7523,-2.7523,-2.7723,-2.8039,-2.8468,-2.8917,-2.9594,-3.0495,-3.0032,-3.0041,0.0,0.0,0.0,0.0,-2.7859,-2.7625,-2.7625,-2.7625,-2.7625,-2.7625,-2.7625,-2.7625,-2.7625,-2.7625,-2.7625,-2.7625,-2.7625,-2.7625,-2.7625,-2.7625,-2.7625,-2.7625,-2.7725,-2.779,-2.784,-2.7905,-2.7955,-2.7955,-2.7955,-2.7905,-2.7905,-2.7905,-2.8005,-2.835,-2.9361,-2.9198,-2.9202,-3.0219,-2.9766,-2.9327,-2.96,-2.9448,-2.911,-2.8569,-2.8298,-2.7875,-2.7114,-2.6826,-2.6691,-2.6691,-2.6691,-2.6691,-2.6691,-2.6691,-2.6691,-2.6691,-2.6691,-2.6691,-2.6691,-2.6691,-2.6691,-2.6691,-2.7145,-2.754,-2.7901,-2.9188,-3.0433,-1.3372,-1.3952,-1.4304,-1.4304,-1.4304,-1.3952,0.0,-1.1571,-1.0623,-0.9695,-0.8787,-0.8332,-0.8828,-0.9563,-1.041,-1.1351,-1.307,-1.4639,-1.5656,-1.7281,0.0,0.0,0.0,0.0,0.0,0.0,0.0,0.0,0.0,0.0,0.0,0.0,-2.7523,-2.7523,-2.7523,-2.7523,-2.7523,-2.8157,-2.8481,-2.8546,-2.9842,-3.0524,-3.0495,-3.0508,0.0,0.0,0.0,0.0,0.0,-2.7859,-2.7625,-2.7625,-2.7625,-2.7625,-2.7625,-2.7625,-2.7625,-2.7625,-2.7625,-2.7625,-2.7625,-2.7625,-2.7625,-2.7625,-2.7625,-2.7625,-2.7625,-2.7625,-2.7675,-2.779,-2.779,-2.779,-2.779,-2.779,-2.7675,-2.7625,-2.779,-2.779,-2.8107,-2.918,-2.9406,-2.9745,-3.0797,-3.0376,-3.0179,-3.1055,-3.0565,-3.0091,-3.0091,-2.9431,-2.867,-2.7857,-2.7148,-2.6691,-2.6691,-2.6691,-2.6691,-2.6691,-2.6691,-2.6691,-2.6691,-2.6691,-2.6691,-2.6691,-2.6691,-2.6691,-2.6691,-2.7452,-2.7964,-2.8351,-2.9886,-3.1443,-1.2058,-1.2327,-1.2368,-1.2068,-1.2213,-1.2161,-1.1116,-1.0623,-1.0159,-0.9274,-0.886,-0.8797,-0.9221,-1.0013,-1.112,-1.2726,-1.3733,0.0,0.0,0.0,0.0,0.0,0.0,0.0,0.0,0.0,0.0,0.0,0.0,0.0,0.0,0.0,-2.6726,-2.751,-2.7523,-2.7523,-2.7523,-2.8157,-2.8725,-2.9205,-3.0086,-3.0529,-3.0508,-3.0037,0.0,0.0,0.0,0.0,0.0,-2.7715,-2.7625,-2.7625,-2.7625,-2.7625,-2.7625,-2.7625,-2.7625,-2.7625,-2.7625,-2.7625,-2.7625,-2.7625,-2.7625,-2.7625,-2.7625,-2.7625,-2.7625,-2.7625,-2.7625,-2.7675,-2.7675,-2.7675,-2.7675,-2.7675,-2.7625,-2.7625,-2.7625,-2.774,-2.8024,-2.8654,-2.9134,-2.9629,-3.0251,-3.0556,-3.0746,-3.1021,-3.0948,-3.0666,-3.0176,-2.9448,-2.8687,-2.7909,-2.7148,-2.6691,-2.6691,-2.6691,-2.6691,-2.6691,-2.6691,-2.6691,-2.6691,-2.6691,-2.6691,-2.6691,-2.7199,-2.7469,-2.7469,-2.823,-2.9055,-2.9903,-3.0612,-3.1646,-1.0899,-1.1199,-1.1261,-1.0953,-1.1126,-1.1137,-1.0365,-1.0056,-0.9736,-0.9036,-0.8776,-0.8808,-0.9396,-1.0054,-1.1099,-1.2827,-1.3777,0.0,0.0,0.0,0.0,0.0,0.0,0.0,0.0,0.0,0.0,0.0,0.0,0.0,0.0,0.0,-2.6087,-2.6857,-2.6883,-2.6987,-2.721,-2.8079,-2.8872,-2.9504,-3.0203,-3.0482,-3.0477,0.0,0.0,0.0,0.0,0.0,0.0,-2.7625,-2.7625,-2.7625,-2.7625,-2.7625,-2.7625,-2.7625,-2.7625,-2.7625,-2.7625,-2.7625,-2.7625,-2.7625,-2.7625,-2.7625,-2.7625,-2.7625,-2.7625,-2.7625,-2.7625,-2.7625,-2.7625,-2.7625,-2.7625,-2.7625,-2.7625,-2.7625,-2.7625,-2.7675,-2.7875,-2.8319,-2.8717,-2.9164,-2.9657,-3.0251,-3.0617,-3.0658,-3.0935,-3.0943,-3.0487,-2.9833,-2.9228,-2.8738,-2.801,-2.7554,-2.7554,-2.7283,-2.7249,-2.7537,-2.7554,-2.7554,-2.7554,-2.7554,-2.7554,-2.7554,-2.8027,-2.8264,-2.8264,-2.9042,-2.9901,-3.0842,-3.1167,-3.1724,0.0,-1.0386,-1.0737,-1.0706,-1.0716,-1.0623,-1.0159,-0.9747,0.0,-0.8922,-0.8518,-0.8518,-0.9396,-0.9927,-1.0699,-1.2075,0.0,0.0,0.0,0.0,0.0,0.0,0.0,0.0,0.0,0.0,0.0,0.0,0.0,0.0,0.0,0.0,0.0,-2.5644,-2.5644,-2.5931,-2.6608,-2.7893,-2.8844,-2.9364,-3.006,-3.0347,-3.0328,0.0,0.0,0.0,0.0,0.0,0.0,-2.7625,-2.7625,-2.7625,-2.7625,-2.7625,-2.7625,-2.7625,-2.7625,-2.7625,-2.7625,-2.7625,-2.7625,-2.7625,-2.7625,-2.7625,-2.7625,-2.7625,-2.7625,-2.7625,-2.7625,-2.7625,-2.7625,-2.7625,-2.7625,-2.7625,-2.7625,-2.7625,-2.7625,-2.7625,-2.771,-2.8158,-2.8304,-2.848,-2.9102,-2.9629,-3.0011,-3.0123,-3.0617,-3.1015,-3.1015,-3.047,-3.0108,-3.0108,-2.9431,-2.9045,-2.9059,-2.8349,-2.8213,-2.8941,-2.9011,-2.9011,-2.9011,-2.9011,-2.9011,-2.9011,-2.9025,-2.9076,-2.918,-2.9837,-3.0531,-3.119,-3.1524,-3.1694,-0.8611,0.0,-0.9274,-0.8922,-0.9098,-0.9243,0.0,-0.886,-0.8911,-0.8446,-0.8549,-0.8994,-0.987,-1.097,-1.2321,0.0,0.0,0.0,0.0,0.0,0.0,0.0,0.0,0.0,0.0,0.0,0.0,0.0,0.0,0.0,0.0,0.0,0.0,-2.4339,-2.4219,-2.4696,-2.5831,-2.6775,-2.7469,-2.7879,-2.8713,-2.9123,-2.9041,0.0,0.0,0.0,0.0,0.0,-2.7625,-2.7625,-2.7625,-2.7625,-2.7625,-2.7625,-2.7625,-2.7625,-2.7625,-2.7625,-2.7625,-2.7625,-2.7625,-2.7625,-2.7625,-2.7625,-2.7625,-2.7625,-2.7625,-2.7625,-2.7625,-2.7625,-2.7625,-2.7625,-2.7625,-2.7625,-2.7625,-2.7625,-2.7625,-2.7625,-2.761,-2.776,-2.8076,-2.8496,-2.9012,-2.9617,-3.0113,-3.051,-3.0814,-3.1015,-3.1015,-3.047,-3.0108,-3.0108,-2.9431,-2.9211,-2.9786,-2.9144,-2.8789,-2.9011,-2.9011,-2.9011,-2.9011,-2.9011,-2.9011,-2.9011,-2.955,-3.0125,-3.0666,-3.0852,-3.1021,-3.119,-3.1291,-3.1449,-0.8187,-0.8684,-0.9129,-0.887,-0.9004,-0.9118,-0.887,-0.8684,-0.8517,-0.8239,-0.8559,-0.9245,-1.0318,0.0,0.0,0.0,0.0,0.0,0.0,0.0,0.0,0.0,0.0,0.0,0.0,0.0,0.0,0.0,0.0,0.0,0.0,0.0,0.0,0.0,-2.3628,-2.4099,-2.5159,-2.5855,-2.6457,-2.6927,-2.7684,-2.8068,-2.8018,0.0,0.0,0.0,0.0,0.0,-2.7625,-2.7625,-2.7625,-2.7625,-2.7625,-2.7625,-2.7625,-2.7625,-2.7625,-2.7625,-2.7625,-2.7625,-2.7625,-2.7625,-2.7625,-2.7625,-2.7625,-2.7625,-2.7625,-2.7625,-2.7625,-2.7625,-2.7625,-2.7625,-2.7625,-2.7625,-2.7625,-2.7625,-2.7625,-2.7625,-2.7625,-2.7625,-2.781,-2.8125,-2.8638,-2.9196,-2.975,-3.0199,-3.0634,-3.0895,-3.0952,-3.0679,-3.0521,-3.0615,-3.0243,-3.0159,-3.0565,-3.0226,-3.0006,-3.0006,-3.0006,-3.0006,-3.0006,-3.0006,-3.0006,-3.0006,-3.0395,-3.0801,-3.119,-3.119,-3.119,-3.119,-3.119,-3.1291,-0.8352,-0.9025,-0.9664,-0.9458,-0.9509,-0.9602,-0.953,-0.8911,-0.8394,0.0,0.0,0.0,0.0,-1.1816,0.0,0.0,0.0,0.0,0.0,0.0,0.0,0.0,0.0,0.0,0.0,0.0,0.0,0.0,0.0,0.0,0.0,0.0,0.0,0.0,-2.3569,-2.3846,-2.4503,-2.4958,-2.5495,-2.5974,-2.6578,-2.6903,-2.6999,-2.7035,0.0,0.0,0.0,0.0,-2.7625,-2.7625,-2.7625,-2.7625,-2.7625,-2.7625,-2.7625,-2.7625,-2.7625,-2.7625,-2.7625,-2.7625,-2.7625,-2.7625,-2.7625,-2.7625,-2.7625,-2.7625,-2.7625,-2.7625,-2.7625,-2.7625,-2.7625,-2.7625,-2.7625,-2.7625,-2.7625,-2.7625,-2.7625,-2.7625,-2.7625,-2.7625,-2.7625,-2.776,-2.8352,-2.8795,-2.9257,-2.9853,-3.0384,-3.0733,-3.0871,-3.0952,-3.1015,-3.1151,-3.1151,-3.119,-3.119,-3.119,-3.119,-3.119,-3.119,-3.119,-3.119,-3.119,-3.119,-3.119,-3.119,-3.119,-3.119,-3.119,-3.119,-3.119,-3.119,-3.119,-0.9097,-0.9988,-1.0402,-0.9263,-0.9563,-0.9994,-0.9602,-0.9396,-0.9303,0.0,0.0,0.0,0.0,-1.2825,0.0,0.0,0.0,0.0,0.0,0.0,0.0,0.0,0.0,0.0,0.0,0.0,0.0,0.0,0.0,0.0,0.0,0.0,0.0,0.0,0.0,-2.3308,-2.359,-2.3803,-2.4138,-2.4614,-2.4798,-2.5199,-2.5702,-2.6218,-2.651,0.0,0.0,-2.7488,-2.7625,-2.7625,-2.7625,-2.7625,-2.7625,-2.7625,-2.7625,-2.7625,-2.7625,-2.7625,-2.7625,-2.7625,-2.7625,-2.7625,-2.7625,-2.7625,-2.7625,-2.7625,-2.7625,-2.7625,-2.7625,-2.7625,-2.7625,-2.7625,-2.7625,-2.7625,-2.7625,-2.7625,-2.7625,-2.7625,-2.7625,-2.7625,-2.7625,-2.7894,-2.8842,-2.9028,-2.9393,-3.0241,-3.0568,-3.0692,-3.0733,-3.0831,-3.0935,-3.1015,-3.1015,-3.1072,-3.119,-3.119,-3.119,-3.119,-3.119,-3.119,-3.119,-3.119,-3.119,-3.119,-3.119,-3.119,-3.119,-3.119,-3.119,-3.119,-3.119,-3.119,-0.8394,-0.946,-1.0381,-0.977,-1.0474,-1.1271,-1.1064,-1.064,-1.0252,0.0,0.0,0.0,0.0,0.0,0.0,0.0,0.0,0.0,0.0,0.0,0.0,0.0,0.0,0.0,0.0,0.0,0.0,0.0,0.0,0.0,0.0,0.0,0.0,0.0,0.0,0.0,-2.3271,-2.3318,-2.3437,-2.3662,-2.406,-2.4452,-2.4738,-2.5342,-2.5837,0.0,0.0,-2.6945,-2.7372,-2.7372,-2.7372,-2.7372,-2.7488,-2.7488,-2.7488,-2.7575,-2.7625,-2.7625,-2.7625,-2.7625,-2.7625,-2.7625,-2.7625,-2.7625,-2.7625,-2.7625,-2.7625,-2.7625,-2.7625,-2.7625,-2.7625,-2.7625,-2.7625,-2.7625,-2.7625,-2.7625,-2.7625,-2.7625,-2.7625,-2.7625,-2.7625,-2.7894,-2.8935,-2.9074,-2.9438,-3.0342,-3.0568,-3.0609,-3.0692,-3.0733,-3.0831,-3.0935,-3.0975,-3.1015,-3.1112,-3.1151,-3.119,-3.119,-3.119,-3.119,-3.119,-3.119,-3.119,-3.119,-3.119,-3.119,-3.119,-3.119,-3.119,-3.119,-3.119,-3.119,-0.799,-0.8973,-1.0118,-1.0438,-1.1333,-1.2193,-1.2411,-1.1809,-1.1302,-1.1469,0.0,0.0,0.0,0.0,0.0,0.0,0.0,0.0,0.0,0.0,0.0,0.0,0.0,0.0,0.0,0.0,0.0,0.0,0.0,0.0,0.0,0.0,0.0,0.0,0.0,0.0,-2.3078,-2.3078,-2.3078,-2.3138,-2.3603,-2.3897,-2.3897,-2.4509,-2.5119,-2.5673,-2.596,-2.6457,-2.7011,-2.7115,-2.7181,-2.7233,-2.7284,-2.735,-2.7401,-2.7539,-2.7575,-2.7625,-2.7625,-2.7625,-2.7625,-2.7625,-2.7625,-2.7625,-2.7625,-2.7625,-2.7625,-2.7625,-2.7625,-2.7625,-2.7625,-2.7625,-2.7625,-2.7625,-2.7625,-2.7625,-2.7625,-2.7625,-2.7625,-2.7625,-2.7625,-2.7894,-2.8935,-2.9074,-2.9438,-3.0342,-3.0526,-3.0526,-3.0651,-3.0651,-3.0692,-3.0831,-3.0895,-3.0935,-3.0975,-3.1112,-3.119,-3.119,-3.119,-3.119,-3.119,-3.119,-3.119,-3.119,-3.119,-3.119,-3.119,-3.119,-3.119,-3.119,-3.119,-3.119,-0.9025,-0.9458,-0.986,-1.1157,-1.1591,-1.184,-1.2689,-1.2513,-1.2453,-1.3248,0.0,0.0,0.0,0.0,0.0,0.0,0.0,0.0,0.0,0.0,0.0,0.0,0.0,0.0,0.0,0.0,0.0,0.0,0.0,0.0,0.0,0.0,0.0,0.0,0.0,0.0,-2.3078,-2.3078,-2.3078,-2.3078,-2.3138,-2.3198,-2.3185,-2.3826,-2.4234,-2.4509,-2.5618,-2.6176,-2.6404,-2.6959,-2.7181,-2.7181,-2.7233,-2.7284,-2.7401,-2.7401,-2.7488,-2.7625,-2.7625,-2.7625,-2.7625,-2.7625,-2.7625,-2.7625,-2.7625,-2.7625,-2.7625,-2.7625,-2.7625,-2.7625,-2.7625,-2.7625,-2.7625,-2.7625,-2.7625,-2.7625,-2.7625,-2.7625,-2.7625,-2.7625,-2.7625,-2.7894,-2.8935,-2.9074,-2.9438,-3.0342,-3.0526,-3.051,-3.051,-3.051,-3.0568,-3.0692,-3.0733,-3.0814,-3.0975,-3.1112,-3.119,-3.119,-3.119,-3.119,-3.119,-3.119,-3.119,-3.119,-3.119,-3.119,-3.119,-3.119,-3.119,-3.119,-3.119,-3.119,-0.8107,-0.886,-0.9767,-1.0899,-1.1592,-1.2276,-1.3155,-1.3445,-1.3714,-1.4345,-1.4614,0.0,0.0,0.0,0.0,0.0,0.0,0.0,0.0,0.0,0.0,0.0,0.0,0.0,0.0,0.0,0.0,0.0,0.0,0.0,0.0,0.0,0.0,0.0,0.0,0.0,0.0,-2.3078,-2.3078,-2.3078,-2.3078,-2.3078,-2.3138,-2.3365,-2.3721,-2.4176,-2.4681,-2.5119,-2.5563,-2.6136,-2.6379,-2.6433,-2.6884,-2.7144,-2.7284,-2.7284,-2.7284,-2.7372,-2.7372,-2.7386,-2.7488,-2.7488,-2.7524,-2.7625,-2.7625,-2.7625,-2.7625,-2.7625,-2.7625,-2.7625,-2.7625,-2.7625,-2.7625,-2.7625,-2.7625,-2.7625,-2.7625,-2.7625,-2.7625,-2.7625,-2.7845,-2.8255,-2.8982,-2.9348,-2.975,-3.0384,-3.0526,-3.0526,-3.0526,-3.0526,-3.0526,-3.0568,-3.0651,-3.0773,-3.0975,-3.1072,-3.1112,-3.119,-3.119,-3.119,-3.119,-3.119,-3.119,-3.119,-3.119,-3.119,-3.119,-3.119,-3.119,-3.119,-3.119,-3.119,-0.8017,-0.8798,-0.9733,-1.0829,-1.1809,-1.271,-1.3631,-1.4076,-1.4521,-1.5277,-1.5448,-1.5678,-1.6558,0.0,0.0,0.0,0.0,0.0,0.0,0.0,0.0,0.0,0.0,0.0,0.0,0.0,0.0,0.0,0.0,0.0,0.0,0.0,0.0,0.0,0.0,0.0,0.0,-2.3078,-2.3078,-2.3078,-2.3078,-2.3078,-2.3078,-2.3078,-2.3365,-2.378,-2.4015,-2.435,-2.4738,-2.537,-2.5605,-2.566,-2.6394,-2.675,-2.6907,-2.7078,-2.7181,-2.7181,-2.7181,-2.7284,-2.735,-2.7401,-2.7437,-2.7524,-2.7575,-2.7625,-2.7625,-2.7625,-2.7625,-2.7625,-2.7625,-2.7625,-2.7625,-2.7625,-2.7625,-2.7625,-2.7625,-2.7625,-2.7625,-2.7625,-2.7845,-2.8255,-2.8732,-2.9241,-2.975,-3.0215,-3.0384,-3.0526,-3.0526,-3.0526,-3.0526,-3.0526,-3.0609,-3.0773,-3.0895,-3.0975,-3.1015,-3.1151,-3.119,-3.119,-3.119,-3.119,-3.119,-3.119,-3.119,-3.119,-3.119,-3.119,-3.119,-3.119,-3.119,-3.119,-0.9197,-0.9453,-0.9756,-1.124,0.0,0.0,-1.4107,-1.4314,-1.4707,-1.6094,-1.6417,-1.657,-1.7082,0.0,0.0,0.0,0.0,0.0,0.0,0.0,0.0,0.0,0.0,0.0,0.0,0.0,0.0,0.0,0.0,0.0,0.0,0.0,0.0,0.0,0.0,0.0,0.0,-2.3078,-2.3078,-2.3078,-2.3078,-2.3078,-2.3078,-2.3078,-2.3078,-2.3138,-2.378,-2.4073,-2.4118,-2.4738,-2.5007,-2.5077,-2.566,-2.5988,-2.6176,-2.6779,-2.7093,-2.7181,-2.7181,-2.7181,-2.7233,-2.735,-2.7401,-2.7437,-2.7575,-2.7625,-2.7625,-2.7625,-2.7625,-2.7625,-2.7625,-2.7625,-2.7625,-2.7625,-2.7625,-2.7625,-2.7625,-2.7625,-2.7625,-2.7625,-2.761,-2.7745,-2.8207,-2.8732,-2.9257,-2.9705,-3.0199,-3.0468,-3.0526,-3.0526,-3.0526,-3.0526,-3.0609,-3.0692,-3.0692,-3.0895,-3.1015,-3.1015,-3.1112,-3.119,-3.119,-3.119,-3.119,-3.119,-3.119,-3.119,-3.119,-3.119,-3.119,-3.119,-3.119,-3.119,-0.8849,-0.9443,0.0,-1.1716,0.0,0.0,0.0,-1.5277,0.0,0.0,-1.706,-1.7625,-1.7776,0.0,0.0,0.0,0.0,0.0,0.0,0.0,0.0,0.0,0.0,0.0,0.0,0.0,0.0,0.0,0.0,0.0,0.0,0.0,0.0,0.0,0.0,0.0,0.0,0.0,-2.3078,-2.3078,-2.3078,-2.3078,-2.3078,-2.3078,-2.3078,-2.3138,-2.3305,-2.3424,-2.3424,-2.4118,-2.4624,-2.5007,-2.5189,-2.5536,-2.5988,-2.6165,-2.65,-2.6937,-2.6937,-2.6989,-2.7041,-2.7107,-2.7248,-2.7401,-2.7437,-2.7539,-2.7625,-2.7625,-2.7625,-2.7625,-2.7625,-2.7625,-2.7625,-2.7625,-2.7625,-2.7625,-2.7625,-2.7625,-2.7625,-2.7625,-2.7894,-2.8158,-2.8304,-2.8732,-2.9257,-2.9705,-2.9941,-3.0113,-3.0468,-3.0526,-3.0526,-3.0526,-3.0526,-3.0609,-3.0692,-3.0733,-3.0814,-3.0912,-3.0952,-3.1032,-3.119,-3.119,-3.119,-3.119,-3.119,-3.119,-3.119,-3.119,-3.119,-3.119,-3.119,-3.119,-0.9518,-1.0132,0.0,-1.259,-1.3539,-1.444,-1.5711,0.0,0.0,0.0,0.0,0.0,0.0,0.0,0.0,0.0,0.0,0.0,0.0,0.0,0.0,0.0,0.0,0.0,0.0,0.0,0.0,0.0,0.0,0.0,0.0,0.0,0.0,0.0,0.0,0.0,0.0,0.0,0.0,-2.3078,-2.3078,-2.3078,-2.3078,-2.3078,-2.3078,-2.3078,-2.3078,-2.3078,-2.3138,-2.3543,-2.3943,-2.4266,-2.4567,-2.4851,-2.5203,-2.5425,-2.5756,-2.6096,-2.6096,-2.6272,-2.6553,-2.6659,-2.6922,-2.7248,-2.7284,-2.7386,-2.7539,-2.7539,-2.7575,-2.7625,-2.7625,-2.7625,-2.7625,-2.7625,-2.7625,-2.7625,-2.7625,-2.7625,-2.7625,-2.7625,-2.7845,-2.8027,-2.8027,-2.8448,-2.8873,-2.915,-2.9556,-2.9984,-3.0426,-3.0526,-3.0526,-3.0526,-3.0526,-3.051,-3.0609,-3.0651,-3.0733,-3.0831,-3.0871,-3.0952,-3.1072,-3.1112,-3.1151,-3.119,-3.119,-3.119,-3.119,-3.119,-3.119,-3.119,-3.119,-3.119,-1.0605,-1.1145,0.0,-1.3596,-1.4195,0.0,-1.6094,-1.6384,-1.6384,0.0,0.0,0.0,0.0,0.0,0.0,0.0,0.0,0.0,0.0,0.0,0.0,0.0,0.0,0.0,0.0,0.0,0.0,0.0,0.0,0.0,0.0,0.0,0.0,0.0,0.0,0.0,0.0,0.0,0.0,0.0,-2.3027,-2.3027,-2.3078,-2.3078,-2.3078,-2.3078,-2.3078,-2.3078,-2.3078,-2.3078,-2.3078,-2.3138,-2.378,-2.4073,-2.4176,-2.4738,-2.4951,-2.5007,-2.5007,-2.5425,-2.5948,-2.6028,-2.6486,-2.7003,-2.713,-2.7299,-2.7401,-2.7401,-2.7488,-2.7575,-2.7575,-2.7575,-2.7575,-2.7625,-2.7625,-2.7625,-2.7625,-2.7625,-2.7625,-2.7625,-2.7625,-2.7625,-2.7625,-2.7929,-2.8255,-2.8352,-2.9196,-2.9984,-3.0426,-3.0526,-3.0526,-3.0526,-3.0526,-3.0526,-3.0526,-3.0609,-3.0692,-3.0692,-3.079,-3.0871,-3.0871,-3.0935,-3.1072,-3.1151,-3.1151,-3.119,-3.119,-3.119,-3.119,-3.119,-3.119,-3.119,-0.9872,-1.0606,0.0,0.0,-1.5016,-1.6011,-1.6312,-1.6384,0.0,0.0,0.0,0.0,0.0,0.0,0.0,0.0,0.0,0.0,0.0,0.0,0.0,0.0,0.0,0.0,0.0,0.0,0.0,0.0,0.0,0.0,0.0,0.0,0.0,0.0,0.0,0.0,-2.3065,-2.2711,-2.2711,0.0,-2.2698,-2.2711,-2.3078,-2.3078,-2.3078,-2.3078,-2.3078,-2.3078,-2.3078,-2.3078,-2.3078,-2.3138,-2.3258,-2.3662,-2.4118,-2.4234,-2.4567,-2.5007,-2.5007,-2.5425,-2.5893,-2.5934,-2.6447,-2.7003,-2.7055,-2.7144,-2.7233,-2.7233,-2.7284,-2.7335,-2.7437,-2.7437,-2.7488,-2.7575,-2.7625,-2.7625,-2.7625,-2.7625,-2.7625,-2.7625,-2.7625,-2.7625,-2.7625,-2.766,-2.8042,-2.8795,-2.9438,-2.9984,-3.0426,-3.0526,-3.0526,-3.0526,-3.0526,-3.0526,-3.0526,-3.0526,-3.0526,-3.0526,-3.0568,-3.0651,-3.0733,-3.0871,-3.0952,-3.0952,-3.0952,-3.0992,-3.1015,-3.1015,-3.1112,-3.119,-3.119,-3.119,-0.9685,0.0,0.0,-1.381,0.0,-1.6048,-1.6332,-1.6384,0.0,0.0,0.0,0.0,0.0,0.0,0.0,0.0,0.0,0.0,0.0,0.0,0.0,0.0,0.0,0.0,0.0,0.0,0.0,0.0,0.0,0.0,0.0,0.0,0.0,0.0,0.0,0.0,-2.2347,-2.2071,-2.2071,-2.2347,-2.2058,-2.2071,-2.2359,-2.2899,-2.3078,-2.3078,-2.3078,-2.3078,-2.3078,-2.3078,-2.3078,-2.3078,-2.3078,-2.3305,-2.3603,-2.3603,-2.3826,-2.4105,-2.4105,-2.4509,-2.509,-2.537,-2.5934,-2.65,-2.6832,-2.7003,-2.7093,-2.7093,-2.713,-2.7233,-2.7284,-2.735,-2.7401,-2.7488,-2.7524,-2.7625,-2.7625,-2.7625,-2.7625,-2.7625,-2.7625,-2.7625,-2.7625,-2.7625,-2.791,-2.8748,-2.9074,-2.9528,-3.0384,-3.0526,-3.0526,-3.0526,-3.0526,-3.0526,-3.0526,-3.0526,-3.0526,-3.0526,-3.0526,-3.051,-3.0609,-3.0692,-3.079,-3.0912,-3.0912,-3.0912,-3.0952,-3.0975,-3.1032,-3.1112,-3.119,-3.119,-0.9371,0.0,-1.173,-1.3882,-1.4955,0.0,-1.611,0.0,0.0,0.0,0.0,0.0,0.0,0.0,0.0,0.0,0.0,0.0,0.0,0.0,0.0,0.0,0.0,0.0,0.0,0.0,0.0,0.0,0.0,0.0,0.0,0.0,0.0,0.0,0.0,-2.1292,-2.1493,-2.1393,-2.1393,-2.1493,-2.1493,-2.1443,-2.138,-2.2397,-2.284,-2.3,-2.3027,-2.3078,-2.3078,-2.3078,-2.3078,-2.3078,-2.3078,-2.3078,-2.3078,-2.3078,-2.3078,-2.3078,-2.3078,-2.3543,-2.4176,-2.4681,-2.5245,-2.5839,-2.6447,-2.6727,-2.6832,-2.6951,-2.7041,-2.713,-2.7181,-2.7248,-2.735,-2.735,-2.7437,-2.7524,-2.7575,-2.7625,-2.7625,-2.7625,-2.7625,-2.7625,-2.7625,-2.7625,-2.781,-2.8479,-2.8479,-2.8935,-3.0342,-3.0526,-3.0526,-3.0526,-3.0526,-3.0526,-3.0526,-3.0526,-3.0526,-3.0526,-3.0526,-3.0526,-3.0526,-3.0526,-3.0609,-3.0831,-3.0831,-3.0831,-3.0871,-3.0935,-3.0975,-3.0975,-3.1112,-3.1151,0.0,0.0,-1.2039,0.0,-1.4679,-1.5526,0.0,0.0,0.0,0.0,0.0,0.0,0.0,0.0,0.0,0.0,0.0,0.0,0.0,0.0,0.0,0.0,0.0,0.0,0.0,0.0,0.0,0.0,0.0,0.0,0.0,0.0,-1.9883,-2.0615,-2.0142,0.0,-2.1481,-2.1016,-2.1016,-2.1493,-2.1493,-2.1242,-2.0857,-2.143,-2.197,-2.2447,-2.2924,-2.3078,-2.3078,-2.3078,-2.3078,-2.3078,-2.3078,-2.3078,-2.3078,-2.3078,-2.3078,-2.3078,-2.3078,-2.3543,-2.4131,-2.4176,-2.4624,-2.5245,-2.5839,-2.6002,-2.6165,-2.6674,-2.6832,-2.6884,-2.7003,-2.7055,-2.7107,-2.7181,-2.7233,-2.7321,-2.7575,-2.7625,-2.7625,-2.7625,-2.7625,-2.7625,-2.7625,-2.7625,-2.781,-2.8479,-2.8107,-2.84,-3.0241,-3.0526,-3.0526,-3.0526,-3.0526,-3.0526,-3.0526,-3.0526,-3.0526,-3.0526,-3.0526,-3.0526,-3.0526,-3.0526,-3.0526,-3.0568,-3.0568,-3.0609,-3.0733,-3.0733,-3.0814,-3.0912,-3.0975,-3.1015,-0.8318,-1.0185,-1.2009,0.0,-1.411,-1.4626,0.0,0.0,0.0,0.0,0.0,0.0,0.0,0.0,0.0,0.0,0.0,0.0,0.0,0.0,0.0,0.0,0.0,0.0,0.0,0.0,0.0,0.0,0.0,0.0,0.0,-1.9275,-1.9491,-1.9883,-1.9648,0.0,-2.0349,-2.0154,-2.026,-2.0539,-2.0539,-2.0413,-2.02,-2.0765,-2.133,-2.187,-2.2108,-2.2209,-2.2234,-2.2548,-2.2673,-2.2711,-2.2952,-2.3078,-2.3078,-2.3078,-2.3078,-2.3078,-2.3078,-2.3305,-2.3603,-2.3956,-2.4292,-2.4681,-2.5605,-2.5893,-2.6002,-2.6621,-2.6779,-2.6779,-2.6899,-2.6951,-2.7003,-2.7063,-2.7181,-2.7218,-2.7269,-2.7372,-2.7539,-2.7575,-2.7625,-2.7625,-2.7625,-2.7625,-2.771,-2.8008,-2.781,-2.8304,-3.0241,-3.0027,-2.9705,-2.9705,-2.9941,-3.0113,-3.0113,-3.0342,-3.0526,-3.0526,-3.0526,-3.0526,-3.0526,-3.0526,-3.0526,-3.0526,-3.0526,-3.0526,-3.0609,-3.0651,-3.0733,-3.0773,-3.0912,-3.0975,0.0,0.0,-1.1155,-1.278,-1.3382,-1.379,0.0,0.0,0.0,0.0,0.0,0.0,0.0,0.0,0.0,0.0,0.0,0.0,0.0,0.0,0.0,0.0,0.0,0.0,0.0,0.0,0.0,0.0,0.0,0.0,-1.917,-1.917,-1.9223,-1.9316,-1.9368,-1.9368,-1.942,-1.9512,-1.9617,-1.9708,-1.9708,-1.9708,-1.9772,-2.0198,-2.0677,-2.1079,-2.1355,-2.1493,-2.1518,-2.1933,-2.2184,-2.2347,-2.2761,-2.2952,-2.3078,-2.3078,-2.3078,-2.3078,-2.3078,-2.3078,-2.3198,-2.3662,-2.3839,-2.406,-2.5314,-2.566,-2.5825,-2.6621,-2.6779,-2.6779,-2.6779,-2.6899,-2.6951,-2.6974,-2.7026,-2.7078,-2.7063,-2.7233,-2.7386,-2.7524,-2.7524,-2.7524,-2.7575,-2.7625,-2.7625,-2.7625,-2.7625,-2.8125,-2.9601,-2.915,-2.8795,-2.8935,-2.9303,-2.9572,-2.9793,-3.0113,-3.0384,-3.0468,-3.0526,-3.0526,-3.0526,-3.0526,-3.0526,-3.0526,-3.0526,-3.0526,-3.0526,-3.0609,-3.0651,-3.0651,-3.079,-3.0912,0.0,-0.8528,0.0,-1.1185,0.0,0.0,0.0,0.0,0.0,0.0,0.0,0.0,0.0,0.0,0.0,0.0,0.0,0.0,0.0,0.0,0.0,0.0,0.0,0.0,0.0,0.0,0.0,0.0,0.0,0.0,-1.8987,-1.8987,-1.9052,-1.9235,-1.9235,-1.9275,-1.942,-1.942,-1.942,-1.942,-1.942,-1.946,-1.9617,-1.9641,-1.9718,-1.9949,-2.1029,-2.1493,-2.1493,-2.1518,-2.1845,-2.2309,-2.2347,-2.2673,-2.3078,-2.3078,-2.3078,-2.3078,-2.3078,-2.3078,-2.3138,-2.3125,-2.3125,-2.3365,-2.4667,-2.5077,-2.53,-2.65,-2.6779,-2.6779,-2.6779,-2.6779,-2.6779,-2.6779,-2.6832,-2.6884,-2.713,-2.7181,-2.7233,-2.7386,-2.735,-2.7386,-2.7575,-2.7625,-2.7625,-2.7625,-2.7625,-2.7625,-2.776,-2.771,-2.791,-2.8574,-2.8669,-2.8982,-2.975,-2.9793,-3.0027,-3.0468,-3.0526,-3.0526,-3.0526,-3.0526,-3.0526,-3.0526,-3.0526,-3.0526,-3.0526,-3.0526,-3.051,-3.051,-3.0651,-3.0773,0.0,0.0,0.0,-1.0,-1.1008,0.0,0.0,0.0,0.0,0.0,0.0,0.0,0.0,0.0,0.0,0.0,0.0,0.0,0.0,0.0,0.0,0.0,0.0,0.0,0.0,0.0,0.0,0.0,0.0,0.0,-1.8987,-1.8987,-1.8999,-1.9052,-1.9052,-1.917,-1.9275,-1.9275,-1.9328,-1.942,-1.942,-1.942,-1.9473,-1.9473,-1.9512,-1.9589,-2.0079,-2.0307,-2.0439,-2.0803,-2.1079,-2.133,-2.2033,-2.2435,-2.2648,-2.294,-2.3078,-2.3078,-2.3078,-2.3078,-2.3078,-2.3078,-2.3078,-2.3245,-2.4176,-2.4681,-2.5189,-2.5988,-2.65,-2.6779,-2.6779,-2.6779,-2.6779,-2.6779,-2.6779,-2.6832,-2.6937,-2.7078,-2.7233,-2.735,-2.735,-2.7386,-2.7575,-2.7625,-2.7625,-2.7625,-2.7625,-2.7625,-2.7625,-2.7625,-2.766,-2.791,-2.8527,-2.9044,-2.9303,-2.9881,-3.0342,-3.0485,-3.0526,-3.0526,-3.0526,-3.0526,-3.0526,-3.0526,-3.0526,-3.0526,-3.0526,-3.0526,-3.0526,-3.0526,-3.0568,-3.0692,-0.6572,0.0,0.0,0.0,0.0,0.0,0.0,0.0,0.0,0.0,0.0,0.0,0.0,0.0,0.0,0.0,0.0,0.0,0.0,0.0,0.0,0.0,0.0,0.0,0.0,0.0,0.0,0.0,0.0,0.0,-1.8987,-1.8987,-1.8987,-1.8987,-1.8987,-1.9052,-1.9117,-1.9117,-1.917,-1.9263,-1.9263,-1.9263,-1.9328,-1.9328,-1.9368,-1.942,-1.9565,-1.9656,-1.9784,-2.0213,-2.0542,-2.0794,-2.1468,-2.187,-2.2108,-2.2661,-2.2862,-2.2887,-2.3015,-2.3078,-2.3078,-2.3078,-2.3078,-2.3258,-2.3897,-2.4408,-2.4851,-2.566,-2.6179,-2.6553,-2.6727,-2.6779,-2.6779,-2.6779,-2.6779,-2.6779,-2.6779,-2.6937,-2.7093,-2.7248,-2.7248,-2.7269,-2.7575,-2.7625,-2.7625,-2.7625,-2.7625,-2.7625,-2.7625,-2.7625,-2.7625,-2.7625,-2.8189,-2.8654,-2.8826,-2.9572,-3.0113,-3.0258,-3.0426,-3.0526,-3.0526,-3.0526,-3.0526,-3.0526,-3.0526,-3.0526,-3.0526,-3.0526,-3.0526,-3.0526,-3.0526,-3.0609,0.0,0.0,0.0,0.0,0.0,0.0,0.0,0.0,0.0,0.0,0.0,0.0,0.0,0.0,0.0,0.0,0.0,0.0,0.0,0.0,0.0,0.0,0.0,0.0,0.0,0.0,0.0,0.0,0.0,-1.8939,-1.8939,-1.8939,-1.8939,-1.8939,-1.8939,-1.8951,-1.8963,-1.8963,-1.8975,-1.8987,-1.8987,-1.9052,-1.917,-1.917,-1.9275,-1.942,-1.9512,-1.9617,-1.9617,-1.9759,-2.0137,-2.0693,-2.0706,-2.0991,-2.1531,-2.2083,-2.2297,-2.2385,-2.2924,-2.3065,-2.3078,-2.3078,-2.3078,-2.3185,-2.3884,-2.406,-2.435,-2.5495,-2.5893,-2.6056,-2.6621,-2.6779,-2.6779,-2.6779,-2.6779,-2.6779,-2.6779,-2.6779,-2.6846,-2.6951,-2.6974,-2.7115,-2.7524,-2.7575,-2.7625,-2.7625,-2.7625,-2.7625,-2.7625,-2.7625,-2.7625,-2.7625,-2.7625,-2.7795,-2.8255,-2.8779,-2.9303,-2.975,-3.0199,-3.0468,-3.0468,-3.0468,-3.0526,-3.0526,-3.0526,-3.0526,-3.0526,-3.0526,-3.0526,-3.0526,-3.051,-3.0568,-0.6058,0.0,0.0,0.0,0.0,0.0,0.0,0.0,0.0,0.0,0.0,0.0,0.0,0.0,0.0,0.0,0.0,0.0,0.0,0.0,0.0,0.0,0.0,0.0,0.0,0.0,0.0,0.0,0.0,-1.7845,-1.7845,-1.7845,-1.7845,-1.7845,-1.7845,-1.8037,-1.8422,-1.8422,-1.8614,-1.8987,-1.8987,-1.8999,-1.9052,-1.9052,-1.9105,-1.9105,-1.9263,-1.9328,-1.9328,-1.9656,-1.9899,-2.0075,-2.0555,-2.0806,-2.0966,-2.1506,-2.197,-2.2334,-2.2485,-2.2799,-2.3078,-2.3078,-2.3078,-2.3138,-2.3305,-2.3721,-2.4176,-2.4523,-2.5216,-2.6056,-2.6621,-2.6779,-2.6779,-2.6779,-2.6779,-2.6779,-2.6779,-2.6779,-2.6846,-2.6951,-2.6937,-2.6922,-2.7284,-2.7473,-2.7625,-2.7625,-2.7625,-2.7625,-2.7625,-2.7625,-2.7625,-2.7625,-2.7625,-2.7795,-2.8255,-2.8779,-2.9166,-2.9319,-2.975,-2.9984,-2.9984,-3.0342,-3.0526,-3.0526,-3.0526,-3.0526,-3.0526,-3.0526,-3.0526,-3.0526,-3.0609,-3.0651,-0.668,-0.7148,-0.792,0.0,0.0,0.0,0.0,0.0,0.0,0.0,0.0,0.0,0.0,0.0,0.0,0.0,0.0,0.0,0.0,0.0,0.0,0.0,0.0,0.0,0.0,0.0,0.0,0.0,-1.6959,-1.7216,-1.7363,-1.7412,-1.7412,-1.7412,-1.7412,-1.7568,-1.7869,-1.7869,-1.8025,-1.8338,-1.8554,-1.8662,-1.8662,-1.8891,-1.8987,-1.8999,-1.9117,-1.9182,-1.9223,-1.9512,-1.9656,-1.9745,-2.0175,-2.03,-2.0376,-2.0941,-2.1343,-2.1656,-2.1895,-2.2184,-2.2485,-2.2711,-2.2786,-2.2836,-2.3002,-2.3365,-2.3767,-2.435,-2.537,-2.634,-2.6727,-2.6779,-2.6779,-2.6779,-2.6779,-2.6779,-2.6779,-2.6779,-2.6832,-2.6899,-2.6846,-2.6832,-2.7041,-2.7181,-2.7321,-2.7575,-2.7625,-2.7625,-2.7625,-2.7625,-2.7625,-2.7625,-2.7625,-2.771,-2.7978,-2.8448,-2.8795,-2.8795,-2.9241,-2.9617,-2.9793,-3.007,-3.03,-3.0485,-3.0526,-3.0526,-3.0526,-3.0526,-3.0526,-3.0526,-3.0568,-3.0609,-0.7715,-0.8008,-0.8701,-0.8887,0.0,0.0,-0.9629,-0.9707,0.0,0.0,0.0,0.0,0.0,0.0,0.0,0.0,0.0,0.0,0.0,0.0,0.0,0.0,0.0,0.0,0.0,0.0,0.0,-1.587,-1.6329,-1.6795,-1.7183,-1.7243,-1.7243,-1.7243,-1.7243,-1.7267,-1.7327,-1.7327,-1.7352,-1.7424,-1.7893,-1.8145,-1.8217,-1.8686,-1.8939,-1.8999,-1.9117,-1.917,-1.917,-1.9316,-1.9473,-1.9617,-1.9759,-1.9798,-1.9861,-2.0376,-2.0668,-2.0794,-2.123,-2.1443,-2.1568,-2.2071,-2.2221,-2.2322,-2.2874,-2.2977,-2.3276,-2.4597,-2.5811,-2.6727,-2.6779,-2.6779,-2.6779,-2.6779,-2.6779,-2.6779,-2.6779,-2.6779,-2.6779,-2.6779,-2.6779,-2.6779,-2.6779,-2.6779,-2.6989,-2.7423,-2.7575,-2.7625,-2.7625,-2.7625,-2.7625,-2.7625,-2.7625,-2.7625,-2.7625,-2.7978,-2.8207,-2.8207,-2.8732,-2.9212,-2.9705,-2.975,-3.0027,-3.0468,-3.0526,-3.0526,-3.0526,-3.0526,-3.0526,-3.0526,-3.0526,-3.0526,-0.9359,-0.9766,-1.0107,-0.8818,0.0,0.0,0.0,-0.8193,0.0,0.0,0.0,0.0,0.0,0.0,0.0,0.0,0.0,0.0,0.0,0.0,0.0,0.0,0.0,0.0,0.0,0.0,-1.4965,-1.5762,-1.5911,-1.6013,-1.6104,-1.6104,-1.6104,-1.6104,-1.6104,-1.6308,-1.6727,-1.6786,-1.6943,-1.7412,-1.752,-1.7796,-1.8205,-1.8313,-1.859,-1.8987,-1.9052,-1.9052,-1.9052,-1.917,-1.9368,-1.9617,-1.9604,-1.9708,-1.9811,-1.9924,-2.0263,-2.0731,-2.0844,-2.1117,-2.1506,-2.1606,-2.1656,-2.1757,-2.2297,-2.2472,-2.2781,-2.4533,-2.5536,-2.6179,-2.6674,-2.6779,-2.6779,-2.6779,-2.6779,-2.6779,-2.6779,-2.6779,-2.6779,-2.6779,-2.6779,-2.6779,-2.6779,-2.6779,-2.6846,-2.6937,-2.7321,-2.7625,-2.7625,-2.7625,-2.7625,-2.7625,-2.7625,-2.7625,-2.7625,-2.766,-2.776,-2.776,-2.8174,-2.8685,-2.9212,-2.9617,-3.0027,-3.0468,-3.0526,-3.0526,-3.0526,-3.0526,-3.0526,-3.0526,-3.0526,-3.0526,-1.0379,-1.0742,-1.0977,-0.9912,0.0,0.0,0.0,0.0,0.0,0.0,0.0,0.0,0.0,0.0,0.0,0.0,0.0,0.0,0.0,0.0,0.0,0.0,0.0,0.0,0.0,0.0,-1.3894,-1.464,-1.4903,-1.5187,-1.5424,-1.5659,-1.5792,-1.5792,-1.5792,-1.5924,-1.6188,-1.6188,-1.632,-1.6584,-1.6895,-1.7159,-1.7436,-1.7965,-1.835,-1.8614,-1.8867,-1.8987,-1.8999,-1.9052,-1.921,-1.942,-1.9473,-1.9565,-1.9617,-1.9656,-1.9883,-2.0132,-2.0238,-2.0413,-2.069,-2.0978,-2.1079,-2.1179,-2.1732,-2.2299,-2.2967,-2.3864,-2.4956,-2.5948,-2.6286,-2.6568,-2.6779,-2.6779,-2.6779,-2.6779,-2.6779,-2.6779,-2.6779,-2.6779,-2.6779,-2.6779,-2.6779,-2.6779,-2.6779,-2.6779,-2.7026,-2.7284,-2.7575,-2.7625,-2.7625,-2.7625,-2.7625,-2.7625,-2.7625,-2.7625,-2.7625,-2.7625,-2.7845,-2.8174,-2.8685,-2.9196,-2.9793,-3.0485,-3.0526,-3.0526,-3.0526,-3.0526,-3.0526,-3.0526,-3.0526,-3.0526,0.0,0.0,0.0,0.0,0.0,-1.0507,0.0,0.0,0.0,-1.043,0.0,0.0,0.0,0.0,0.0,0.0,0.0,0.0,0.0,0.0,0.0,0.0,0.0,0.0,0.0,0.0,-1.3162,-1.3695,-1.4039,-1.4473,-1.5051,-1.557,-1.5792,-1.5792,-1.5792,-1.5792,-1.5792,-1.5792,-1.5792,-1.5804,-1.6224,-1.6488,-1.6608,-1.7508,-1.8013,-1.8229,-1.865,-1.8891,-1.8987,-1.8987,-1.9052,-1.917,-1.9328,-1.9368,-1.942,-1.9512,-1.9565,-1.9604,-1.9708,-1.9798,-1.9874,-2.0351,-2.063,-2.0806,-2.1192,-2.2206,-2.3227,-2.3227,-2.4448,-2.5715,-2.5715,-2.6272,-2.6779,-2.6779,-2.6779,-2.6779,-2.6779,-2.6779,-2.6779,-2.6779,-2.6779,-2.6779,-2.6779,-2.6779,-2.6779,-2.6779,-2.6779,-2.6989,-2.7372,-2.7423,-2.7423,-2.7423,-2.7473,-2.7509,-2.7524,-2.7524,-2.7575,-2.7575,-2.7575,-2.7795,-2.8304,-2.8919,-2.9617,-3.0468,-3.0526,-3.0526,-3.0526,-3.0526,-3.0526,-3.0526,-3.0526,-3.0526,0.0,0.0,0.0,0.0,-1.117,0.0,0.0,0.0,-0.9906,-0.932,0.0,0.0,0.0,0.0,0.0,0.0,0.0,0.0,0.0,0.0,0.0,0.0,0.0,0.0,0.0,0.0,0.0,-1.4147,-1.3978,-1.4228,-1.5062,-1.557,-1.5792,-1.5792,-1.5792,-1.5792,-1.5792,-1.5792,-1.5792,-1.5792,-1.5852,-1.6128,-1.6584,-1.675,-1.7315,-1.8205,-1.8265,-1.8554,-1.8987,-1.8987,-1.8999,-1.9052,-1.917,-1.9328,-1.942,-1.942,-1.9512,-1.9617,-1.9604,-1.9708,-1.9811,-1.9874,-2.025,-2.0731,-2.0794,-2.1898,-2.3227,-2.3227,-2.4099,-2.5077,-2.5077,-2.5934,-2.6779,-2.6779,-2.6779,-2.6779,-2.6779,-2.6779,-2.6779,-2.6779,-2.6779,-2.6779,-2.6779,-2.6779,-2.6779,-2.6779,-2.6779,-2.6832,-2.6884,-2.6884,-2.6884,-2.6884,-2.7026,-2.7115,-2.7233,-2.7335,-2.7401,-2.7401,-2.7524,-2.7795,-2.8304,-2.9196,-2.9984,-3.0468,-3.0526,-3.0526,-3.0526,-3.0526,-3.0526,-3.0526,-3.0526,-3.0526,0.0,0.0,0.0,0.0,0.0,0.0,0.0,0.0,-1.0089,0.0,0.0,0.0,0.0,0.0,0.0,0.0,0.0,0.0,0.0,0.0,0.0,0.0,0.0,0.0,0.0,0.0,0.0,0.0,0.0,-1.3766,-1.4593,-1.5404,-1.5792,-1.5792,-1.5792,-1.5792,-1.5792,-1.5792,-1.5792,-1.5792,-1.5792,-1.5912,-1.6128,-1.644,-1.6871,-1.7327,-1.7941,-1.8326,-1.8554,-1.8867,-1.8987,-1.8999,-1.9052,-1.9105,-1.9158,-1.9275,-1.9328,-1.9368,-1.9473,-1.9565,-1.9708,-1.9747,-1.9962,-2.0162,-2.0162,-2.0929,-2.1834,-2.2112,-2.3037,-2.407,-2.4359,-2.4964,-2.5425,-2.5425,-2.5591,-2.5934,-2.6659,-2.6779,-2.6779,-2.6779,-2.6779,-2.6779,-2.6779,-2.6779,-2.6779,-2.6779,-2.6779,-2.6779,-2.6779,-2.6779,-2.6779,-2.6779,-2.6922,-2.7011,-2.7063,-2.7284,-2.7401,-2.7401,-2.7539,-2.7795,-2.8304,-2.9012,-2.9617,-3.007,-3.0342,-3.0526,-3.0526,-3.0526,-3.0526,-3.0526,-3.0526,-3.0526,-1.1819,0.0,0.0,0.0,0.0,0.0,0.0,0.0,0.0,0.0,0.0,0.0,0.0,0.0,0.0,0.0,0.0,0.0,0.0,0.0,0.0,0.0,0.0,0.0,0.0,0.0,0.0,0.0,0.0,0.0,-1.4089,-1.5057,-1.5648,-1.5792,-1.5792,-1.5792,-1.5792,-1.5792,-1.5792,-1.5792,-1.5792,-1.5792,-1.5804,-1.6188,-1.644,-1.6632,-1.7592,-1.8061,-1.8241,-1.877,-1.8987,-1.8987,-1.8987,-1.8987,-1.8987,-1.9117,-1.917,-1.9235,-1.9328,-1.9473,-1.9604,-1.9759,-1.9798,-1.9798,-1.9798,-2.0313,-2.0978,-2.138,-2.2311,-2.3282,-2.3722,-2.3943,-2.406,-2.406,-2.4496,-2.5245,-2.6096,-2.6553,-2.6779,-2.6779,-2.6779,-2.6779,-2.6779,-2.6779,-2.6779,-2.6779,-2.6779,-2.6779,-2.6779,-2.6779,-2.6779,-2.6779,-2.687,-2.6974,-2.6974,-2.7181,-2.7401,-2.7437,-2.7524,-2.7795,-2.8304,-2.8842,-2.9303,-2.9793,-3.0241,-3.0526,-3.0526,-3.0526,-3.0526,-3.0526,-3.0526,-3.0526,0.0,0.0,0.0,-1.0986,0.0,0.0,0.0,0.0,-1.0442,0.0,0.0,0.0,0.0,0.0,-1.0576,-0.9709,0.0,0.0,0.0,0.0,0.0,0.0,0.0,0.0,0.0,0.0,0.0,0.0,0.0,0.0,-1.363,-1.4534,-1.5265,-1.578,-1.5792,-1.5792,-1.5792,-1.5792,-1.5792,-1.5792,-1.5792,-1.5792,-1.5792,-1.5816,-1.6104,-1.6608,-1.7207,-1.7724,-1.8241,-1.877,-1.8987,-1.8987,-1.8987,-1.8987,-1.8987,-1.8987,-1.9117,-1.9182,-1.9182,-1.9368,-1.9604,-1.9759,-1.9798,-1.9798,-1.9798,-2.0577,-2.1468,-2.1481,-2.2272,-2.3113,-2.3138,-2.3138,-2.3125,-2.3125,-2.4105,-2.5007,-2.5063,-2.5988,-2.6779,-2.6779,-2.6779,-2.6779,-2.6779,-2.6779,-2.6779,-2.6779,-2.6779,-2.6779,-2.6779,-2.6779,-2.6779,-2.6779,-2.6779,-2.6779,-2.6779,-2.7026,-2.7335,-2.7575,-2.7625,-2.7795,-2.8304,-2.8842,-2.9303,-2.9793,-3.0241,-3.0526,-3.0526,-3.0526,-3.0526,-3.0526,-3.0526,-3.0526,0.0,0.0,-1.0269,-1.0673,0.0,0.0,0.0,0.0,0.0,0.0,0.0,0.0,0.0,-1.0932,-1.0447,-0.9877,-0.9372,-0.8665,0.0,0.0,0.0,0.0,0.0,0.0,0.0,0.0,0.0,0.0,0.0,0.0,0.0,-1.4027,-1.4778,-1.5334,-1.5334,-1.5468,-1.5792,-1.5792,-1.5792,-1.5792,-1.5792,-1.5792,-1.5792,-1.5792,-1.5888,-1.6092,-1.662,-1.7195,-1.7724,-1.8253,-1.8674,-1.8987,-1.8987,-1.8987,-1.8987,-1.8987,-1.9052,-1.9052,-1.917,-1.9275,-1.9368,-1.946,-1.9617,-1.9656,-1.9656,-2.0298,-2.1016,-2.1393,-2.202,-2.2673,-2.3037,-2.3078,-2.3185,-2.3662,-2.4118,-2.4624,-2.5425,-2.5825,-2.6165,-2.6674,-2.6779,-2.6779,-2.6779,-2.6779,-2.6779,-2.6779,-2.6779,-2.6779,-2.6779,-2.6779,-2.6779,-2.6779,-2.6779,-2.6779,-2.6779,-2.6937,-2.7196,-2.7437,-2.7488,-2.7575,-2.7845,-2.8304,-2.8638,-2.881,-2.9601,-3.0027,-3.0027,-3.0342,-3.0526,-3.0526,-3.0526,-3.0526,-0.9969,-0.9865,0.0,0.0,-0.9882,0.0,-0.9908,0.0,0.0,0.0,0.0,0.0,0.0,0.0,-1.0686,-0.9805,-0.9254,-0.8583,0.0,0.0,0.0,0.0,0.0,0.0,0.0,0.0,-0.8542,-0.9308,0.0,0.0,0.0,0.0,-1.4081,-1.4812,-1.5006,-1.5244,-1.557,-1.5703,-1.5792,-1.5792,-1.5792,-1.5792,-1.5792,-1.5792,-1.5792,-1.5828,-1.6356,-1.6871,-1.7448,-1.7989,-1.8518,-1.8987,-1.8987,-1.8987,-1.8987,-1.8987,-1.8987,-1.8999,-1.917,-1.9182,-1.9223,-1.9368,-1.9473,-1.9512,-1.9512,-2.0151,-2.0864,-2.1213,-2.1918,-2.258,-2.293,-2.3078,-2.3185,-2.3662,-2.3956,-2.4292,-2.509,-2.5328,-2.5605,-2.634,-2.65,-2.6553,-2.6779,-2.6779,-2.6779,-2.6779,-2.6779,-2.6779,-2.6779,-2.6779,-2.6779,-2.6779,-2.6779,-2.6832,-2.6899,-2.6951,-2.7107,-2.7284,-2.7335,-2.7386,-2.7473,-2.7929,-2.8207,-2.8207,-2.9104,-2.9528,-2.9572,-3.0027,-3.0258,-3.0258,-3.0426,-3.0526]}]]